[[{"header":{"parameterUnit":"m.s-1","parameterCategory":1,"la1":30.6,"la2":28.766,"lo1":-90.7593,"lo2":-88.6598,"dx":0.0162,"dy":0.0183,"nx":116,"ny":114,"refTime":"2022-12-14T06:00:00:Z","depth":0,"parameterNumber":2,"parameterNumberName":"U-component_of_WINDS"},"data":[0.0,0.0,0.0,0.0,0.0,0.0,0.0,0.0,0.0,0.0,0.0,0.0,0.0,0.0,0.0,0.0,0.0,0.0,0.0,0.0,0.0,0.0,0.0,0.0,0.0,0.0,0.0,0.0,0.0,0.0,0.0,0.0,0.0,0.0,0.0,0.0,0.0,0.0,0.0,0.0,0.0,0.0,0.0,0.0,0.0,0.0,0.0,0.0,0.0,0.0,0.0,0.0,0.0,0.0,0.0,0.0,0.0,0.0,0.0,0.0,0.0,0.0,0.0,0.0,0.0,0.0,0.0,0.0,0.0,0.0,0.0,0.0,0.0,0.0,0.0,0.0,0.0,0.0,0.0,0.0,0.0,0.0,0.0,0.0,0.0,0.0,0.0,0.0,0.0,0.0,0.0,0.0,0.0,0.0,0.0,0.0,0.0,0.0,0.0,0.0,0.0,0.0,0.0,0.0,0.0,0.0,0.0,0.0,0.0,0.0,0.0,0.0,0.0,0.0,0.0,0.0,0.0,0.0,0.0,0.0,0.0,0.0,0.0,0.0,0.0,0.0,0.0,0.0,0.0,0.0,0.0,0.0,0.0,0.0,0.0,0.0,0.0,0.0,0.0,0.0,0.0,0.0,0.0,0.0,0.0,0.0,0.0,0.0,0.0,0.0,0.0,0.0,0.0,0.0,0.0,0.0,0.0,0.0,0.0,0.0,0.0,0.0,0.0,0.0,0.0,0.0,0.0,0.0,0.0,0.0,0.0,0.0,0.0,0.0,0.0,0.0,0.0,0.0,0.0,0.0,0.0,0.0,0.0,0.0,0.0,0.0,0.0,0.0,0.0,0.0,0.0,0.0,0.0,0.0,0.0,0.0,0.0,0.0,0.0,0.0,0.0,0.0,0.0,0.0,0.0,0.0,0.0,0.0,0.0,0.0,0.0,0.0,0.0,0.0,0.0,0.0,0.0,0.0,0.0,0.0,0.0,0.0,0.0,0.0,0.0,0.0,0.0,0.0,0.0,0.0,0.0,0.0,0.0,0.0,0.0,0.0,0.0,0.0,0.0,0.0,0.0,0.0,0.0,0.0,0.0,0.0,0.0,0.0,0.0,0.0,0.0,0.0,0.0,0.0,0.0,0.0,0.0,0.0,0.0,0.0,0.0,0.0,0.0,0.0,0.0,0.0,0.0,0.0,0.0,0.0,0.0,0.0,0.0,0.0,0.0,0.0,0.0,0.0,0.0,0.0,0.0,0.0,0.0,0.0,0.0,0.0,0.0,0.0,0.0,0.0,0.0,0.0,0.0,0.0,0.0,0.0,0.0,0.0,0.0,0.0,0.0,0.0,0.0,0.0,0.0,0.0,0.0,0.0,0.0,0.0,0.0,0.0,0.0,0.0,0.0,0.0,0.0,0.0,0.0,0.0,0.0,0.0,0.0,0.0,0.0,0.0,0.0,0.0,0.0,0.0,0.0,0.0,0.0,0.0,0.0,0.0,0.0,0.0,0.0,0.0,0.0,0.0,0.0,0.0,0.0,0.0,0.0,0.0,0.0,0.0,0.0,0.0,0.0,0.0,0.0,0.0,0.0,0.0,0.0,0.0,0.0,0.0,0.0,0.0,0.0,0.0,0.0,0.0,0.0,0.0,0.0,0.0,0.0,0.0,0.0,0.0,0.0,0.0,0.0,0.0,0.0,0.0,0.0,0.0,0.0,0.0,0.0,0.0,0.0,0.0,0.0,0.0,0.0,0.0,0.0,0.0,0.0,0.0,0.0,0.0,0.0,0.0,0.0,0.0,0.0,0.0,0.0,0.0,0.0,0.0,0.0,0.0,0.0,0.0,0.0,0.0,0.0,0.0,0.0,0.0,0.0,0.0,0.0,0.0,0.0,0.0,0.0,0.0,0.0,0.0,0.0,0.0,0.0,0.0,0.0,0.0,0.0,0.0,0.0,0.0,0.0,0.0,0.0,0.0,0.0,0.0,0.0,0.0,0.0,0.0,0.0,0.0,0.0,0.0,0.0,0.0,0.0,0.0,0.0,0.0,0.0,0.0,0.0,0.0,0.0,0.0,0.0,0.0,0.0,0.0,0.0,0.0,0.0,0.0,0.0,0.0,0.0,0.0,0.0,0.0,0.0,0.0,0.0,0.0,0.0,0.0,0.0,0.0,0.0,0.0,0.0,0.0,0.0,0.0,0.0,0.0,0.0,0.0,0.0,0.0,0.0,0.0,0.0,0.0,0.0,0.0,0.0,0.0,0.0,0.0,0.0,0.0,0.0,0.0,0.0,0.0,0.0,0.0,0.0,0.0,0.0,0.0,0.0,0.0,0.0,0.0,0.0,0.0,0.0,0.0,0.0,0.0,0.0,0.0,0.0,0.0,0.0,0.0,0.0,0.0,0.0,0.0,0.0,0.0,0.0,0.0,0.0,0.0,0.0,0.0,0.0,0.0,0.0,0.0,0.0,0.0,0.0,0.0,0.0,0.0,0.0,0.0,0.0,0.0,0.0,0.0,0.0,0.0,0.0,0.0,0.0,0.0,0.0,0.0,0.0,0.0,0.0,0.0,0.0,0.0,0.0,0.0,0.0,0.0,0.0,0.0,0.0,0.0,0.0,0.0,0.0,0.0,0.0,0.0,0.0,0.0,0.0,0.0,0.0,0.0,0.0,0.0,0.0,0.0,0.0,0.0,0.0,0.0,0.0,0.0,0.0,0.0,0.0,0.0,0.0,0.0,0.0,0.0,0.0,0.0,0.0,0.0,0.0,0.0,0.0,0.0,0.0,0.0,0.0,0.0,0.0,0.0,0.0,0.0,0.0,0.0,0.0,0.0,0.0,0.0,0.0,0.0,0.0,0.0,0.0,0.0,0.0,0.0,0.0,0.0,0.0,0.0,0.0,0.0,0.0,0.0,0.0,0.0,0.0,0.0,0.0,0.0,0.0,0.0,0.0,0.0,0.0,0.0,0.0,0.0,0.0,0.0,0.0,0.0,0.0,0.0,0.0,0.0,0.0,0.0,0.0,0.0,0.0,0.0,0.0,0.0,0.0,0.0,0.0,0.0,0.0,0.0,0.0,0.0,0.0,0.0,0.0,0.0,0.0,0.0,0.0,0.0,0.0,0.0,0.0,0.0,0.0,0.0,0.0,0.0,0.0,0.0,0.0,0.0,0.0,0.0,0.0,0.0,0.0,0.0,0.0,0.0,0.0,0.0,0.0,0.0,0.0,0.0,0.0,0.0,0.0,0.0,0.0,0.0,0.0,0.0,0.0,0.0,0.0,0.0,0.0,0.0,0.0,0.0,0.0,0.0,0.0,0.0,0.0,0.0,0.0,0.0,0.0,0.0,0.0,0.0,0.0,0.0,0.0,0.0,0.0,0.0,0.0,0.0,0.0,0.0,0.0,0.0,0.0,0.0,0.0,0.0,0.0,0.0,0.0,0.0,0.0,0.0,0.0,0.0,0.0,0.0,0.0,0.0,0.0,0.0,0.0,0.0,0.0,0.0,0.0,0.0,0.0,0.0,0.0,0.0,0.0,0.0,0.0,0.0,0.0,0.0,0.0,0.0,0.0,0.0,0.0,0.0,0.0,0.0,0.0,0.0,0.0,0.0,0.0,0.0,0.0,0.0,0.0,0.0,0.0,0.0,0.0,0.0,0.0,0.0,0.0,0.0,0.0,0.0,0.0,0.0,0.0,0.0,0.0,0.0,0.0,0.0,0.0,0.0,0.0,0.0,0.0,0.0,0.0,0.0,0.0,0.0,0.0,0.0,0.0,0.0,0.0,0.0,0.0,0.0,0.0,0.0,0.0,0.0,0.0,0.0,0.0,0.0,0.0,0.0,0.0,0.0,0.0,0.0,0.0,0.0,0.0,0.0,0.0,0.0,0.0,0.0,0.0,0.0,0.0,0.0,0.0,0.0,0.0,0.0,0.0,0.0,0.0,0.0,0.0,0.0,0.0,0.0,0.0,0.0,0.0,0.0,0.0,0.0,0.0,0.0,0.0,0.0,0.0,0.0,0.0,0.0,0.0,0.0,0.0,0.0,0.0,0.0,0.0,0.0,0.0,0.0,0.0,0.0,0.0,0.0,0.0,0.0,0.0,0.0,0.0,0.0,0.0,0.0,0.0,0.0,0.0,0.0,0.0,0.0,0.0,0.0,0.0,0.0,0.0,0.0,0.0,0.0,0.0,0.0,0.0,0.0,0.0,0.0,0.0,0.0,0.0,0.0,0.0,0.0,0.0,0.0,0.0,0.0,0.0,0.0,0.0,0.0,0.0,0.0,0.0,0.0,0.0,0.0,0.0,0.0,0.0,0.0,0.0,0.0,0.0,0.0,0.0,0.0,0.0,0.0,0.0,0.0,0.0,0.0,0.0,0.0,0.0,0.0,0.0,0.0,0.0,0.0,0.0,0.0,0.0,0.0,0.0,0.0,0.0,0.0,0.0,0.0,0.0,0.0,0.0,0.0,0.0,0.0,0.0,0.0,0.0,0.0,0.0,0.0,0.0,0.0,0.0,0.0,0.0,0.0,0.0,0.0,0.0,0.0,0.0,0.0,0.0,0.0,0.0,0.0,0.0,0.0,0.0,0.0,0.0,0.0,0.0,0.0,0.0,0.0,0.0,0.0,0.0,0.0,0.0,0.0,0.0,0.0,0.0,0.0,0.0,0.0,0.0,0.0,0.0,0.0,0.0,0.0,0.0,0.0,0.0,0.0,0.0,0.0,0.0,0.0,0.0,0.0,0.0,0.0,0.0,0.0,0.0,0.0,0.0,0.0,0.0,0.0,0.0,0.0,0.0,0.0,0.0,0.0,0.0,0.0,0.0,0.0,0.0,0.0,0.0,0.0,0.0,0.0,0.0,0.0,0.0,0.0,0.0,0.0,0.0,0.0,0.0,0.0,0.0,0.0,0.0,0.0,0.0,0.0,0.0,0.0,0.0,0.0,0.0,0.0,0.0,0.0,0.0,0.0,0.0,0.0,0.0,0.0,0.0,0.0,0.0,0.0,0.0,0.0,0.0,0.0,0.0,0.0,0.0,0.0,0.0,0.0,0.0,0.0,0.0,0.0,0.0,0.0,0.0,0.0,0.0,0.0,0.0,0.0,0.0,0.0,0.0,0.0,0.0,0.0,0.0,0.0,0.0,0.0,0.0,0.0,0.0,0.0,0.0,0.0,0.0,0.0,0.0,0.0,0.0,0.0,0.0,0.0,0.0,0.0,0.0,0.0,0.0,0.0,0.0,0.0,0.0,0.0,0.0,0.0,0.0,0.0,0.0,0.0,0.0,0.0,0.0,0.0,0.0,0.0,0.0,0.0,0.0,0.0,0.0,0.0,0.0,0.0,0.0,0.0,0.0,0.0,0.0,0.0,0.0,0.0,0.0,0.0,0.0,0.0,0.0,0.0,0.0,0.0,0.0,0.0,0.0,0.0,0.0,0.0,0.0,0.0,0.0,0.0,0.0,0.0,0.0,0.0,0.0,0.0,0.0,0.0,0.0,0.0,0.0,0.0,0.0,0.0,0.0,0.0,0.0,0.0,0.0,0.0,0.0,0.0,0.0,0.0,0.0,0.0,0.0,0.0,0.0,0.0,0.0,0.0,0.0,0.0,0.0,0.0,0.0,0.0,0.0,0.0,0.0,0.0,0.0,0.0,0.0,0.0,0.0,0.0,0.0,0.0,0.0,0.0,0.0,0.0,0.0,0.0,0.0,0.0,0.0,0.0,0.0,0.0,0.0,0.0,0.0,0.0,0.0,0.0,0.0,0.0,0.0,0.0,0.0,0.0,0.0,0.0,0.0,0.0,0.0,0.0,0.0,0.0,0.0,0.0,0.0,0.0,0.0,0.0,0.0,0.0,0.0,0.0,0.0,0.0,0.0,0.0,0.0,0.0,0.0,0.0,0.0,0.0,0.0,0.0,0.0,0.0,0.0,0.0,0.0,0.0,0.0,0.0,0.0,0.0,0.0,0.0,0.0,0.0,0.0,0.0,0.0,0.0,0.0,0.0,0.0,0.0,0.0,0.0,0.0,0.0,0.0,0.0,0.0,0.0,0.0,0.0,0.0,0.0,0.0,0.0,0.0,0.0,0.0,0.0,0.0,0.0,0.0,0.0,3.8791,3.4613,0.0,0.0,0.0,0.0,0.0,0.0,0.0,0.0,0.0,0.0,0.0,0.0,0.0,0.0,0.0,0.0,0.0,0.0,0.0,0.0,0.0,0.0,0.0,1.9936,1.9736,1.9357,1.966,0.0,0.0,0.0,0.0,0.0,0.0,0.0,0.0,0.0,2.0766,2.2517,2.4219,2.683,3.0269,2.8922,2.6915,2.4409,0.0,0.0,0.0,0.0,0.0,0.0,0.0,0.0,0.0,0.0,0.0,0.0,0.0,0.0,0.0,0.0,0.0,0.0,0.0,0.0,0.0,0.0,0.0,0.0,0.0,0.0,0.0,0.0,0.0,0.0,0.0,0.0,0.0,0.0,0.0,0.0,0.0,0.0,0.0,0.0,0.0,0.0,0.0,0.0,0.0,0.0,0.0,0.0,0.0,0.0,0.0,0.0,0.0,0.0,0.0,0.0,0.0,0.0,0.0,0.0,0.0,0.0,0.0,0.0,0.0,0.0,0.0,0.0,0.0,0.0,4.3622,4.0637,0.0,0.0,0.0,0.0,0.0,0.0,0.0,0.0,0.0,0.0,0.0,0.0,0.0,0.0,0.0,0.0,0.0,0.0,0.0,0.0,0.0,1.932,2.0316,2.1172,2.1449,2.0918,2.1384,2.1384,2.0728,1.9844,0.0,0.0,0.0,0.0,1.9774,2.1878,2.4117,2.6515,2.9702,3.3379,3.7384,3.8688,3.6617,3.1708,2.8753,0.0,0.0,0.0,0.0,0.0,0.0,0.0,0.0,0.0,0.0,0.0,0.0,0.0,0.0,0.0,0.0,0.0,0.0,0.0,0.0,0.0,0.0,0.0,0.0,0.0,0.0,0.0,0.0,0.0,0.0,0.0,0.0,0.0,0.0,0.0,0.0,0.0,0.0,0.0,0.0,0.0,0.0,0.0,0.0,0.0,0.0,0.0,0.0,0.0,0.0,0.0,0.0,0.0,0.0,0.0,0.0,0.0,0.0,0.0,0.0,0.0,0.0,0.0,4.8035,4.902,4.902,4.8989,5.0196,5.2045,4.8468,4.7315,4.7695,4.4182,0.0,0.0,0.0,0.0,0.0,0.0,0.0,0.0,0.0,0.0,0.0,0.0,0.0,0.0,0.0,0.0,0.0,0.0,0.0,2.0429,2.1983,2.2989,2.3782,2.4381,2.3962,2.3551,2.34,2.2588,0.0,0.0,0.0,0.0,2.4157,2.4656,2.7175,3.1704,3.7463,4.1424,4.3608,4.3062,4.2773,4.2525,3.7685,3.5485,3.5166,0.0,0.0,0.0,0.0,0.0,0.0,0.0,0.0,0.0,0.0,0.0,0.0,0.0,0.0,0.0,0.0,0.0,0.0,0.0,0.0,0.0,0.0,0.0,0.0,0.0,0.0,0.0,0.0,0.0,0.0,0.0,0.0,0.0,0.0,0.0,0.0,0.0,0.0,0.0,0.0,0.0,3.8461,3.8617,0.0,0.0,0.0,0.0,0.0,0.0,0.0,0.0,0.0,0.0,0.0,0.0,0.0,4.4394,4.5493,4.886,5.0547,5.0578,5.3842,5.5389,5.5389,5.5391,5.5567,5.5889,5.5286,0.0,4.9766,4.9958,0.0,0.0,0.0,0.0,0.0,0.0,0.0,0.0,0.0,0.0,0.0,0.0,0.0,0.0,0.0,0.0,0.0,0.0,0.0,0.0,0.0,2.5979,2.734,2.8644,2.8449,2.7846,2.688,2.5538,0.0,0.0,0.0,2.4143,2.5791,2.8291,3.2783,3.9393,4.4145,4.7144,4.839,4.9035,4.9541,4.9775,4.6553,4.2412,3.7713,3.6182,0.0,0.0,0.0,0.0,0.0,0.0,0.0,0.0,0.0,0.0,0.0,0.0,0.0,0.0,0.0,0.0,0.0,0.0,0.0,0.0,0.0,0.0,0.0,0.0,0.0,0.0,0.0,0.0,0.0,0.0,0.0,0.0,0.0,0.0,0.0,0.0,0.0,0.0,0.0,3.7063,3.9071,3.9536,3.9054,3.7889,0.0,0.0,0.0,0.0,0.0,0.0,0.0,0.0,0.0,4.8183,4.8409,4.9534,5.1888,5.3491,5.4291,5.4333,5.5815,5.6562,5.6601,5.6595,5.6614,5.6587,5.6597,5.5531,5.3672,5.2539,5.0225,4.7234,0.0,0.0,0.0,0.0,4.5675,4.6687,0.0,0.0,0.0,0.0,0.0,0.0,0.0,0.0,0.0,0.0,0.0,0.0,2.7151,2.9229,3.1006,3.2468,3.2415,3.1761,3.0506,2.8582,2.6918,2.5657,2.5426,2.6118,2.7769,3.2887,3.8744,4.5315,4.8662,5.0616,5.1265,5.2635,5.3249,5.3221,5.195,4.7811,4.1668,4.0533,3.8447,3.5636,0.0,0.0,0.0,0.0,0.0,0.0,0.0,0.0,0.0,0.0,0.0,0.0,0.0,0.0,0.0,0.0,0.0,0.0,0.0,0.0,0.0,0.0,0.0,0.0,0.0,0.0,0.0,0.0,0.0,0.0,0.0,0.0,0.0,0.0,0.0,0.0,0.0,3.9154,4.0931,4.0858,4.2277,4.1801,0.0,0.0,0.0,0.0,0.0,0.0,4.6535,4.7168,4.9032,5.2313,5.2524,5.3919,5.6758,5.6783,5.6952,5.7231,5.7379,5.75,5.7578,5.7812,5.789,5.789,5.789,5.789,5.7695,5.4805,5.2851,5.1522,4.951,4.8468,4.8116,4.8565,4.9293,5.0361,0.0,0.0,0.0,0.0,0.0,0.0,0.0,0.0,0.0,0.0,0.0,2.8147,2.9908,3.2466,3.4391,3.5239,3.4654,3.4202,3.4056,3.1615,3.0144,2.9997,2.9297,2.9682,3.1303,3.8814,4.4172,4.7259,4.9849,5.1195,5.1318,5.1467,5.152,5.1522,5.143,5.1166,5.0463,4.6319,4.3974,4.2644,3.7586,0.0,0.0,0.0,0.0,0.0,0.0,0.0,0.0,0.0,0.0,0.0,0.0,0.0,0.0,0.0,0.0,0.0,0.0,0.0,0.0,0.0,0.0,0.0,0.0,0.0,0.0,0.0,0.0,0.0,0.0,0.0,0.0,0.0,0.0,0.0,0.0,0.0,0.0,4.4826,4.7534,0.0,0.0,0.0,0.0,4.5504,4.652,4.8609,5.1811,5.2128,5.3367,5.5952,5.6222,5.6725,5.7517,5.7601,5.8062,5.89,5.9719,6.0156,6.0234,6.1055,6.1445,6.1445,6.1445,6.1445,6.1172,5.7773,5.4883,5.2539,5.2382,5.1307,4.9971,5.1703,5.2874,5.3883,0.0,0.0,0.0,2.0457,2.0379,2.056,2.102,2.1367,2.2277,2.4092,2.691,2.9792,3.2555,3.5237,3.7371,3.88,3.867,3.8257,3.7692,3.5245,3.4036,3.4515,3.3263,3.5173,4.0738,4.4189,4.7767,5.1576,5.2503,5.3525,5.464,5.4669,5.4998,5.5467,5.4395,5.3923,5.3664,4.9875,4.742,4.5858,4.2846,3.927,0.0,0.0,0.0,0.0,0.0,0.0,0.0,0.0,0.0,0.0,0.0,0.0,0.0,0.0,0.0,0.0,0.0,0.0,0.0,0.0,0.0,0.0,0.0,0.0,0.0,0.0,0.0,0.0,0.0,0.0,0.0,0.0,0.0,0.0,0.0,0.0,0.0,4.7483,4.9381,0.0,4.7056,4.8825,5.0131,5.0037,5.1886,5.3807,5.5603,5.5697,5.666,5.8737,5.8925,5.9353,6.0166,6.019,6.0094,5.9898,6.0151,6.0067,5.9648,5.9961,6.0078,6.0117,6.0625,6.0859,6.0781,5.9531,5.8828,5.8476,5.8476,5.8045,5.7567,5.8215,5.8631,5.9026,0.0,0.0,0.0,2.0379,2.0379,2.063,2.1374,2.2069,2.3496,2.6177,2.9157,3.2182,3.5288,3.7924,3.9959,4.1081,4.1467,4.139,4.081,3.8682,3.7522,3.7754,3.7284,4.0121,4.6785,4.8059,5.0408,5.3884,5.4195,5.4937,5.6077,5.6362,5.6836,5.7335,5.5915,5.5474,5.5552,5.2663,5.0761,4.9488,4.7147,4.3943,4.0324,0.0,0.0,0.0,0.0,0.0,0.0,0.0,0.0,0.0,0.0,0.0,0.0,0.0,0.0,0.0,0.0,0.0,0.0,0.0,0.0,0.0,0.0,0.0,0.0,0.0,0.0,0.0,0.0,0.0,0.0,0.0,0.0,0.0,0.0,4.7738,4.9956,4.8457,5.1078,5.2095,4.975,5.2388,5.4225,5.4167,5.6281,5.7826,5.8368,5.8407,5.8987,6.02,6.0277,6.0756,6.1573,6.19,6.191,6.1678,6.1908,6.1807,6.1367,6.164,6.1797,6.1836,6.2344,6.2578,6.2578,6.2578,6.293,6.332,6.1836,6.1445,6.1719,6.1719,6.1719,6.1719,0.0,0.0,2.0379,2.0379,2.0418,2.0707,2.1413,2.303,2.5389,2.879,3.2204,3.5288,3.7936,4.0462,4.2009,4.2009,4.2821,4.3324,4.3324,4.1777,4.0513,3.9739,4.1446,4.4453,4.8816,5.049,5.2216,5.4011,5.4879,5.5299,5.5387,5.6207,5.663,5.6684,5.5825,5.5903,5.6567,5.4849,5.4108,5.3838,5.0347,4.8398,4.6914,0.0,0.0,0.0,0.0,0.0,0.0,0.0,0.0,0.0,0.0,0.0,0.0,0.0,0.0,0.0,0.0,0.0,0.0,0.0,0.0,0.0,0.0,0.0,0.0,0.0,0.0,0.0,0.0,0.0,0.0,0.0,0.0,0.0,4.8158,4.9885,5.0597,4.7996,5.2995,5.5287,5.1787,5.541,5.7885,5.7754,5.9349,6.0317,6.03,6.0339,6.0395,6.045,6.0528,6.0937,6.1758,6.2617,6.3455,6.4268,6.5023,6.5438,6.5586,6.6445,6.6836,6.6875,6.6875,6.6914,6.6953,6.6953,6.6953,6.6562,6.2265,6.1133,6.1875,6.1875,6.1875,6.1875,2.0379,2.0379,2.0379,2.0379,2.0927,2.1603,2.2345,2.3959,2.6292,2.9648,3.2596,3.5334,3.7909,4.0462,4.2009,4.2009,4.3363,4.4253,4.4253,4.2666,4.2493,4.4139,4.7699,5.0812,5.3283,5.3837,5.4976,5.6748,5.6969,5.7731,5.8942,5.8551,5.8739,5.9339,5.8441,5.8207,5.8324,5.7231,5.6762,5.6528,5.3689,5.0925,4.8277,0.0,0.0,0.0,0.0,0.0,0.0,0.0,0.0,0.0,0.0,0.0,0.0,0.0,0.0,0.0,0.0,0.0,0.0,0.0,0.0,0.0,0.0,0.0,0.0,0.0,0.0,0.0,0.0,0.0,0.0,0.0,5.0986,5.2523,5.1325,5.3481,5.4909,5.4173,5.6053,5.7302,5.7047,5.8543,5.9826,6.0466,6.0924,6.1447,6.2134,6.2194,6.2782,6.4101,6.4176,6.457,6.543,6.5664,6.558,6.5228,6.5424,6.5215,6.4687,6.4922,6.5351,6.5976,6.664,6.7265,6.7851,6.7851,6.8203,6.8555,6.6055,6.5273,6.5469,6.5469,6.5469,6.5469,2.0379,2.0379,2.0379,2.0379,2.1121,2.1958,2.2692,2.4632,2.7323,3.1009,3.3495,3.6052,3.8953,4.1235,4.255,4.255,4.4098,4.4962,4.4679,4.4083,4.5248,4.8564,5.1172,5.3332,5.5093,5.5893,5.6797,5.7785,5.851,5.9413,6.0418,6.0259,6.0448,6.09,6.0041,5.9651,5.9573,5.8714,5.8128,5.766,5.6177,5.3959,5.1391,5.0305,4.8319,4.5935,4.4876,4.4245,4.384,4.3362,0.0,0.0,0.0,0.0,0.0,0.0,0.0,0.0,0.0,0.0,0.0,0.0,0.0,0.0,0.0,0.0,0.0,0.0,0.0,0.0,0.0,0.0,0.0,0.0,5.3475,5.5225,5.4882,5.6156,5.7148,5.7148,5.7851,5.8555,5.914,6.0181,6.1034,6.1601,6.2602,6.3449,6.3984,6.4013,6.4489,6.5586,6.5586,6.5859,6.6367,6.6719,6.664,6.6133,6.6133,6.5898,6.539,6.539,6.5664,6.6172,6.668,6.7187,6.7656,6.7656,6.7969,6.8359,0.0,0.0,0.0,0.0,6.7969,6.7969,2.0379,2.0379,2.0379,2.0379,2.1198,2.2074,2.27,2.5103,2.8327,3.2447,3.4588,3.698,4.0423,4.2202,4.3247,4.344,4.4987,4.575,4.5324,4.6169,4.8458,5.2349,5.2787,5.3749,5.5459,5.7082,5.802,5.8237,5.9804,6.0613,6.0705,6.1369,6.172,6.1681,6.09,6.0549,6.0471,5.9612,5.8792,5.8089,5.7894,5.6801,5.5044,5.2702,5.1745,5.1328,4.9023,4.777,4.7012,4.6222,0.0,0.0,0.0,0.0,0.0,0.0,0.0,0.0,0.0,0.0,0.0,0.0,0.0,0.0,0.0,0.0,0.0,0.0,0.0,0.0,0.0,0.0,0.0,0.0,5.6341,5.8858,5.8279,5.8281,5.8281,5.8203,5.8945,5.957,5.9765,6.1211,6.2187,6.2265,6.4453,6.5742,6.5742,6.5742,0.0,0.0,0.0,6.5742,6.5742,6.6523,6.6914,6.6914,6.6914,6.6914,6.6914,6.6914,6.6953,6.7031,6.7031,6.7109,6.7187,6.7187,6.7187,6.7265,6.793,6.8672,6.9414,6.9414,6.9414,6.9414,2.0379,2.0379,2.0379,2.0379,2.1662,2.2706,2.2847,2.5638,2.905,3.2627,3.461,3.698,4.0423,4.1661,4.2821,4.4253,4.5877,4.7403,4.872,5.0353,5.1658,5.255,5.4585,5.6215,5.7278,5.8336,5.9528,6.0936,6.1274,6.1803,6.2501,6.1954,6.172,6.1681,6.1525,6.1447,6.1408,6.051,6.0041,5.9768,5.8363,5.6801,5.524,5.4732,5.4112,5.3416,5.2908,5.3068,5.3466,5.3202,5.2106,5.0817,5.0785,4.925,0.0,0.0,0.0,0.0,0.0,0.0,0.0,0.0,0.0,0.0,0.0,0.0,0.0,0.0,0.0,0.0,0.0,0.0,0.0,5.4569,5.6659,5.8548,5.9765,6.0508,6.0703,6.0,6.0703,6.1758,6.3164,6.4258,6.5156,6.5859,6.6367,6.664,6.664,6.664,6.664,6.664,6.664,6.664,6.664,6.6836,6.6914,6.6914,6.6914,0.0,6.6914,6.6914,6.7265,6.7969,6.7969,6.8359,6.8984,6.8945,6.8906,6.8867,6.8398,6.8672,6.9414,6.9453,6.9492,6.9492,2.0379,2.0379,2.0379,2.0379,2.1778,2.2745,2.2365,2.5182,2.8277,3.0868,3.3073,3.5394,3.7986,4.0113,4.139,4.139,4.3775,4.6601,4.9648,5.1131,5.2675,5.4482,5.5795,5.6909,5.7789,5.8668,5.9961,6.1715,6.1694,6.2149,6.2969,6.211,6.172,6.172,6.172,6.172,6.1681,6.1252,6.0783,6.0315,5.9456,5.8324,5.7113,5.6255,5.5669,5.524,5.481,5.4927,5.5205,5.4718,5.3978,5.3275,5.3242,5.2383,5.082,0.0,0.0,0.0,0.0,0.0,0.0,0.0,0.0,0.0,0.0,0.0,0.0,0.0,0.0,5.2113,5.3042,0.0,5.5644,5.6995,5.8655,6.0078,6.0937,6.2187,6.2695,6.1797,6.2461,6.3359,6.4219,6.5078,6.5781,6.6211,6.664,6.6914,6.6914,6.6914,6.6914,6.6914,6.6914,6.6914,6.6914,6.6914,6.6914,6.6914,6.6914,6.7148,6.7539,6.7539,6.8047,6.8867,6.9297,6.9687,7.0117,7.0547,7.0976,7.1328,7.0898,7.0195,6.9414,6.9453,6.9453,6.9492,2.0379,2.0379,2.0379,2.0379,2.1778,2.2668,2.2017,2.4641,2.734,2.905,3.1371,3.3576,3.5472,3.8141,3.9495,3.876,4.21,4.5929,4.9865,5.1186,5.3196,5.6352,5.6504,5.6907,5.777,5.8633,5.9956,6.1711,6.1694,6.2149,6.2969,6.211,6.172,6.172,6.172,6.172,6.172,6.172,6.1291,6.0627,6.0471,5.9963,5.9183,5.766,5.6996,5.6723,5.602,5.5708,5.5435,5.4732,5.4615,5.4732,5.4732,5.4849,5.4502,5.2027,5.1913,0.0,0.0,0.0,0.0,0.0,0.0,0.0,0.0,5.0616,5.1547,5.2567,5.3582,5.4846,5.6669,5.7274,5.7985,5.9449,6.0976,6.207,6.2422,6.3671,6.4334,6.3827,6.4218,6.4609,6.4805,6.543,6.5859,6.5859,6.6484,6.6914,6.6914,6.6914,6.6914,6.6914,6.6914,6.6992,6.7148,6.7305,6.7461,6.7656,6.7812,6.8242,6.8945,6.8945,6.9336,7.0039,7.0664,7.0937,7.1015,7.1719,7.2422,7.3047,7.3047,7.1758,6.9961,7.0273,7.043,7.0508,2.0379,2.0379,2.0379,2.0379,2.1778,2.2861,2.2784,2.4989,2.734,2.905,3.083,3.2919,3.5433,3.6052,3.7406,4.0268,4.4389,4.8038,5.0798,5.2629,5.4479,5.643,5.6504,5.6911,5.7772,5.863,5.9952,6.1686,6.1681,6.2149,6.2969,6.211,6.172,6.172,6.172,6.172,6.172,6.172,6.1642,6.1486,6.0705,6.0354,6.0159,5.9183,5.8324,5.766,5.7543,5.7074,5.645,5.6333,5.6762,5.7387,5.7387,5.7894,5.8168,5.6372,5.4346,5.2373,5.1015,4.9696,4.9449,5.2421,5.1601,5.1636,0.0,5.7343,5.6327,5.7967,5.957,6.0311,5.9137,6.0112,6.1168,6.1406,6.2226,6.3398,6.4961,6.5341,6.5711,6.6375,6.5854,6.5742,6.6523,6.6719,6.6758,6.6758,6.6836,6.6914,6.6914,6.6914,6.6914,6.6914,6.6914,6.7265,6.8047,6.875,6.9492,7.0273,7.1055,7.1484,7.1562,7.1562,7.164,7.1719,7.1836,7.1836,7.1875,7.1953,7.207,7.2148,7.2148,7.1953,7.1914,7.3437,7.4023,7.4023,2.0379,2.0379,2.0379,2.0379,2.1778,2.2745,2.2288,2.437,2.6265,2.7,2.8973,3.0559,3.1139,3.2532,3.5007,3.8953,4.286,4.5957,4.7999,5.1318,5.3976,5.5681,5.5781,5.6439,5.7757,5.8655,5.9937,6.172,6.172,6.2149,6.2969,6.211,6.172,6.172,6.172,6.172,6.172,6.172,6.172,6.1681,6.1291,6.0861,6.0354,6.0002,5.8987,5.7855,5.8363,5.7699,0.0,5.7153,5.7192,5.7113,5.7113,5.766,5.8128,5.6957,5.6879,5.709,5.6666,5.5271,5.4328,5.5807,5.6113,5.6731,5.9117,5.9988,6.0543,6.1246,6.1952,6.2383,6.2187,6.2344,6.2617,6.3125,6.3941,6.4753,6.5495,6.6036,6.6497,6.6878,6.6579,6.6516,6.6875,6.6914,6.6914,6.6914,6.6914,6.6914,6.6914,6.7851,6.8398,6.8398,6.9375,7.0039,7.039,7.0742,7.1094,7.1445,7.1836,7.2265,7.2773,7.2773,7.332,7.4258,7.4258,7.457,7.5039,7.5039,7.5039,7.5039,7.5039,7.5039,7.4883,7.3555,7.3086,7.3086,2.0772,2.0772,2.0772,2.0772,2.2126,2.29,2.1862,2.3867,2.5337,2.4834,2.6807,2.8083,2.7696,3.0559,3.3654,3.6555,4.045,4.3669,4.5861,4.9739,5.2929,5.5115,5.5263,5.5981,5.7426,5.8285,5.9378,6.0627,6.1095,6.1642,6.2267,6.1876,6.172,6.172,6.172,6.172,6.1681,6.1447,6.1486,6.1642,6.1174,6.0744,6.0354,6.0119,5.9104,5.7894,5.8519,5.7816,5.6606,5.6723,5.684,5.684,5.6372,5.7113,5.8089,5.7738,5.8921,6.0266,5.9805,5.9099,5.8538,5.8796,6.0002,6.0934,6.031,6.1846,6.3302,6.3068,6.3193,6.3552,6.4179,6.418,6.4297,6.4919,6.5762,6.6327,6.6327,6.6653,6.6891,6.6917,6.6912,6.7082,6.7535,6.7187,6.6992,6.7226,6.7461,6.7695,6.793,6.9375,7.0195,7.0195,7.1367,7.2109,7.2344,7.2617,7.2851,7.3086,7.332,7.375,7.4375,7.4375,7.5078,7.625,7.625,7.6758,7.7578,7.7578,7.7695,7.789,7.789,7.789,7.7578,7.5039,7.3828,7.3437,2.1669,2.1669,2.1669,2.1669,2.3055,2.3596,2.194,2.3867,2.4873,2.3209,2.4525,2.5917,2.6644,3.1294,3.404,3.3334,3.7947,4.2354,4.5857,4.8591,5.1595,5.5038,5.5257,5.5708,5.6606,5.7426,5.7855,5.7933,5.9612,6.0432,6.051,6.133,6.172,6.172,6.172,6.172,6.1642,6.0783,6.0939,6.1564,5.9846,5.9651,6.0315,5.9456,5.8597,5.7816,5.7816,5.7309,5.6333,5.4693,5.5747,5.7465,5.5864,5.7035,5.9222,6.0041,6.0271,5.9957,5.8303,5.9016,6.0429,6.1342,6.2267,6.2891,6.2886,6.3594,6.4023,6.3164,6.3672,6.4271,6.4296,6.5664,6.6794,6.68,6.7537,6.8127,6.8127,6.742,6.6912,6.6912,6.6912,6.7542,6.9182,6.7846,6.7265,6.8086,6.8945,6.9765,7.0547,7.1445,7.1914,7.1914,7.1953,7.2422,7.3242,7.4101,7.4961,7.5781,7.664,7.707,7.707,7.707,7.7109,7.7148,7.7148,7.7656,7.8476,7.8476,7.8906,7.9609,7.9609,7.9609,7.9609,7.9492,7.8437,7.7031,2.2553,2.2533,2.252,2.252,2.3441,2.3828,2.2675,2.3712,2.4447,2.3828,2.526,0.0,0.0,0.0,0.0,0.0,3.7656,4.0982,4.3297,4.703,5.0191,5.2492,5.3781,5.4849,5.5708,5.7074,5.7816,5.7816,5.8987,5.9534,5.9534,5.9846,5.9963,5.9963,5.9963,5.9963,5.9963,5.9651,5.9729,5.9924,5.9339,5.8948,5.8753,5.9612,5.8011,5.5435,0.0,5.645,5.5552,5.4381,5.4576,5.5162,5.4615,5.5044,5.6216,5.8788,6.0331,6.1355,6.1959,6.2084,6.2326,6.3208,6.3633,6.414,6.5273,6.6209,6.6912,6.7185,6.7498,6.7664,6.7676,6.8652,6.9436,6.9408,6.9667,6.984,6.9845,6.8605,6.8141,6.926,6.8908,6.9221,7.0977,6.9564,6.914,7.0625,7.0976,7.1289,7.1562,7.293,7.3711,7.3711,7.4844,7.5859,7.6758,7.7031,7.7344,7.7617,7.793,7.8359,7.8867,7.8867,7.8867,7.8867,7.8867,7.9023,7.9297,7.9297,7.9453,7.9687,7.9687,7.9687,7.9687,7.9687,7.9336,7.8867,2.3418,2.3392,2.3364,2.3364,2.4099,0.0,0.0,0.0,0.0,0.0,0.0,0.0,0.0,0.0,0.0,0.0,0.0,3.9207,4.1519,4.4616,4.7556,5.025,5.1172,5.2218,5.3427,5.4208,5.5023,5.5993,5.6852,5.7746,5.8636,5.9261,5.9573,5.9573,5.9573,5.9573,5.9534,5.9222,5.9651,6.0354,5.8831,5.8246,5.8207,5.7816,5.5552,0.0,5.3522,5.3444,5.2897,5.2312,5.2741,5.3483,5.3171,5.4537,5.6723,5.8905,6.1017,6.3008,6.4726,6.4765,6.4648,6.5819,6.6131,6.6405,6.7498,6.8161,6.8708,6.9294,6.9137,6.8947,6.8956,6.9884,7.0709,7.0695,7.1236,7.162,7.1641,7.0679,7.0374,7.1506,7.1416,7.1924,7.3693,7.2569,7.1911,7.2422,7.2734,7.3086,7.3398,7.4765,7.5546,7.554,7.6601,7.7617,7.8476,7.8476,7.8633,7.8945,7.8942,7.9212,7.968,7.9687,7.9687,7.9687,7.9687,7.9883,8.0156,8.0156,8.0351,8.0625,8.0625,8.0625,8.0625,8.0625,8.0625,8.0547,2.4271,2.4283,2.4254,0.0,0.0,0.0,0.0,0.0,0.0,0.0,0.0,0.0,0.0,0.0,0.0,0.0,0.0,0.0,4.0462,4.156,4.3962,4.8259,4.7718,4.8152,4.9919,4.9217,5.0,5.2495,5.3353,5.5026,5.743,5.9143,5.9963,6.0002,6.0002,6.0041,6.0002,5.9143,6.0198,6.211,5.7933,5.727,5.8285,5.4225,5.1609,4.993,4.9189,4.8837,4.8759,4.8837,5.0633,5.2702,5.1843,5.563,6.0354,6.0432,6.2306,6.4726,6.6405,6.6912,6.7342,6.8981,6.9411,6.9411,6.945,6.945,6.945,6.945,6.8786,6.8166,6.819,6.9546,7.0743,7.0816,7.2254,7.3395,7.3486,7.3403,7.342,7.3554,7.4246,7.5412,7.7148,7.6583,7.5404,7.3749,7.4297,7.5078,7.5937,7.6758,7.7222,7.7263,7.7259,7.7656,7.8515,7.8594,7.9023,7.9843,7.9782,7.9795,7.9834,7.9837,7.9843,7.9844,7.9844,8.0312,8.1054,8.1054,8.1562,8.2304,8.2304,8.2304,8.2304,8.2304,8.2304,8.207,0.0,0.0,0.0,0.0,0.0,0.0,0.0,0.0,0.0,0.0,0.0,0.0,0.0,0.0,0.0,0.0,0.0,0.0,3.7781,3.9993,4.2284,4.465,4.585,4.6931,4.8074,4.8506,4.9096,4.9804,5.0662,5.1439,5.2099,5.3178,5.4029,5.4654,5.4654,5.5005,5.5552,5.4693,5.4732,5.5123,5.2702,5.239,5.3327,5.2858,5.1219,4.9267,5.036,4.9501,4.8096,4.9345,5.1921,5.4615,5.4381,5.6645,5.969,6.0978,6.3204,6.5624,6.7303,6.8239,6.8825,6.9294,6.9411,6.9567,7.023,7.0387,7.0387,7.0387,6.9684,6.9059,6.9064,6.9947,7.113,7.2419,7.354,7.4709,7.6011,7.5075,7.4998,7.6953,7.6796,7.7181,7.8918,7.8864,7.8551,7.8098,7.7058,7.6556,7.679,7.6985,7.7413,7.8067,7.8098,7.8809,8.0305,8.0344,8.0774,8.1633,8.0961,8.1027,8.163,8.1647,8.1628,8.164,8.164,8.1758,8.1953,8.1953,8.2109,8.2304,8.2304,8.2304,8.2304,8.2304,8.2304,8.2226,0.0,0.0,0.0,0.0,0.0,0.0,0.0,0.0,0.0,0.0,0.0,0.0,0.0,0.0,0.0,0.0,0.0,0.0,0.0,3.7783,3.9548,4.1625,4.2323,4.3266,4.4538,4.467,4.5508,4.7093,4.7574,4.8398,4.9531,5.042,5.1076,5.1545,5.1574,5.1843,5.2273,5.1765,5.1999,0.0,0.0,5.0282,5.1297,5.0282,4.872,4.7315,4.8681,4.9462,5.0048,5.1375,5.3639,5.5864,5.5864,5.8128,6.1017,6.1993,6.4375,6.699,6.8318,6.9294,7.0074,7.0465,7.0543,7.0582,7.0699,7.0387,6.9918,6.9132,6.8323,6.7625,6.7219,6.9406,7.1484,7.207,7.4488,7.6632,7.7617,7.7226,7.7539,7.9375,7.9489,7.9825,8.0732,8.0498,8.0263,8.0263,7.8991,7.8063,7.7673,7.8024,7.8293,7.841,7.8786,7.9606,8.0988,8.1378,8.1808,8.2281,8.1808,8.1842,8.2293,8.2293,8.2315,8.2301,8.2304,8.2304,8.2304,8.2304,8.2304,8.2304,8.2304,8.2304,8.2304,8.2304,8.2304,8.2304,0.0,0.0,0.0,0.0,0.0,0.0,0.0,0.0,0.0,2.3364,2.4718,2.6343,2.8161,2.9669,0.0,0.0,0.0,0.0,0.0,0.0,3.6471,3.8965,3.8345,3.8753,4.0519,3.9863,4.1013,4.4031,4.4294,4.5567,4.781,4.8788,4.9294,4.9411,4.9436,4.9505,4.9583,4.9462,5.0282,5.1453,4.8954,4.8915,5.0048,0.0,4.5363,4.4972,4.6066,4.915,5.2819,5.3717,5.5396,5.7074,5.6957,5.9807,6.3164,6.3164,6.5585,6.8435,6.9176,7.0191,7.1206,7.1831,7.2104,7.1909,7.0933,6.9957,6.8747,6.6985,6.5915,6.5065,6.4418,6.8039,7.1133,7.1055,7.4844,7.8008,7.8594,7.9258,8.0039,8.0898,8.1777,8.2293,8.2293,8.163,8.1161,8.1161,8.0459,7.96,7.8624,7.9287,7.9405,7.878,7.96,8.0413,8.1161,8.1903,8.2293,8.2293,8.2293,8.2293,8.2293,8.2293,8.2305,8.2281,8.23,8.2304,8.2304,8.2304,8.2304,8.2304,8.2304,8.2304,8.2304,8.2304,8.2304,8.2304,0.0,0.0,0.0,0.0,0.0,0.0,0.0,0.0,0.0,0.0,2.6296,2.7426,0.0,0.0,0.0,0.0,0.0,0.0,0.0,0.0,0.0,3.6306,3.6228,3.6985,3.8714,3.8606,3.8852,3.9526,4.1037,4.1999,4.2474,4.4057,4.5154,4.5819,4.5858,4.6284,4.6908,4.6189,4.6066,4.6183,4.427,4.4114,4.4894,4.3567,0.0,0.0,4.6534,4.9657,5.2819,5.3717,5.6567,5.9612,5.8909,6.1174,6.4062,6.4062,6.6483,6.9215,6.9372,7.1089,7.2729,7.2143,7.2534,7.2651,7.105,6.9489,6.7849,6.617,6.4558,6.3632,6.4217,6.5625,6.8047,7.2187,7.3594,7.543,7.8984,7.9609,8.0039,8.0898,8.1777,8.2293,8.2293,8.2176,8.2059,8.2059,8.1942,8.1161,7.9561,7.9639,7.9951,8.0537,8.1396,8.1903,8.2059,8.2215,8.2293,8.2293,8.2293,8.2293,8.2293,8.2293,8.2293,8.2299,8.2305,8.2281,8.2297,8.2304,8.2304,8.2304,8.2304,8.2304,8.2304,8.2304,8.2304,8.2304,0.0,0.0,0.0,0.0,0.0,0.0,0.0,2.553,2.6962,3.0868,3.1758,3.1642,3.0714,3.0984,3.1062,0.0,0.0,0.0,0.0,0.0,0.0,3.4311,3.4775,3.5648,3.6908,3.7395,3.7868,3.8338,0.0,3.9691,3.9784,4.0597,4.1199,4.1597,4.207,4.2534,4.2917,4.2949,4.2982,4.2903,4.2045,4.224,4.2982,0.0,0.0,0.0,4.7315,5.0438,5.3522,5.4381,5.7543,6.0861,5.9534,6.1486,6.4375,6.4843,6.7068,6.9489,6.9957,7.1636,7.308,7.2221,7.2651,7.2612,6.9957,6.8005,6.6019,6.3412,6.1865,6.1092,6.1562,6.418,6.7109,6.957,7.2969,7.5898,7.75,7.8862,8.0027,8.0883,8.1373,8.1786,8.2254,8.2293,8.2293,8.2293,8.2293,8.1747,8.0459,8.0381,8.0771,8.1669,8.2098,8.2293,8.2293,8.2293,8.2293,8.2293,8.2293,8.2293,8.2293,8.2293,8.2293,8.2293,8.2293,8.2299,8.2315,8.2289,8.2295,8.2301,8.2304,8.2304,8.2304,8.2304,8.2304,8.2304,0.0,0.0,0.0,0.0,0.0,0.0,0.0,2.8315,3.0482,3.582,3.6903,3.5897,3.2609,3.2454,3.2145,0.0,0.0,0.0,0.0,0.0,0.0,0.0,0.0,0.0,3.5394,0.0,0.0,3.7752,3.7996,0.0,0.0,0.0,0.0,0.0,3.9218,3.9529,3.9598,4.045,4.0834,0.0,0.0,4.1498,4.2123,0.0,0.0,0.0,0.0,5.0516,5.36,5.4654,5.7738,6.0939,5.9768,6.1642,6.4453,6.5351,6.7381,6.9567,7.023,7.1831,7.3158,7.2456,7.2807,7.2456,6.9137,6.6756,6.4301,6.1076,5.9559,5.8981,5.9375,6.293,6.6133,6.7265,7.1992,7.5625,7.5859,7.7797,7.9561,8.0615,8.0888,8.1356,8.2215,8.2293,8.2293,8.2293,8.2293,8.1981,8.1317,8.1278,8.1591,8.2293,8.2293,8.2293,8.2293,8.2293,8.2293,8.2293,8.2293,8.2293,8.2293,8.2293,8.2293,8.2293,8.2293,8.2293,8.2293,8.2293,8.2305,8.2289,8.23,8.2304,8.2304,8.2304,8.2304,8.2304,0.0,0.0,0.0,0.0,0.0,0.0,0.0,2.9321,3.2493,3.8384,3.8528,3.7947,3.756,3.6207,3.435,0.0,0.0,0.0,0.0,0.0,0.0,0.0,0.0,0.0,0.0,0.0,0.0,3.595,3.6814,0.0,0.0,0.0,0.0,0.0,0.0,3.8628,3.8669,3.9561,0.0,0.0,0.0,0.0,0.0,0.0,0.0,0.0,0.0,4.872,5.1882,5.3561,5.645,5.9456,6.008,6.211,6.4453,6.5351,6.7381,6.9411,6.9489,7.1363,7.3275,7.3197,7.3236,7.2573,6.9879,6.6756,6.3633,6.0944,5.9131,5.8476,6.0,6.1328,6.3711,6.8398,6.9687,7.1484,7.5351,7.6782,7.8038,7.9633,8.0537,8.1356,8.2215,8.2293,8.2293,8.2293,8.2293,8.2254,8.2176,8.2176,8.2215,8.2293,8.2293,8.2293,8.2293,8.2293,8.2293,8.2293,8.2293,8.2293,8.2293,8.2293,8.2293,8.2293,8.2293,8.2293,8.2293,8.2293,8.2293,8.2299,8.2299,8.2289,8.2304,8.2304,8.2304,8.2304,0.0,0.0,0.0,0.0,0.0,0.0,2.9785,3.0868,3.3499,3.9495,3.9959,3.9572,3.903,3.8373,3.6323,3.2145,0.0,0.0,0.0,0.0,0.0,0.0,0.0,0.0,0.0,0.0,3.5369,3.5708,3.6121,0.0,0.0,0.0,0.0,0.0,0.0,3.8786,3.9297,3.9637,0.0,0.0,0.0,0.0,0.0,0.0,0.0,0.0,0.0,0.0,5.1687,5.3405,5.5903,5.848,5.9339,6.1408,6.3906,6.578,6.742,6.9098,7.1167,7.2846,7.39,7.3432,7.2924,7.1714,6.8552,6.5194,6.2149,6.0041,5.8297,5.7491,5.8672,6.0,6.1914,6.5039,6.7695,7.0039,7.1797,7.4132,7.6258,7.796,7.8897,8.0185,8.2098,8.2293,8.2293,8.2293,8.2293,8.2293,8.2293,8.2293,8.2293,8.2293,8.2293,8.2293,8.2293,8.2293,8.2293,8.2293,8.2293,8.2293,8.2293,8.2293,8.2293,8.2293,8.2293,8.2293,8.2293,8.2293,8.2293,8.2293,8.2293,8.232,8.2301,8.2304,8.2304,8.2304,0.0,0.0,0.0,0.0,0.0,2.6923,3.083,3.1874,3.4156,3.9688,4.0191,3.9881,3.9545,3.8141,3.5858,3.2493,3.1449,0.0,0.0,0.0,0.0,0.0,0.0,0.0,0.0,0.0,3.557,3.6028,3.6124,3.6595,0.0,0.0,3.7903,3.8482,0.0,0.0,0.0,0.0,0.0,0.0,0.0,0.0,0.0,0.0,0.0,0.0,0.0,0.0,0.0,0.0,0.0,5.7231,5.8363,6.0159,6.2384,6.5234,6.7029,6.8708,7.1402,7.2768,7.3354,7.3315,7.226,7.0504,6.781,6.4336,6.1213,5.9456,5.7781,5.6855,5.7729,5.9062,6.0703,6.2695,6.5976,6.8633,6.9726,7.2142,7.4545,7.6516,7.7492,7.8936,8.1317,8.202,8.2293,8.2293,8.2293,8.2293,8.2293,8.2293,8.2293,8.2293,8.2293,8.2293,8.2293,8.2293,8.2293,8.2293,8.2293,8.2293,8.2293,8.2293,8.2293,8.2293,8.2293,8.2293,8.2293,8.2293,8.2293,8.2293,8.2293,8.2305,8.2289,8.2303,8.2304,8.2304,0.0,0.0,0.0,0.0,0.0,0.0,2.9824,3.2029,3.4621,3.8953,3.876,3.8566,3.9429,3.493,3.2222,3.3024,3.229,0.0,0.0,0.0,0.0,0.0,0.0,0.0,0.0,0.0,3.524,3.6903,3.6957,3.7444,3.8274,3.8371,3.8424,3.8486,0.0,0.0,0.0,0.0,0.0,0.0,0.0,0.0,0.0,0.0,0.0,0.0,0.0,0.0,0.0,0.0,0.0,0.0,0.0,5.8402,5.9807,6.3321,6.6131,6.8318,6.9215,7.0074,7.1167,7.2885,7.1363,6.9176,6.8279,6.4765,6.1213,5.9456,5.7754,5.6861,5.7742,5.8626,6.0039,6.2578,6.4492,6.6836,7.0195,7.147,7.3002,7.5584,7.6633,7.7804,7.9561,8.1278,8.2293,8.2293,8.2293,8.2293,8.2293,8.2293,8.2293,8.2293,8.2293,8.2293,8.2293,8.2293,8.2293,8.2293,8.2293,8.2293,8.2293,8.2293,8.2293,8.2293,8.2293,8.2293,8.2293,8.2293,8.2293,8.2293,8.2293,8.2293,8.2299,8.2301,8.2304,8.2304,0.0,0.0,0.0,0.0,0.0,0.0,0.0,2.9785,3.1603,3.4737,3.4891,3.5046,3.5897,3.404,3.2338,3.1487,3.0056,0.0,0.0,0.0,0.0,0.0,0.0,0.0,0.0,0.0,3.6671,3.7793,3.9063,4.0121,4.0956,4.1084,4.1163,4.1097,3.992,3.9725,0.0,0.0,0.0,0.0,0.0,0.0,0.0,0.0,0.0,0.0,0.0,0.0,0.0,0.0,0.0,0.0,0.0,0.0,0.0,6.1134,6.3477,6.6209,6.9411,7.0074,6.9957,7.0504,6.9137,6.7264,6.5819,6.2618,5.9768,5.9222,5.7754,5.6868,5.7731,5.8593,6.043,6.418,6.5742,6.7459,7.0296,7.1971,7.3607,7.5618,7.8702,8.0888,8.1435,8.1981,8.2293,8.2293,8.2293,8.2293,8.2293,8.2293,8.2293,8.2293,8.2293,8.2293,8.2293,8.2293,8.2293,8.2293,8.2293,8.2293,8.2293,8.2293,8.2293,8.2293,8.2293,8.2293,8.2293,8.2293,8.2293,8.2293,8.2293,8.2293,8.2293,8.2315,8.2289,8.2297,0.0,0.0,0.0,0.0,0.0,0.0,0.0,2.8238,2.9515,3.141,3.1681,3.2106,3.3305,3.1797,3.0666,3.0598,2.8702,0.0,0.0,0.0,0.0,0.0,0.0,0.0,3.4079,3.5936,3.7947,4.0113,4.1241,4.2615,4.4132,4.4202,4.3747,4.2825,4.1758,4.1205,0.0,0.0,0.0,0.0,0.0,0.0,4.1147,0.0,0.0,0.0,0.0,0.0,0.0,0.0,0.0,0.0,0.0,0.0,0.0,0.0,6.1056,6.3282,6.7615,6.8122,6.7537,6.7888,6.6678,6.4999,6.3633,6.0861,5.8636,5.8636,5.7558,5.6753,5.7304,5.8398,6.0156,6.3159,6.4916,6.7057,7.027,7.1646,7.3291,7.5969,7.8975,8.1083,8.1747,8.1825,8.1942,8.2293,8.2293,8.2293,8.2293,8.2293,8.2293,8.2293,8.2293,8.2293,8.2293,8.2293,8.2293,8.2293,8.2293,8.2293,8.2293,8.2293,8.2293,8.2293,8.2293,8.2293,0.0,8.2293,8.2293,8.2293,8.2293,8.2293,8.2293,8.2293,8.2305,8.2281,0.0,0.0,0.0,0.0,0.0,0.0,0.0,2.7348,2.8199,2.9012,2.9166,2.9785,3.1255,2.8616,2.7688,3.0095,0.0,0.0,0.0,0.0,0.0,0.0,0.0,0.0,3.5665,3.6593,3.9146,4.3285,4.3556,4.4989,4.7473,4.754,4.6245,4.3898,4.3821,4.2786,0.0,0.0,0.0,0.0,0.0,0.0,0.0,0.0,0.0,0.0,0.0,0.0,0.0,0.0,0.0,0.0,0.0,0.0,0.0,0.0,0.0,0.0,0.0,6.457,6.4219,6.5038,6.4023,6.2579,6.172,5.9573,0.0,5.789,5.7207,5.6675,5.6836,5.8164,5.9606,6.0827,6.3047,6.6053,7.0375,7.1117,7.2723,7.6705,7.8077,7.9287,8.0849,8.1044,8.1435,8.2254,8.2293,8.2293,8.2293,8.2293,8.2293,8.2293,8.2293,8.2293,8.2293,8.2293,8.2293,8.2293,8.2293,8.2293,8.2293,8.2293,8.2293,8.2293,8.2293,8.2293,8.2293,8.2293,8.2293,8.2293,8.2293,8.2293,8.2293,8.2293,8.2293,8.2293,0.0,0.0,0.0,0.0,0.0,0.0,0.0,0.0,0.0,0.0,2.789,2.8199,2.792,2.7185,2.6953,0.0,0.0,0.0,0.0,0.0,0.0,0.0,0.0,0.0,3.5665,3.7793,4.0346,4.3285,4.5984,4.7985,4.931,5.0024,4.8681,4.5575,4.4954,4.3372,0.0,0.0,0.0,0.0,0.0,0.0,0.0,0.0,0.0,0.0,4.3138,4.4504,0.0,0.0,0.0,0.0,0.0,0.0,0.0,0.0,5.6723,5.684,5.9807,0.0,6.1369,6.1564,6.1291,6.0783,0.0,5.8714,5.7816,5.789,5.7207,5.7182,5.914,5.9329,6.0956,6.6387,6.7249,6.8726,7.308,7.5345,7.6945,7.796,8.0029,8.1278,8.1005,8.1591,8.2098,8.2293,8.2293,8.2293,8.2293,8.2293,8.2293,8.2293,8.2293,8.2293,8.2293,8.2293,8.2293,8.2293,8.2293,8.2293,8.2293,8.2293,8.2293,8.2293,8.2293,8.2293,8.2293,8.2293,8.2293,8.2293,8.2293,8.2293,8.2293,8.2293,8.2293,8.2293,0.0,0.0,0.0,0.0,0.0,0.0,0.0,0.0,0.0,0.0,0.0,2.6652,2.618,2.6141,0.0,0.0,0.0,0.0,0.0,0.0,0.0,0.0,0.0,3.5162,3.6826,3.8992,4.1699,4.5026,4.7312,4.9563,5.1641,5.1803,5.0039,4.6708,4.4292,4.2435,0.0,0.0,0.0,0.0,4.0678,0.0,0.0,0.0,0.0,0.0,4.306,4.427,0.0,4.8408,5.0555,5.2156,0.0,0.0,0.0,0.0,5.5083,5.5083,5.6879,5.8558,5.9807,5.9807,5.9807,5.9573,5.8714,5.7855,5.727,5.7309,5.693,5.7137,5.8936,6.0178,6.2006,6.5329,6.7789,7.0518,7.4062,7.675,7.8546,7.8936,8.0263,8.1239,8.1552,8.1669,8.1864,8.2254,8.2293,8.2293,8.2293,8.2293,8.2293,8.2293,8.2293,8.2293,8.2293,8.2293,8.2293,8.2293,8.2293,8.2293,8.2293,8.2293,8.2293,8.2293,8.2293,8.2293,8.2293,8.2293,8.2293,8.2293,8.2293,8.2293,8.2293,8.2293,8.2293,8.2293,0.0,0.0,0.0,0.0,0.0,0.0,0.0,0.0,0.0,0.0,0.0,0.0,0.0,0.0,0.0,0.0,0.0,0.0,0.0,0.0,0.0,0.0,3.3924,3.5936,3.8334,3.9959,4.2783,4.6883,4.8174,5.0441,5.353,5.3354,5.1288,4.7533,4.3353,4.1342,4.103,0.0,0.0,0.0,4.0288,0.0,0.0,0.0,0.0,0.0,0.0,0.0,0.0,4.8291,5.0555,5.2234,5.2975,0.0,0.0,0.0,0.0,0.0,5.5201,5.7348,5.9222,5.8831,5.8792,5.8714,5.7972,5.727,5.6801,5.6957,5.6969,5.7402,5.8831,6.1225,6.3064,6.3243,6.7805,7.2138,7.4564,7.6906,7.8702,7.96,7.9834,8.0498,8.1942,8.1552,8.1513,8.2254,8.2293,8.2293,8.2293,8.2293,8.2293,8.2293,8.2293,8.2293,8.2293,8.2293,8.2293,8.2293,8.2293,8.2293,8.2293,8.2293,8.2293,8.2293,8.2293,8.2293,8.2293,8.2293,8.2293,8.2293,8.2293,8.2293,8.2293,8.2293,8.2293,8.2293,0.0,0.0,0.0,0.0,0.0,0.0,0.0,0.0,0.0,0.0,0.0,0.0,0.0,0.0,0.0,0.0,0.0,0.0,0.0,0.0,0.0,3.5046,3.6013,3.7406,3.9262,4.0268,4.2512,4.5993,4.9135,5.1385,5.2766,5.5594,5.3937,4.846,4.4901,4.2474,4.1108,4.0952,4.0991,4.1108,4.0952,0.0,0.0,0.0,0.0,0.0,0.0,0.0,0.0,4.5363,4.7393,4.9423,4.9579,0.0,0.0,0.0,0.0,0.0,5.5747,5.8246,5.969,5.7504,5.7504,5.7972,5.7816,5.7699,5.7816,5.8558,5.8726,5.9862,6.3711,6.3633,6.4648,6.9606,7.2417,7.4642,7.6438,7.7687,7.8702,7.96,8.0341,8.0927,8.1161,8.1747,8.2176,8.2293,8.2293,8.2293,8.2293,8.2293,8.2293,8.2293,8.2293,8.2293,8.2293,8.2293,8.2293,8.2293,8.2293,8.2293,8.2293,8.2293,8.2293,8.2293,8.2293,8.2293,8.2293,8.2293,8.2293,8.2293,8.2293,8.2293,8.2293,8.2293,8.2293,8.2293,0.0,0.0,0.0,0.0,0.0,0.0,0.0,0.0,0.0,0.0,0.0,0.0,0.0,0.0,0.0,0.0,0.0,0.0,0.0,0.0,0.0,3.7599,3.8102,3.9108,4.081,4.2589,4.5142,4.8546,5.1164,5.3159,5.4469,5.3409,5.0935,4.7315,4.384,4.1849,4.1108,4.1108,4.1108,4.1108,0.0,0.0,0.0,0.0,0.0,0.0,0.0,0.0,0.0,0.0,4.669,4.8798,4.8798,0.0,0.0,0.0,0.0,0.0,5.4615,5.6723,5.8402,5.8597,6.0354,6.1993,6.1993,6.1642,6.1291,6.1213,6.1217,6.2236,6.5624,6.6751,6.8981,7.4564,7.4843,7.5022,7.6822,7.777,7.8612,7.9593,8.0459,8.12,8.1669,8.2059,8.2293,8.2293,8.2293,8.2293,8.2293,8.2293,8.2293,8.2293,8.2293,8.2293,8.2293,8.2293,8.2293,8.2293,8.2293,8.2293,8.2293,8.2293,8.2293,8.2293,8.2293,8.2293,8.2293,8.2293,8.2293,8.2293,8.2293,8.2293,8.2293,8.2293,8.2293,8.2293,0.0,0.0,0.0,0.0,0.0,0.0,0.0,0.0,0.0,0.0,0.0,0.0,0.0,0.0,0.0,0.0,0.0,0.0,0.0,0.0,3.5356,3.903,3.9765,4.1042,4.3131,4.5104,4.7787,5.1246,5.3275,5.5046,5.6475,5.1648,4.8398,4.6456,4.3177,4.1498,4.1108,4.1108,4.1108,4.1108,0.0,0.0,0.0,0.0,0.0,0.0,0.0,0.0,0.0,0.0,0.0,0.0,0.0,0.0,0.0,5.1882,5.1687,5.2117,5.4068,5.5864,5.7855,6.0627,6.2852,6.4609,6.5429,6.4921,6.4336,6.4453,6.4648,6.5507,6.7883,7.0113,7.2885,7.6828,7.5815,7.5201,7.7128,7.7784,7.8519,7.9799,8.0493,8.1187,8.2075,8.2153,8.2153,8.2153,8.2153,8.2171,8.2226,8.2226,8.2234,8.2293,8.2293,8.2293,8.2293,8.2293,8.2293,8.2293,8.2293,8.2293,8.2293,8.2293,8.2293,8.2293,8.2293,8.2293,8.2293,8.2293,8.2293,8.2293,8.2293,8.2293,8.2293,8.2293,8.2293,8.2293,0.0,0.0,0.0,0.0,0.0,0.0,0.0,0.0,0.0,0.0,0.0,0.0,0.0,0.0,0.0,0.0,0.0,0.0,0.0,0.0,3.6323,3.8218,4.0578,4.3363,4.6651,4.6922,4.8706,5.2186,5.4819,5.6647,5.7578,5.3232,4.9895,4.7393,4.4699,4.2591,4.1108,4.1108,4.1108,4.1108,4.1108,0.0,0.0,0.0,0.0,0.0,0.0,0.0,0.0,0.0,0.0,0.0,0.0,0.0,5.2702,5.2624,5.2624,5.3171,5.5708,5.766,5.9729,6.3164,6.2384,6.1603,6.4843,6.4921,6.5194,6.8318,6.9567,7.0699,7.2495,7.3588,7.4369,7.472,7.52,7.6147,7.8032,7.8027,7.852,8.0389,8.0513,8.0802,8.1657,8.1735,8.1735,8.1735,8.1735,8.182,8.1999,8.1999,8.2094,8.2293,8.2293,8.2293,8.2293,8.2293,8.2293,8.2293,8.2293,8.2293,8.2293,8.2293,8.2293,8.2293,8.2293,8.2293,8.2293,8.2293,8.2293,8.2293,8.2293,8.2293,8.2293,8.2293,8.2293,8.2293,0.0,0.0,0.0,0.0,0.0,0.0,0.0,0.0,0.0,0.0,0.0,0.0,0.0,0.0,0.0,0.0,0.0,0.0,0.0,3.4737,3.6942,3.9688,4.1235,4.3595,4.7038,4.9224,5.2058,5.5527,5.6628,5.6848,5.6092,5.1792,4.8699,4.669,4.4075,4.2201,4.1108,4.1108,4.1108,4.1108,4.1108,4.1108,0.0,0.0,0.0,0.0,0.0,0.0,0.0,0.0,4.5246,4.7705,4.8369,5.0477,5.2702,5.2702,5.2702,5.3132,5.524,5.7426,5.9807,6.2774,6.3555,6.4687,6.8669,6.9333,6.945,7.0738,7.1714,7.269,7.3822,7.5416,7.643,7.6001,7.6534,7.7229,7.7909,7.8831,7.9696,8.0426,8.0919,8.1349,8.1659,8.1698,8.1698,8.1698,8.1698,8.1735,8.1804,8.1804,8.1836,8.1934,8.1934,8.1934,8.1934,8.1934,8.1974,8.2094,8.2234,8.2293,8.2293,8.2293,8.2293,8.2293,8.2293,8.2293,8.2293,8.2293,8.2293,8.2293,8.2293,8.2293,8.2293,8.2293,8.2293,8.2293,0.0,0.0,0.0,0.0,0.0,0.0,0.0,0.0,0.0,0.0,0.0,0.0,0.0,0.0,0.0,0.0,0.0,0.0,3.346,3.5394,3.7522,3.9881,4.1545,4.3776,4.6694,5.07,5.3907,5.6302,5.6992,5.6321,5.4329,5.0542,4.8192,4.6963,4.4075,4.2786,4.2708,4.1849,4.1498,4.1459,4.0912,4.0834,0.0,0.0,0.0,0.0,0.0,0.0,0.0,0.0,4.5558,4.8017,4.8291,5.0555,5.3053,5.278,5.3678,5.4966,5.6177,5.8168,6.0666,6.3828,6.5116,6.6873,7.1675,7.2182,7.1909,7.2963,7.3647,7.4453,7.5819,7.6599,7.6916,7.6752,7.7481,7.803,7.7834,7.9213,8.0235,8.0299,8.1032,8.153,8.153,8.153,8.153,8.153,8.153,8.1514,8.16,8.16,8.162,8.1698,8.1698,8.1698,8.1698,8.1698,8.177,8.192,8.205,8.2162,8.2293,8.2293,8.2293,8.2293,8.2293,8.2293,8.2293,8.2293,8.2293,8.2293,8.2293,8.2293,8.2293,8.2293,8.2293,8.2293,0.0,0.0,0.0,0.0,0.0,0.0,0.0,0.0,0.0,0.0,0.0,0.0,0.0,0.0,0.0,0.0,0.0,0.0,3.435,3.6787,3.8218,3.8218,4.1467,4.4149,4.592,5.1014,5.3653,5.3751,5.5567,5.5195,5.2624,5.0048,4.8798,4.8642,4.5246,4.466,4.6105,4.3489,4.2396,4.224,4.0522,4.0327,4.103,0.0,0.0,0.0,0.0,0.0,0.0,0.0,4.7393,4.8954,4.9813,5.1882,5.3834,5.2975,5.5747,5.9065,5.9065,6.0354,6.2735,6.699,6.6834,6.7185,7.3158,7.2534,7.1675,7.511,7.5716,7.6387,7.8909,7.7151,7.5582,7.6397,7.781,7.8557,7.7913,7.8953,7.9904,8.01,8.0694,8.1093,8.1093,8.1093,8.1093,8.1093,8.1093,8.1205,8.1362,8.1387,8.1507,8.1679,8.1698,8.1698,8.1698,8.1698,8.1698,8.1698,8.1698,8.192,8.2293,8.2293,8.2293,8.2293,8.2293,8.2293,8.2293,8.2293,8.2293,8.2293,8.2293,8.2293,8.2293,8.2293,8.2293,8.2293,0.0,0.0,0.0,0.0,0.0,0.0,0.0,0.0,0.0,0.0,0.0,0.0,0.0,0.0,0.0,0.0,0.0,0.0,3.4438,3.6826,3.8257,3.8334,4.1003,4.2726,4.3319,4.6677,5.0781,5.5687,5.5038,5.3734,5.1765,5.036,4.9072,4.79,4.6885,4.5714,4.4387,4.2982,4.2396,4.2357,4.1849,4.1771,4.2045,0.0,0.0,0.0,0.0,0.0,0.0,0.0,0.0,0.0,4.8915,5.1414,5.3834,5.2975,5.4888,5.7192,5.6606,5.9456,6.3086,6.496,6.7303,6.9957,7.2963,7.2612,7.2561,7.5815,7.6871,7.7376,7.8154,7.7866,7.7473,7.7218,7.8085,7.8901,7.9185,7.9686,8.02,8.0743,8.1,8.1093,8.1093,8.1093,8.1093,8.1093,8.1093,8.1124,8.1205,8.1205,8.1196,8.128,8.128,8.128,8.128,8.128,8.135,8.1507,8.1507,8.162,8.189,8.189,8.189,8.189,8.189,8.189,8.1905,8.205,8.2162,8.2293,8.2293,8.2293,8.2293,8.2293,8.2293,8.2293,0.0,0.0,0.0,0.0,0.0,0.0,0.0,0.0,2.8198,2.8866,3.1023,3.2742,0.0,0.0,0.0,3.5008,3.502,0.0,3.5018,3.6755,3.7967,3.8373,4.017,4.1965,4.3739,4.5733,4.8789,5.2961,5.2253,5.1073,4.9384,4.9852,4.9735,4.9111,4.9111,4.8213,4.6651,4.5129,4.4465,4.4426,4.3723,4.3645,4.3957,0.0,0.0,0.0,0.0,0.0,0.0,0.0,0.0,0.0,4.8174,5.0204,5.2624,5.3483,5.6059,5.8792,5.9651,6.2891,6.6366,6.7576,6.9567,7.1753,7.3822,7.4134,7.4864,7.7853,7.809,7.8124,7.9155,7.8863,7.8459,7.8436,7.9158,7.972,7.9815,8.0203,8.0646,8.1047,8.1093,8.1093,8.1093,8.1093,8.1093,8.1093,8.1093,8.1093,8.1093,8.1093,8.1093,8.1093,8.1093,8.1093,8.1093,8.1093,8.1146,8.1269,8.1269,8.135,8.1484,8.162,8.1698,8.1698,8.1698,8.1698,8.1698,8.182,8.1948,8.2062,8.2062,8.2062,8.2073,8.2153,8.2171,8.2171,0.0,0.0,0.0,0.0,0.0,0.0,0.0,2.8669,2.9375,2.8633,3.127,3.3249,0.0,0.0,0.0,3.5788,3.5801,3.582,3.582,3.6635,3.7481,3.8384,3.9418,4.175,4.5664,4.6666,4.7081,4.7002,4.8041,4.7807,4.6378,4.8915,5.0516,5.1297,5.1375,5.1375,5.1102,4.8486,4.7393,4.7354,4.5753,4.5558,4.6105,4.548,0.0,0.0,0.0,0.0,0.0,0.0,0.0,0.0,4.7588,4.8759,5.0711,5.3912,5.7972,6.211,6.5155,6.8239,7.0972,7.2534,7.269,7.308,7.5501,7.675,7.811,8.0367,7.939,7.8862,8.1213,8.0036,7.9015,7.9785,8.0592,8.0823,8.0054,8.0592,8.1093,8.1093,8.1093,8.1093,8.1093,8.1093,8.1093,8.1093,8.1093,8.1093,8.1093,8.1093,8.1093,8.1093,8.1093,8.1093,8.1093,8.1093,8.1093,8.1093,8.1093,8.1093,8.1124,8.1484,8.164,8.164,8.164,8.166,8.166,8.166,8.1679,8.1698,8.1698,8.1698,8.1717,8.192,8.1974,8.1987,0.0,0.0,0.0,0.0,0.0,0.0,2.9947,3.0388,3.0547,3.0351,3.1561,3.2693,3.332,3.4335,0.0,3.5816,3.5864,3.5869,3.5869,3.6635,3.7535,3.8515,4.066,4.1943,4.2175,4.3063,4.3177,4.2513,4.5408,4.6658,4.6378,4.8915,5.0204,5.0399,5.1102,5.1023,5.0165,4.6924,4.5948,4.6534,4.6183,4.5714,4.5402,4.6573,4.6495,0.0,0.0,0.0,0.0,0.0,0.0,0.0,4.7393,4.8759,5.0243,5.0984,5.524,5.969,5.9729,6.4609,6.9762,7.0152,7.3158,7.632,7.757,7.9053,8.0033,7.9608,8.0237,8.094,8.1192,8.0838,8.0592,8.0785,8.0977,8.1016,8.0862,8.0977,8.1093,8.1093,8.1093,8.1093,8.1093,8.1093,8.1093,8.1093,8.1093,8.1093,8.1093,8.1093,8.1093,8.1093,8.1093,8.1093,8.1093,8.1093,8.1093,8.1093,8.1093,8.1093,8.1093,8.1205,8.1224,8.1224,8.1224,8.1323,8.1484,8.1484,8.1536,8.1698,8.1698,8.1698,8.1698,8.1753,8.1753,8.177,0.0,0.0,0.0,0.0,0.0,0.0,0.0,0.0,3.1953,3.1562,3.2266,3.293,3.3359,3.3828,0.0,0.0,3.5314,3.5505,3.5919,3.6348,3.6992,3.7946,4.0054,4.0991,4.0483,4.1342,4.1576,4.1108,4.2903,4.4465,4.5714,4.8291,4.993,5.0789,5.2078,5.1687,5.0008,4.8642,4.8096,4.8174,4.8564,4.8213,4.7549,4.8447,4.7744,4.63,4.63,0.0,0.0,0.0,0.0,0.0,0.0,0.0,4.8759,5.1258,5.4498,5.7972,6.1213,6.5975,7.0504,7.2573,7.5423,7.796,7.8819,8.0314,8.1254,8.0509,8.1077,8.16,8.1296,8.1253,8.1196,8.1124,8.1176,8.1196,8.1124,8.1093,8.1093,8.1093,8.1093,8.1093,8.1093,8.1093,8.1093,8.1093,8.1093,8.1093,8.1093,8.1093,8.1093,8.1093,8.1093,8.1093,8.1093,8.1093,8.1093,8.1093,8.1093,8.1093,8.1093,8.1093,8.1093,8.1093,8.1093,8.1146,8.1253,8.1253,8.1323,8.1412,8.1412,8.1412,8.1412,8.1514,8.1536,8.1558,0.0,0.0,0.0,0.0,0.0,0.0,0.0,0.0,0.0,3.25,3.3008,3.3398,3.3398,3.3398,3.3672,0.0,0.0,0.0,3.572,3.6069,3.654,3.7282,3.8843,3.9663,3.9585,4.0444,4.0873,4.0873,4.103,4.2513,4.5285,4.7549,4.9618,5.1453,5.2741,5.2195,5.0321,5.0477,5.0204,4.9735,5.0438,5.0204,4.9462,4.9618,4.8252,4.63,4.63,4.63,4.6339,4.6456,0.0,0.0,0.0,0.0,4.7198,5.1765,5.4147,5.6723,6.3282,6.781,7.1675,7.5852,7.7765,7.8819,7.9522,8.0904,8.1948,8.1735,8.166,8.16,8.1437,8.1362,8.1296,8.1176,8.128,8.1269,8.1124,8.1093,8.1093,8.1093,8.1093,8.1093,8.1093,8.1093,8.1093,8.1093,8.1093,8.1093,8.1093,8.1093,8.1093,8.1093,8.1093,8.1093,8.1093,8.1093,8.1093,8.1093,8.1093,8.1093,8.1093,8.1093,8.1093,8.1093,8.1093,8.1093,8.1093,8.1093,8.1093,8.1093,8.1093,8.1093,8.1124,8.1269,8.135,8.1362,0.0,0.0,0.0,0.0,0.0,0.0,0.0,0.0,0.0,0.0,3.332,3.3398,3.3398,3.3398,3.3437,3.3555,3.4251,3.4744,3.4859,0.0,0.0,3.7282,3.8258,3.8765,3.8765,3.9546,3.9976,3.9976,4.0717,4.2825,4.6144,4.7237,4.9072,5.1375,5.0867,5.0867,5.1023,4.8174,4.7354,4.7939,4.8057,4.7588,4.6885,4.7666,4.7237,4.63,4.63,4.63,4.6417,4.7159,4.6924,0.0,0.0,0.0,4.6729,4.8876,5.2234,5.5708,5.7465,6.4219,7.1558,7.5071,7.7765,7.9561,7.9678,8.0904,8.1948,8.1735,8.1558,8.1437,8.1387,8.1253,8.1205,8.135,8.1224,8.1154,8.1093,8.1093,8.1093,8.1093,8.1093,8.1093,8.1093,8.1093,8.1093,8.1093,8.1093,8.1093,8.1093,8.1093,8.1093,8.1093,8.1093,8.1093,8.1093,8.1093,8.1093,8.1093,8.1093,8.1093,8.1093,8.1093,8.1093,8.1093,8.1093,8.1093,8.1093,8.1093,8.1093,8.1093,8.1093,8.1093,8.1093,8.1154,8.1116,8.1116,0.0,0.0,0.0,0.0,0.0,0.0,0.0,0.0,0.0,0.0,0.0,3.4139,3.4139,3.3241,3.3046,3.4022,3.4017,3.4398,3.5366,3.615,3.6579,3.6579,3.6931,3.736,3.7867,3.8687,3.9351,3.9819,4.0678,4.3138,4.7042,4.7861,4.9657,5.2117,5.1726,5.1219,5.0555,4.9072,4.8096,4.7627,4.8096,4.8894,4.9601,4.8162,4.8504,4.9523,4.7693,4.7042,4.7159,4.7978,4.7705,4.7237,4.8447,0.0,0.0,0.0,5.0516,5.3639,5.9378,6.5702,7.1636,7.554,7.7765,7.9248,8.0224,8.0775,8.122,8.1639,8.1461,8.1224,8.1224,8.1253,8.128,8.1224,8.1253,8.1224,8.1124,8.1093,8.1093,8.1093,8.1093,8.1093,8.1093,8.1093,8.1093,8.1093,8.1093,8.1093,8.1093,8.1093,8.1093,8.1093,8.1093,8.1093,8.1093,8.1093,8.1093,8.1093,8.1093,8.1093,8.1093,8.1093,8.1093,8.1093,8.1093,8.1093,8.1093,8.1093,8.1093,8.1093,8.1093,8.1093,8.1093,8.1093,8.1093,8.1093,0.0,0.0,0.0,0.0,0.0,0.0,0.0,0.0,0.0,0.0,0.0,3.4953,3.4718,0.0,0.0,0.0,3.3976,3.4285,3.5564,3.5876,3.5916,3.5681,3.5876,3.6306,3.697,3.8024,3.8882,3.9507,4.0795,4.3645,4.7939,4.8954,5.1063,5.3951,5.3327,5.2078,5.0399,4.9969,4.9032,4.7975,4.9016,5.0647,5.2299,5.0672,5.1732,5.3623,5.0342,4.9162,4.9162,4.9146,4.8564,4.8057,4.8876,4.8447,0.0,0.0,0.0,5.196,6.0354,6.578,7.0113,7.4408,7.6945,7.8741,7.997,8.0507,8.0825,8.1213,8.1195,8.1093,8.1093,8.1224,8.1269,8.1205,8.128,8.128,8.1124,8.1093,8.1093,8.1093,8.1093,8.1093,8.1093,8.1093,8.1093,8.1093,8.1093,8.1093,8.1093,8.1093,8.1093,8.1093,8.1093,8.1093,8.1093,8.1093,8.1093,8.1093,8.1093,8.1093,8.1093,8.1093,8.1093,8.1093,8.1093,8.1093,8.1093,8.1093,8.1093,8.1093,8.1093,8.1093,8.1093,8.1093,8.1093,8.1093,0.0,0.0,0.0,0.0,0.0,0.0,0.0,0.0,0.0,0.0,0.0,3.5603,3.4781,3.4625,3.4276,3.3534,3.4198,3.4666,3.4744,3.5525,3.5642,3.4783,3.5564,0.0,3.6069,3.7711,3.8612,3.8651,4.1147,4.4543,4.8759,5.0477,5.3522,5.7426,5.5005,5.2975,5.1219,4.9579,4.8837,4.8873,5.0439,5.1598,5.2738,5.5657,5.7426,5.7853,5.4547,5.338,5.3048,5.0806,4.9462,4.8876,4.9774,4.8915,4.7627,0.0,0.0,0.0,5.6684,6.133,6.5663,6.9957,7.4759,7.8377,7.828,8.0007,8.1369,8.0377,8.0674,8.1093,8.1093,8.1093,8.1176,8.1375,8.1224,8.1124,8.1093,8.1093,8.1093,8.1093,8.1093,8.1093,8.1093,8.1093,8.1093,8.1093,8.1093,8.1093,8.1093,8.1093,8.1093,8.1093,8.1093,8.1093,8.1093,8.1093,8.1093,8.1093,8.1093,8.1093,8.1093,8.1093,8.1093,8.1093,8.1093,8.1093,8.1093,8.1093,8.1093,8.1093,8.1093,8.1093,8.1093,8.1093,8.1093,8.1093,0.0,0.0,0.0,0.0,0.0,0.0,0.0,0.0,0.0,0.0,0.0,0.0,0.0,3.5054,3.4783,3.5054,3.4822,3.4705,3.4705,3.4979,3.5018,3.4705,3.5525,3.5991,3.5991,3.7711,3.8843,3.9351,4.1381,4.4348,4.8096,5.0321,5.2507,5.4537,5.4732,5.4498,5.3717,5.0867,4.9618,4.9805,5.1888,5.4202,5.6511,5.7614,5.9951,6.2161,5.8877,5.6302,5.448,5.4173,5.2116,4.9696,5.0008,4.9306,4.8252,4.7744,4.8798,5.0984,5.5083,5.8948,6.2813,6.7146,7.1597,7.5328,7.6921,7.8587,8.0051,8.0793,8.0597,8.0439,8.1016,8.1093,8.1124,8.1205,8.1146,8.1093,8.1093,8.1093,8.1093,8.1093,8.1093,8.1093,8.1093,8.1093,8.1093,8.1093,8.1093,8.1093,8.1093,8.1093,8.1093,8.1093,8.1093,8.1093,8.1093,8.1093,8.1093,8.1093,8.1093,8.1093,8.1093,8.1093,8.1093,8.1093,8.1093,8.1093,8.1093,8.1093,8.0785,8.0285,8.0285,7.9939,7.9438,7.9438,7.9438,7.9515,0.0,0.0,0.0,0.0,0.0,0.0,0.0,0.0,3.654,3.6813,0.0,0.0,0.0,0.0,3.6111,3.6423,3.5642,3.5018,3.4705,3.4979,3.5018,3.4705,3.5837,3.6423,3.6423,3.8102,3.939,4.0249,4.1967,4.4621,4.8057,5.0321,5.2195,5.36,5.4186,5.4732,5.5123,5.2507,5.1414,5.1679,5.4518,5.6847,5.8847,6.1018,6.3265,6.4907,6.2482,6.0201,5.8297,5.8025,5.629,5.3947,5.2266,5.0382,4.8642,4.7822,4.8798,5.0594,5.2936,5.6059,5.9729,6.4023,6.7812,7.1448,7.5028,7.6962,7.8456,8.0087,8.0319,8.0323,8.0592,8.09,8.1093,8.1093,8.1093,8.1093,8.1093,8.1093,8.1093,8.1093,8.1093,8.1093,8.1093,8.1093,8.1093,8.1093,8.1093,8.1093,8.1093,8.1093,8.1093,8.1093,8.1093,8.1093,8.1093,8.1093,8.1093,8.1093,8.1093,8.1093,8.1093,8.1093,8.1093,8.1093,8.1093,8.1093,8.1093,8.0785,8.0323,7.9785,7.9477,7.9015,7.8477,7.8477,7.8477,7.8592,0.0,0.0,0.0,0.0,0.0,0.0,3.7204,0.0,3.7633,3.8495,0.0,0.0,0.0,0.0,0.0,3.7438,3.6579,3.5681,3.4783,3.5525,3.5564,3.4744,3.6384,3.7282,3.7282,3.8921,4.0249,4.1147,4.2864,4.5402,4.8759,5.0516,5.2663,5.5044,5.3405,5.36,5.5123,5.4264,5.3951,5.4367,5.8208,5.9336,5.9468,6.5989,6.757,6.6165,6.5485,6.5148,6.4682,6.2222,6.1795,6.1399,5.6464,5.2097,4.8642,4.7822,4.8798,5.0087,0.0,0.0,0.0,6.0432,6.3477,6.6908,7.2462,7.502,7.669,7.8132,7.9746,8.0669,7.9939,8.0516,8.1093,8.1054,8.1093,8.1093,8.1093,8.1093,8.1093,8.1093,8.1093,8.1093,8.1093,8.1093,8.1093,8.1093,8.1093,8.1093,8.1093,8.1093,8.1093,8.1093,8.1093,8.1093,8.1093,8.1093,8.1093,8.1093,8.1093,8.1093,8.1093,8.1093,8.1093,8.1093,8.1054,8.1054,8.1016,8.0169,7.9785,7.9631,7.8784,7.8438,7.8438,7.8438,7.8438,7.8438,0.0,0.0,0.0,0.0,0.0,3.7946,3.818,3.8258,3.8336,0.0,0.0,0.0,3.8612,3.9117,3.9351,3.9117,3.7789,3.6579,3.572,3.5291,3.494,3.4705,3.6384,3.7282,3.7282,3.8921,4.0522,4.2045,4.3138,4.4816,4.7042,4.872,4.9891,5.0633,5.1414,5.2038,5.2429,5.157,5.2624,5.5114,5.7172,5.9708,6.2659,6.6665,6.8702,6.9536,7.0552,6.9026,6.6405,6.571,6.2895,5.888,5.3923,5.0738,4.8642,4.7822,4.8798,4.9969,4.9345,0.0,0.0,0.0,0.0,0.0,6.6127,6.8851,7.1949,7.598,7.663,7.7169,7.94,8.0516,8.09,8.0246,8.0708,8.1093,8.1093,8.1093,8.1093,8.1093,8.1093,8.1093,8.1093,8.1093,8.1093,8.1093,8.1093,8.1093,8.1093,8.1093,8.1093,8.1093,8.1093,8.1093,8.1093,8.1093,8.1093,8.1093,8.1093,8.1093,8.1093,8.1093,8.1093,8.1054,8.0439,8.0169,8.0131,7.99,7.9092,7.7977,7.7707,7.7246,7.6669,7.6669,7.6669,7.6784,0.0,0.0,3.7985,3.8495,3.9198,3.9624,3.9624,4.0249,4.0717,0.0,0.0,0.0,4.0717,4.1147,4.1264,4.0912,3.9312,3.8141,3.7633,3.7126,3.6696,3.6345,3.7985,3.8726,3.8336,3.9663,4.103,4.2396,4.3255,4.4426,4.5792,4.751,4.8291,4.833,4.9345,5.0008,5.0282,4.9774,5.157,5.507,5.8506,6.1148,6.3532,6.8052,6.9778,7.0074,7.2429,7.1052,6.8346,6.9744,6.6218,6.072,5.7486,5.3969,5.0711,4.954,5.0399,5.1453,5.0204,5.1531,5.3444,5.4303,0.0,0.0,6.4455,6.7127,7.0286,7.5993,7.7256,7.7861,7.9515,8.0516,8.0939,8.0439,8.0785,8.1093,8.1093,8.1093,8.1093,8.1093,8.1093,8.1093,8.1093,8.1093,8.1093,8.1093,8.1093,8.1093,8.1093,8.1093,8.1093,8.1093,8.1093,8.1093,8.1093,8.1093,8.1093,8.1093,8.1093,8.09,8.0554,8.0939,8.0708,8.0015,7.9862,7.94,7.8746,7.8746,7.8169,7.7246,7.6899,7.6438,7.6015,7.6015,7.6015,7.6053,0.0,3.8174,3.8801,3.9117,4.0405,4.1459,4.1654,4.2982,4.4036,0.0,4.4192,4.4309,4.4387,4.4309,4.3997,4.3294,4.1498,4.0366,4.0366,4.0015,3.9507,3.8885,4.0327,4.0756,3.9976,4.0795,4.1615,4.2396,4.3255,4.4153,4.5051,4.669,4.7471,4.7471,4.7467,4.7897,4.8677,4.8942,5.1162,5.5009,6.0677,6.2933,6.3612,6.9643,7.0721,6.9477,7.2635,7.2172,7.0529,7.3292,7.0311,6.518,6.3765,5.9515,5.4591,5.2221,5.2967,5.4138,5.2191,5.2897,5.4342,5.5123,5.5435,0.0,6.4531,6.6966,6.9421,7.549,7.8074,7.9161,7.8746,7.94,8.0015,8.0092,8.0362,8.0631,8.0939,8.1054,8.1054,8.0977,8.1054,8.1093,8.1093,8.1093,8.1093,8.1093,8.1093,8.1093,8.1093,8.1093,8.1093,8.1093,8.1093,8.1093,8.1093,8.1093,8.1093,8.1093,8.1016,8.0554,7.9823,8.0516,7.9977,7.8515,7.9208,7.8669,7.7284,7.7207,7.7169,7.7092,7.6284,7.6015,7.6015,7.6015,7.6015,7.6015,3.8928,3.9374,4.017,4.2315,4.2982,4.3684,4.5051,4.5558,4.6027,4.6768,4.7393,4.8057,4.8759,4.8213,4.8017,4.8564,4.5753,4.3997,4.3997,4.1342,4.0054,4.06,4.0912,4.103,4.0834,4.1693,4.224,4.2396,4.3255,4.4153,4.5012,4.6066,4.6534,4.6534,4.6518,4.6933,4.7864,4.9815,5.3379,5.7806,5.8987,6.2569,6.7383,6.9884,7.1765,7.3341,7.5332,7.4872,7.322,7.2669,7.0798,6.7865,6.3109,6.1694,6.0553,5.4147,5.4952,5.7213,5.4289,5.4264,5.5083,5.524,5.6294,0.0,5.7623,5.9317,6.1744,6.4959,6.6882,6.8714,7.1195,7.2322,7.3129,7.3822,7.5668,7.7707,7.9785,8.0669,8.0823,8.0131,8.0669,8.1093,8.1093,8.1093,8.1093,8.1093,8.1093,8.1093,8.1093,8.1093,8.1093,8.1093,8.1093,8.1093,8.1093,8.1093,8.1093,8.1093,8.04,7.9977,7.9785,7.9246,7.8823,7.8477,7.7977,7.7592,7.7246,7.6553,7.6245,7.6245,7.6053,7.6015,7.6015,7.6015,7.6015,7.6015,3.9404,4.0307,4.1451,4.3247,4.4611,4.591,4.7273,4.8215,4.8911,4.934,5.0431,5.0875,4.9987,5.068,5.0836,4.9987,4.7954,4.6566,4.6215,4.4148,4.2798,4.2396,4.2825,4.2825,4.2396,4.2825,4.306,4.306,4.3918,4.4536,4.4957,4.5757,4.7288,4.92,4.7406,4.8001,5.042,5.0802,5.3063,5.6729,6.0113,6.5234,7.0948,7.2416,7.4274,7.6227,7.7067,7.68,7.5879,7.4287,7.1891,6.9232,6.7193,6.5509,6.3262,5.7854,5.8364,5.9835,5.5767,5.5279,5.5942,5.5942,5.6255,0.0,0.0,5.8927,6.0678,6.4808,6.5893,6.6902,6.9355,7.0155,7.0645,7.1426,7.4053,7.5861,7.5438,7.8669,8.0785,7.99,8.0554,8.0746,7.99,8.0592,8.1093,8.1093,8.1093,8.1093,8.1093,8.1093,8.09,8.0477,8.0439,8.0246,7.9823,7.9785,7.9785,7.9785,7.9361,7.8938,7.8554,7.8515,7.8054,7.7246,7.7284,7.7053,7.663,7.6169,7.6015,7.6015,7.6015,7.6015,7.6015,7.6015,7.6015,7.6015,3.9723,4.0985,4.2392,4.3461,4.5636,4.7611,4.8747,5.0205,5.1326,5.1862,5.3336,5.3573,5.1632,5.3288,5.3754,5.1813,5.0675,4.9714,4.8903,4.7548,4.6385,4.548,4.5168,4.4972,4.4933,4.4266,4.3837,4.3681,4.4536,4.4953,4.4928,4.5663,4.7894,5.1217,4.9149,5.0022,5.3011,5.2453,5.4033,5.7412,6.2771,6.7779,7.2255,7.4418,7.6188,7.7564,7.787,7.8213,7.8213,7.6341,7.3576,7.0863,7.114,6.9239,6.6006,6.1538,6.2082,6.3025,5.8103,5.7153,5.7543,5.7387,5.6801,5.6982,0.0,0.0,0.0,6.5235,6.5807,6.5971,6.742,6.7663,6.7865,6.8578,7.1552,7.2783,6.986,7.5053,7.8861,7.8169,7.9862,8.0362,7.8438,7.9554,8.0516,8.0823,8.0554,8.0561,8.1054,8.1061,8.0754,8.0092,7.99,7.9477,7.8746,7.8592,7.8477,7.8477,7.8323,7.7938,7.7323,7.7784,7.7284,7.6053,7.6746,7.663,7.6015,7.6015,7.6015,7.6015,7.6015,7.6015,7.6015,7.6015,7.6015,7.6015,4.0539,4.1299,4.2497,4.4238,4.6035,4.7745,4.9399,5.0448,5.1836,5.4167,5.5942,5.7119,5.7543,5.78,5.8118,5.8513,5.7047,5.5535,5.4129,5.1123,5.0065,5.1609,4.7393,4.6378,4.9306,4.6357,4.4397,4.3617,4.4475,4.4928,4.4929,4.5648,4.6619,4.7911,5.1145,5.2404,5.2365,5.5801,6.0852,6.6518,6.6489,6.685,6.7959,7.2597,7.4966,7.5959,7.7487,7.8939,7.9856,7.7373,7.5993,7.4511,6.999,7.0887,7.202,6.3534,6.4908,6.8147,6.3389,6.1642,6.0939,6.0159,5.9885,5.9143,5.6597,0.0,5.7772,5.6718,0.0,5.8793,5.9468,0.0,0.0,6.0666,6.3666,6.5474,6.432,6.8706,7.2014,7.1937,7.7361,8.0131,7.7669,7.763,7.8361,7.9862,7.8454,7.8577,8.0977,8.0991,8.0953,8.0939,8.0208,7.9746,7.9669,7.89,7.8477,7.8477,7.7784,7.74,7.7284,7.6592,7.6169,7.6015,7.6092,7.6092,7.6015,7.6015,7.6015,7.6015,7.6015,7.6015,7.6015,7.6015,7.6015,7.6015,4.0559,4.1692,4.298,4.4249,4.6259,4.8493,5.0777,5.3514,5.5761,5.6846,5.8797,5.9882,5.9205,5.9976,6.0475,6.0299,5.9601,5.8276,0.0,5.432,5.2782,5.1657,4.9177,4.8269,4.9152,4.7327,4.5878,4.4975,4.5321,4.5454,4.5382,4.5583,4.771,5.137,5.3049,5.5746,5.9086,5.9345,6.1628,6.515,6.5711,6.6254,6.74,7.3934,7.6953,7.7793,7.8481,7.9207,7.9627,7.8557,7.6475,7.4259,7.3915,7.3193,7.1491,6.672,6.6845,6.7609,6.3283,6.2882,6.3146,6.0839,6.098,6.072,5.7407,5.6439,5.6262,5.6417,0.0,0.0,0.0,0.0,0.0,0.0,6.0935,6.232,5.9973,6.5282,6.9436,6.9436,0.0,0.0,7.6476,7.6553,7.76,8.0261,7.8384,7.8238,8.0778,8.0926,8.0696,8.0299,7.9485,7.8823,7.8361,7.7476,7.7053,7.7053,7.6647,7.6494,7.6515,7.6109,7.5955,7.6015,7.6015,7.6015,7.6015,7.6015,7.6015,7.6015,7.6015,7.6015,7.6015,7.6015,7.6015,7.6015,4.12,4.2239,4.3355,4.4162,4.6394,4.9065,5.1945,5.5439,5.797,5.8665,6.0718,6.1757,6.095,6.2145,6.2797,6.2413,6.2514,6.1569,0.0,5.785,5.6367,5.4723,5.1967,5.0713,5.1236,4.908,4.7417,4.627,4.6224,4.6138,4.6042,4.5665,4.8163,5.2998,5.4484,5.8116,6.3121,6.2892,6.4191,6.6445,6.7439,6.889,7.103,7.5806,7.8328,7.9321,7.9551,7.9627,7.9551,7.9092,7.6828,7.451,7.6373,7.4905,7.2054,6.9977,6.9749,6.915,6.4701,6.4766,6.5245,6.1701,6.1328,6.1136,5.8509,5.6962,5.6407,5.7592,5.6991,0.0,0.0,0.0,5.6503,5.634,0.0,5.9511,0.0,6.0973,0.0,0.0,0.0,0.0,0.0,7.4399,7.5755,7.9275,7.7361,7.7445,8.0639,8.0788,8.0553,8.0043,7.9261,7.8562,7.7946,7.687,7.6263,7.6263,7.5972,7.5856,7.5917,7.5895,7.5925,7.5985,7.6015,7.6015,7.6015,7.6015,7.6015,7.6015,7.6015,7.6015,7.6015,7.6015,7.6015,7.6015,4.3008,4.3047,4.3355,4.4162,4.6394,4.924,5.2626,5.4685,5.6686,5.9127,6.0964,6.2606,6.4142,6.4967,6.5724,6.6528,6.7271,6.6672,6.4334,6.1858,6.161,6.425,5.6427,5.3964,5.8102,5.2446,4.8609,4.696,4.696,4.6916,4.6838,4.594,4.6912,4.9719,5.5287,5.8803,6.0867,6.6522,7.1298,7.5004,7.424,7.6379,7.9818,7.7602,7.7793,7.9398,8.0162,8.0468,0.0,7.8596,7.7538,0.0,7.4938,7.5564,7.6236,7.3035,7.4318,7.5578,7.006,6.8584,6.7575,6.3449,6.1264,5.9827,5.8894,5.8622,5.8581,5.8501,5.9029,5.9283,5.8402,5.8242,5.7396,0.0,0.0,0.0,0.0,0.0,0.0,0.0,0.0,0.0,0.0,7.036,7.1601,0.0,7.4343,7.5507,8.0524,8.0685,8.072,8.0849,8.0081,7.9659,7.962,7.793,7.7054,7.6958,7.6114,7.5692,7.5692,7.5864,7.5895,7.5895,7.5985,7.6015,7.6015,7.6015,7.6015,7.6015,7.6015,7.6015,7.6015,7.6015,7.6015,7.6015,4.4632,4.513,4.5281,4.447,4.6394,4.9471,5.3433,5.7351,6.0364,6.1785,6.3885,6.5866,6.7554,6.7927,6.8595,7.0011,0.0,6.9642,6.7706,6.5743,0.0,6.5179,5.937,5.7082,5.9048,5.44,5.112,4.9388,4.874,4.8375,4.8353,4.7451,4.8673,5.1829,5.6575,6.0867,6.4764,6.7897,7.0992,7.3858,7.4087,7.573,7.7946,7.7678,7.8634,8.0047,7.978,8.0047,0.0,7.9207,7.8359,7.7586,7.6947,7.6025,7.4976,7.3921,7.4043,7.406,7.1695,7.2621,7.2712,6.6337,6.5564,6.5118,6.0344,5.9314,5.9215,5.8604,5.907,5.9293,5.8457,5.7819,5.6973,0.0,0.0,0.0,0.0,0.0,0.0,0.0,0.0,0.0,0.0,0.0,0.0,0.0,7.5359,0.0,8.0425,8.0614,8.065,8.072,7.9949,7.956,7.956,7.7873,7.7029,7.6996,7.6049,7.5666,7.5692,7.5699,7.5731,7.5763,7.5794,7.5856,7.5925,7.5925,7.5955,7.6015,7.6015,7.6015,7.6015,7.6015,7.6015,7.6015,4.7259,4.7721,4.7607,4.5898,4.7953,5.118,5.5176,5.9547,6.29,6.432,6.6681,6.8761,7.0141,7.0233,7.0707,7.2154,7.2172,7.145,6.9731,6.8655,0.0,6.7209,6.3345,6.1761,6.2874,5.8189,5.4908,5.3212,5.1315,5.0291,4.9939,4.8793,4.9901,5.2957,5.6587,6.1211,6.6407,6.9005,7.1909,7.4813,7.5348,7.657,7.8061,7.8366,7.8939,7.9627,0.0,8.0047,8.043,7.9895,7.936,7.8901,7.8901,7.7755,7.6379,7.6144,7.5775,7.5127,7.3764,7.4956,7.5195,6.9436,6.9013,6.8629,6.3392,6.2243,6.2111,6.1571,6.1112,6.1171,6.2452,6.0042,0.0,0.0,0.0,0.0,0.0,5.1621,0.0,0.0,0.0,0.0,0.0,0.0,0.0,0.0,0.0,0.0,0.0,8.0542,8.0578,8.0614,8.0148,7.988,7.988,7.8233,7.739,7.7356,7.614,7.5599,7.5633,7.5599,7.5633,7.5699,7.5692,7.5794,7.5895,7.5895,7.5925,7.6015,7.6015,7.6015,7.6015,7.6015,7.6015,7.6015,5.0785,5.067,5.021,4.8677,5.1037,5.4258,5.7632,6.1019,6.4085,6.6615,6.9084,7.093,7.1904,7.1893,7.221,7.3117,7.3161,7.2406,7.0763,7.0572,0.0,0.0,6.8203,6.763,6.9273,6.3541,5.972,5.8154,5.4639,5.2575,5.1811,5.0092,5.0588,5.3034,5.5594,5.995,6.5681,6.9846,7.4049,7.7946,7.7984,7.8939,8.0315,7.9627,7.8825,7.829,7.9895,8.0506,8.0506,8.0506,8.0506,8.0506,8.043,8.0468,8.0353,7.9513,7.9321,7.8861,7.6446,7.5757,7.5217,7.2678,7.1482,7.0218,6.7688,6.7113,6.7113,6.7075,6.5186,6.4956,6.9604,0.0,0.0,0.0,0.0,0.0,0.0,0.0,0.0,0.0,0.0,0.0,0.0,0.0,0.0,0.0,0.0,0.0,0.0,8.0353,8.0352,8.0614,8.0614,8.0614,8.0614,7.893,7.8056,7.7984,7.6303,7.5501,7.5501,7.5566,7.5599,7.5599,7.566,7.5763,7.5864,7.5864,7.5925,7.6015,7.6015,7.6015,7.6015,7.6015,7.6015,7.6015,5.2394,5.2738,5.3427,5.4317,5.4671,5.5792,5.8591,6.1835,6.491,6.7399,6.9298,7.1254,7.339,7.3586,7.3896,7.4809,7.4886,0.0,0.0,0.0,0.0,7.4125,7.0572,6.9349,7.103,6.5261,6.2051,6.1631,5.7008,5.4944,5.525,5.2919,5.2881,5.483,5.7351,6.1058,6.5643,6.9234,7.317,7.7105,7.7755,7.8252,7.8748,0.0,7.9665,7.9092,8.0124,8.0506,8.0506,8.0506,8.0506,8.0391,7.978,8.0009,8.0353,7.9513,7.9704,7.9895,7.8708,7.8364,7.7714,7.5226,7.3959,7.2882,7.0968,7.057,7.0448,6.9834,6.9681,6.9068,0.0,0.0,0.0,0.0,0.0,0.0,0.0,0.0,0.0,5.3513,0.0,0.0,0.0,0.0,0.0,0.0,0.0,0.0,0.0,0.0,7.7979,8.0428,8.0543,8.0543,8.0543,7.8861,7.802,7.7984,7.6303,7.5501,7.5501,7.5535,7.5535,7.5535,7.5532,7.5599,7.5666,7.5666,7.5801,7.5925,7.5925,7.5955,7.6015,7.6015,7.6015,7.6015,5.4639,5.5747,5.7187,5.8169,5.9152,6.0234,6.1476,6.3741,6.6292,6.8955,7.062,7.2367,7.4545,7.508,7.5653,7.6532,7.657,7.6265,7.5539,0.0,0.0,7.4927,7.3361,7.2902,7.3858,6.9578,0.0,6.5108,6.079,5.7963,5.6549,5.4371,5.4104,5.5517,5.8001,6.1058,6.4649,6.9846,7.3858,7.68,7.8061,7.8787,0.0,8.0124,8.0468,8.0391,8.0468,8.0506,8.0506,8.0506,8.0506,8.043,7.9971,8.0124,8.0391,7.9971,7.9895,7.9933,7.9856,7.9551,7.9016,7.7946,7.7332,7.6488,7.4423,7.3959,7.3877,7.3418,7.2537,7.1848,0.0,0.0,0.0,0.0,0.0,0.0,0.0,0.0,0.0,0.0,0.0,0.0,0.0,0.0,0.0,0.0,0.0,0.0,0.0,0.0,7.7447,8.0391,8.0162,8.0124,8.0506,7.8443,7.764,7.7984,7.6303,7.5501,7.5501,7.5501,7.5501,7.5501,7.5501,7.557,7.5599,7.5599,7.5666,7.5794,7.5864,7.5955,7.6015,7.6015,7.6015,7.6015,5.7275,5.9147,6.0905,6.0905,6.355,6.5574,6.5424,6.6421,6.8188,7.1067,7.2541,7.3972,7.5615,7.6456,7.7144,7.7755,7.7831,7.722,7.573,7.7029,7.6876,7.4813,7.5997,7.6685,7.6685,7.4163,7.1259,0.0,6.4496,6.0752,5.6893,5.5097,5.4715,5.567,5.8154,6.0981,6.4344,7.1412,7.5348,7.7029,7.8748,7.9933,8.0659,8.0698,8.1232,8.1843,8.1003,8.0698,8.0659,8.0544,8.0506,8.0506,8.0506,8.0506,8.0506,8.0506,8.0009,7.9589,8.0315,7.9895,7.9474,8.0315,8.043,7.978,7.7678,7.7182,7.7182,7.7182,7.4889,7.4278,7.8978,0.0,0.0,0.0,0.0,0.0,0.0,0.0,0.0,0.0,0.0,0.0,0.0,0.0,0.0,0.0,0.0,0.0,0.0,0.0,7.7182,8.0391,7.9818,7.9742,8.0353,7.8022,7.7182,7.7831,7.6227,7.5501,7.5501,7.5501,7.5501,7.5501,7.5501,7.5497,7.5566,7.5566,7.5633,7.5692,7.5864,7.5925,7.6015,7.6015,7.6015,7.6015,5.9873,6.1784,6.3503,6.3503,6.5389,6.743,6.8988,6.9512,7.0692,7.3295,7.4472,7.5692,7.7373,7.7678,7.7526,7.6991,7.6914,7.68,7.6494,0.0,0.0,7.7335,7.6914,7.6685,7.6685,7.3552,7.0954,0.0,6.4153,6.0752,5.8612,5.6282,5.5594,5.6511,5.9033,6.3503,6.9349,7.3514,7.6227,7.7908,7.9589,8.0812,8.1614,8.1825,8.225,8.2722,8.2129,8.1756,8.1461,8.0735,8.0506,8.0506,8.0506,8.0506,8.0506,8.0506,8.0391,8.0315,8.0468,7.9895,7.9474,8.0315,8.0009,7.9551,7.978,7.9818,7.9818,7.9818,7.936,7.8443,7.6685,0.0,0.0,0.0,0.0,0.0,0.0,0.0,0.0,0.0,0.0,0.0,0.0,0.0,0.0,0.0,0.0,0.0,0.0,0.0,7.3658,0.0,8.0353,8.0047,0.0,0.0,7.7487,7.6914,7.5959,7.5501,7.5501,7.5501,7.5501,7.5501,7.5501,7.5535,7.5535,7.5535,7.5532,7.5633,7.5833,7.5895,7.5925,7.5985,7.5985,7.5925,6.2968,6.4344,6.5543,6.5732,6.7652,6.9697,7.1268,7.2289,7.3065,7.3608,7.3893,7.4854,7.6937,7.7581,7.8036,7.8452,7.8074,7.8036,7.8452,7.8321,7.8024,7.7568,7.7874,7.7411,7.6112,7.5348,7.3055,6.9196,6.6292,6.2892,5.9071,5.7466,5.6664,5.6816,6.1554,6.6178,7.0724,7.5462,7.776,7.8405,8.0497,8.1474,8.1552,8.1698,8.2161,8.2687,8.2,8.1934,8.214,8.1421,8.1461,8.1652,8.0773,8.0812,8.1079,8.0621,8.0506,8.0506,8.0506,8.02,8.0009,8.0391,8.02,8.0009,8.0391,8.0506,8.0392,8.0159,8.0315,7.9474,7.6112,7.2745,0.0,0.0,0.0,0.0,0.0,0.0,0.0,0.0,0.0,0.0,0.0,0.0,0.0,0.0,0.0,0.0,0.0,0.0,7.3127,0.0,0.0,0.0,7.9933,0.0,7.7793,7.7373,7.6532,7.5883,7.5501,7.5501,7.5501,7.5501,7.5501,7.5501,7.5501,7.5501,7.5532,7.5599,7.5737,7.5801,7.5794,7.5925,7.5895,7.5794,6.6472,6.7425,6.8168,6.83,7.0221,7.2014,7.2885,7.4399,7.5109,7.4271,7.4099,7.4826,7.6965,7.7941,7.8916,8.0005,7.9529,7.9454,8.0042,7.9868,7.9267,7.8132,7.8777,7.8293,7.6275,7.7189,7.5132,0.0,0.0,6.5175,5.9693,5.8852,5.8509,5.8845,6.4527,6.8655,7.1745,7.6808,7.8891,7.8957,8.1347,8.2018,8.1581,8.1664,8.2152,8.2744,8.1964,8.2152,8.2786,8.2152,8.2373,8.2567,8.104,8.1156,8.1614,8.0773,8.0506,8.0506,8.0506,8.0506,8.0506,8.0506,8.0506,8.0506,8.0506,8.0506,8.0392,7.9958,8.0119,7.9324,7.6046,7.3685,0.0,0.0,0.0,0.0,0.0,0.0,0.0,0.0,0.0,0.0,0.0,0.0,0.0,0.0,0.0,0.0,7.3538,0.0,0.0,0.0,0.0,7.8978,7.9436,0.0,7.7908,7.7717,7.6838,7.6112,7.5501,7.5501,7.5501,7.5501,7.5501,7.5501,7.5501,7.5501,7.5497,7.5566,7.5599,7.5633,7.566,7.5794,7.5763,7.5692,7.046,7.1673,7.2652,7.2177,7.3168,7.4093,7.419,7.5235,7.6289,7.7192,7.7903,7.8691,7.9629,8.0455,8.0718,8.0155,8.0042,8.0042,8.0117,8.0092,8.0318,8.0881,7.9666,7.8838,7.8575,7.7259,7.5145,0.0,0.0,6.6104,6.1788,6.0692,6.1911,6.5156,6.7277,7.0637,7.476,7.6874,7.8602,8.0092,8.1871,8.2533,8.2467,8.2762,8.321,8.372,8.306,8.3266,8.3622,8.2824,8.2416,8.2102,8.1154,8.1299,8.1614,8.0773,8.0506,8.0506,8.0506,8.0506,8.0506,8.0506,8.0506,8.0506,8.0506,8.0506,8.0506,8.0468,8.0078,7.8826,7.581,7.6771,7.6722,0.0,0.0,0.0,0.0,0.0,0.0,0.0,0.0,0.0,0.0,0.0,0.0,0.0,6.4329,0.0,0.0,0.0,0.0,7.6914,7.6991,7.6609,7.5959,7.7335,7.7602,7.68,7.5997,7.5577,7.5501,7.5501,7.5501,7.5501,7.5501,7.5501,7.5501,7.5501,7.5501,7.5535,7.5566,7.5599,7.5633,7.566,7.5699,7.5633,7.3408,7.3176,7.3079,7.3566,7.4093,7.4791,7.5933,7.6948,7.7928,7.8846,7.8792,7.9014,7.985,8.0221,8.0422,8.0644,8.02,8.0126,8.0607,8.0507,8.0301,8.0077,8.0264,7.9629,7.8166,7.7978,7.644,0.0,0.0,6.7997,6.4403,6.4427,6.5877,6.8575,7.2266,7.4657,7.6129,7.9817,8.1312,8.1196,8.237,8.2628,8.2348,8.2474,8.2647,8.283,8.2622,8.2647,8.2853,8.252,8.2743,8.2987,8.1592,8.1698,8.2103,8.1233,8.0628,8.025,8.025,7.9917,7.9538,7.9538,7.9538,7.9538,7.9538,7.9538,7.9449,7.9171,7.8891,7.8441,7.7565,7.659,7.5962,7.6195,0.0,0.0,0.0,0.0,0.0,0.0,0.0,0.0,0.0,0.0,0.0,0.0,0.0,0.0,0.0,0.0,0.0,7.359,0.0,7.8099,7.6227,7.7908,7.8328,7.7487,7.6351,7.5551,7.498,7.4743,7.4582,7.4619,7.4903,7.4863,7.4582,7.4903,7.5019,7.5019,7.5389,7.5532,7.5532,7.5633,7.5599,7.5532,7.557,7.4873,7.4536,7.5495,7.5828,7.6433,7.7843,7.8772,7.9507,8.0057,8.0057,8.0057,8.0131,8.0351,8.0718,8.1305,8.0828,8.0755,8.1305,8.1194,8.0807,8.0156,8.0842,8.043,7.8624,7.8752,7.7617,7.5254,7.3025,7.0465,6.7635,6.7874,6.9434,7.2235,7.5757,7.7498,7.8027,8.1512,8.259,8.1992,8.2547,8.256,8.2186,8.2186,8.2186,8.2186,8.2186,8.2186,8.2186,8.2186,8.2708,8.3172,8.188,8.2002,8.2406,8.1543,8.0718,8.008,8.008,7.9529,7.8891,7.8891,7.8891,7.8891,7.8891,7.8891,7.8741,7.82,7.809,7.8146,7.8416,7.6461,7.5506,7.7279,0.0,0.0,0.0,7.8027,0.0,0.0,7.7278,7.5801,7.4285,0.0,0.0,0.0,0.0,0.0,0.0,0.0,0.0,0.0,0.0,0.0,7.6122,7.7837,7.8218,7.7187,7.599,7.5107,7.446,7.4154,7.4009,7.4056,7.4331,7.4287,7.4056,7.4331,7.4582,7.4745,7.5132,7.5356,7.5501,7.5532,7.5532,7.5535,7.6824,7.7478,7.8162,7.8492,7.9176,7.9727,7.9764,8.0461,8.0975,8.0975,8.237,8.2737,8.1158,8.1672,8.215,8.2186,8.2186,8.2186,8.2186,8.215,8.215,8.215,8.1415,8.0975,8.0938,7.9396,7.8552,7.8516,0.0,7.3437,7.168,7.0582,7.2447,7.6699,7.6774,7.8338,8.0938,8.0975,8.1452,8.2186,8.2186,8.2186,8.2186,8.2186,8.2186,8.2186,8.2186,8.2186,8.2186,8.2186,8.2186,8.2169,8.1867,8.2165,8.2406,8.1543,8.0718,8.008,8.008,7.9529,7.8891,7.8891,7.8891,7.8891,7.8891,7.8891,7.8741,7.82,7.809,7.796,7.7426,7.7304,7.664,7.4754,7.6476,0.0,0.0,7.5952,0.0,7.5986,7.1556,7.0496,7.5384,6.9573,0.0,0.0,0.0,0.0,0.0,0.0,0.0,7.5766,7.6427,0.0,7.4705,7.6452,7.6614,7.5333,7.4423,7.4009,7.4009,7.4009,7.4009,7.4009,7.4009,7.4009,7.4009,7.4009,7.4287,7.4705,7.4705,7.5019,7.5501,7.5501,7.5501,7.5501,7.8883,7.9081,7.9314,7.9423,8.0534,8.1415,8.1415,8.259,8.3471,8.3471,8.3911,8.4022,8.3508,8.3214,8.303,8.303,8.2517,8.2186,8.2186,8.2186,8.2186,8.2186,8.1929,8.1562,8.1012,8.0498,7.9984,7.9396,7.7694,7.6569,7.5995,7.5676,7.6681,7.8872,7.9977,8.0625,8.1048,8.1599,8.1966,8.2186,8.2186,8.2186,8.2186,8.2186,8.2186,8.2186,8.2186,8.2186,8.2186,8.2186,8.2186,8.2215,8.2113,8.2191,8.2264,8.2005,8.134,8.06,8.0045,7.9305,7.8528,7.7974,7.7826,7.7826,7.7826,7.7826,7.7768,7.7629,7.757,7.751,7.7304,7.7304,7.7108,7.6457,7.7031,7.7334,7.6733,0.0,7.7521,7.7415,7.6338,7.6047,7.7279,7.3124,0.0,0.0,0.0,0.0,0.0,0.0,0.0,0.0,7.6884,0.0,7.4199,7.6241,7.6614,7.5286,7.4088,7.3313,7.298,7.3364,7.3313,7.3034,7.3364,7.3313,7.3034,7.3364,7.3616,7.3774,7.4101,7.4325,7.4497,7.4863,7.4942,7.4942,8.0681,8.0938,8.1158,8.1158,8.2223,8.3104,8.3104,8.3948,8.4609,8.4609,8.4866,8.5049,8.5049,8.4609,8.4168,8.3875,8.3398,8.3104,8.3104,8.3104,8.3104,8.3104,8.281,8.2406,8.1929,8.1305,8.0755,8.0241,7.9215,7.884,7.9135,7.9113,7.967,8.0755,8.1746,8.1929,8.1489,8.2003,8.2186,8.2186,8.2186,8.2186,8.2186,8.2186,8.2186,8.2186,8.2186,8.2186,8.2186,8.2186,8.2186,8.2186,8.2186,8.2186,8.2186,8.2186,8.1636,8.0901,8.0388,7.9433,7.8479,7.7928,7.7561,7.7304,7.7304,7.7304,7.7304,7.7304,7.7304,7.7304,7.7304,7.7304,7.7304,7.7304,7.7304,7.7304,7.7304,7.7629,7.7513,0.0,0.0,0.0,0.0,7.4922,7.3766,0.0,0.0,0.0,0.0,0.0,7.327,7.3883,7.751,7.7868,7.4623,7.5709,7.5577,7.4211,7.3363,7.2798,7.2496,7.2853,7.2798,7.2496,7.2853,7.2798,7.2496,7.2853,7.3087,7.335,7.3579,7.3869,7.4056,7.4331,7.4582,7.4705,8.237,8.2957,8.3508,8.3508,8.4168,8.4682,8.4682,8.4719,8.4756,8.4756,8.5416,8.5857,8.5857,8.5857,8.5563,8.4829,8.4646,8.4609,8.4609,8.4609,8.4609,8.4609,8.3875,8.3508,8.3508,8.1966,8.1158,8.1085,8.0314,8.0351,8.1085,8.1085,8.1489,8.2186,8.2186,8.2186,8.2186,8.2186,8.2186,8.2186,8.2186,8.2186,8.2186,8.2186,8.2186,8.2186,8.2186,8.2186,8.2186,8.2186,8.2186,8.2186,8.2186,8.2186,8.2186,8.2186,8.1672,8.1085,8.1012,7.991,7.8736,7.8699,7.8038,7.7378,7.7341,7.7304,7.7304,7.7304,7.7304,7.7304,7.7304,7.7304,7.7304,7.7304,7.7304,7.7304,7.7304,7.7304,7.664,7.4828,7.4623,0.0,7.5271,7.532,7.623,0.0,0.0,0.0,0.0,0.0,7.3463,7.8579,7.8065,7.6993,7.5601,7.4858,7.3811,7.2496,7.2496,7.2496,7.2496,7.2496,7.2496,7.2496,7.2496,7.2496,7.2496,7.2496,7.2798,7.3246,7.3246,7.3516,7.3916,7.3963,7.4199,7.4544,8.4022,8.4205,8.4315,8.4315,8.4976,8.5527,8.5527,8.604,8.6444,8.6444,8.6591,8.6738,8.6738,8.6738,8.6664,8.6444,8.5306,8.4609,8.4609,8.4609,8.4609,8.4609,8.4425,8.4315,8.4315,8.3361,8.2553,8.1929,8.1709,8.1709,8.1929,8.1929,8.2003,8.2186,8.2186,8.2186,8.2186,8.2186,8.2186,8.2186,8.2186,8.2186,8.2186,8.2186,8.2186,8.2186,8.2186,8.2186,8.2186,8.2186,8.2186,8.2186,8.2186,8.2186,8.2186,8.2186,8.2076,8.1782,8.1158,8.0718,8.0277,7.9653,7.8883,7.8112,7.7451,7.7304,7.7304,7.7304,7.7304,7.7304,7.7304,7.7304,7.7304,7.7304,7.7304,7.7304,7.7304,7.7304,7.7121,7.6677,7.6604,7.6663,7.6781,7.6802,7.642,0.0,0.0,7.5655,7.6064,7.3901,7.4113,7.7266,7.7604,7.6528,7.4196,7.4384,7.3811,7.2496,7.2496,7.2496,7.2496,7.2496,7.2496,7.2496,7.2496,7.2496,7.2496,7.2496,7.2553,7.2686,7.2686,7.2742,7.2926,7.3313,7.3566,7.3616,8.5536,8.5642,8.571,8.571,8.5972,8.6265,8.6334,8.6563,8.6786,8.6856,8.6856,8.6856,8.6856,8.6925,8.6995,8.6995,8.6224,8.571,8.571,8.571,8.571,8.571,8.5343,8.5159,8.5159,8.4352,8.3728,8.3287,8.292,8.2737,8.2737,8.237,8.2186,8.2186,8.2186,8.2186,8.2186,8.2186,8.2186,8.2186,8.2186,8.2186,8.2186,8.2186,8.2186,8.2186,8.2186,8.2186,8.2186,8.2186,8.2186,8.2186,8.2186,8.2186,8.2186,8.2186,8.2186,8.2113,8.1672,8.1269,8.0828,7.9984,7.9176,7.8479,7.8002,7.7598,7.7304,7.7304,7.7304,7.7304,7.7304,7.7304,7.7304,7.7304,7.7304,7.7304,7.7304,7.7304,7.7304,7.7304,7.7304,7.7304,7.7304,7.7304,7.6875,7.5843,7.5732,0.0,7.5601,7.4959,7.5273,7.6865,7.6212,7.5162,7.3707,7.3609,7.3204,7.2496,7.2496,7.2496,7.2496,7.2496,7.2496,7.2496,7.2496,7.2496,7.2496,7.2496,7.2496,7.2496,7.2496,7.2496,7.2553,7.2853,7.3087,7.3246,8.6608,8.6786,8.6925,8.6925,8.6786,8.6715,8.6856,8.6644,8.6465,8.6608,8.6608,8.6608,8.6608,8.6786,8.6925,8.6925,8.6925,8.6925,8.6995,8.6995,8.6995,8.6995,8.6334,8.5967,8.5967,8.5196,8.4719,8.4609,8.3911,8.3581,8.3581,8.2884,8.2553,8.2553,8.2443,8.237,8.237,8.226,8.2186,8.2186,8.2186,8.2186,8.2186,8.2186,8.2186,8.2186,8.2186,8.2186,8.2186,8.2186,8.2186,8.2186,8.2186,8.2186,8.2186,8.2186,8.2186,8.2186,8.2186,8.1709,8.0975,8.0167,7.947,7.8883,7.8662,7.8038,7.7488,7.7341,7.7304,7.7304,7.7304,7.7304,7.7268,7.7157,7.7231,7.7268,7.7157,7.7231,7.7304,7.7304,7.7304,7.7304,7.7304,7.7194,7.7121,7.7121,7.7047,7.6644,7.5946,7.5799,7.5927,7.6366,7.4769,7.3891,7.3891,7.3083,7.2753,7.2863,7.2753,7.2679,7.2679,7.2679,7.2606,7.2496,7.2496,7.2496,7.2496,7.2496,7.2496,7.2496,7.2496,7.2496,7.2496,7.2496,7.2798,7.3087,8.6429,8.6501,8.6501,8.6501,8.6501,8.6501,8.6501,8.6429,8.6392,8.6392,8.6429,8.6429,8.6429,8.6465,8.6501,8.6501,8.6644,8.6856,8.6995,8.6995,8.6995,8.6995,8.6885,8.6811,8.6811,8.604,8.527,8.4609,8.4462,8.4425,8.4425,8.4278,8.4242,8.4205,8.3544,8.3214,8.3177,8.248,8.2186,8.2186,8.2186,8.2186,8.2186,8.2186,8.2186,8.2186,8.2186,8.2186,8.2186,8.2186,8.2186,8.2186,8.2186,8.2186,8.2186,8.2186,8.2186,8.2186,8.2186,8.2113,8.1819,8.1012,8.0718,8.0277,7.8919,7.8516,7.8185,7.7451,7.7304,7.7304,7.7304,7.7304,7.7084,7.6387,7.6864,7.7084,7.6387,7.69,7.7304,7.7304,7.7304,7.7304,7.7304,7.668,7.6276,7.6276,7.5652,7.5249,7.5102,7.4441,7.4133,7.4212,7.4537,7.4735,7.4735,7.3927,7.3854,7.4515,7.3854,7.3487,7.3487,7.3487,7.312,7.2496,7.2496,7.2496,7.2496,7.2496,7.2496,7.2496,7.2496,7.2496,7.2496,7.2496,7.2553,7.261,8.6247,8.632,8.6429,8.6429,8.632,8.6247,8.6392,8.621,8.6136,8.6247,8.6247,8.6247,8.6247,8.632,8.6429,8.6429,8.6465,8.6608,8.6856,8.6925,8.6995,8.6995,8.6995,8.6995,8.6995,8.6628,8.6261,8.5894,8.5453,8.5233,8.5233,8.4792,8.4609,8.4572,8.4205,8.4058,8.4022,8.3654,8.3251,8.2847,8.2847,8.259,8.2186,8.2186,8.2186,8.2186,8.2186,8.2186,8.2186,8.2186,8.1893,8.1636,8.2039,8.1893,8.1562,8.1562,8.1856,8.2186,8.2186,8.2186,8.2113,8.1746,8.1342,8.0828,8.0057,7.9213,7.8479,7.8075,7.7635,7.7194,7.6754,7.6644,7.6387,7.5579,7.5763,7.5909,7.5506,7.5799,7.6203,7.6607,7.6276,7.6203,7.6607,7.5946,7.5469,7.5469,7.5139,7.4735,7.4294,7.3891,7.3487,7.3083,7.3413,7.3634,7.3634,7.323,7.323,7.3597,7.323,7.3046,7.3046,7.3046,7.2863,7.2496,7.2496,7.2496,7.2496,7.2496,7.2496,7.2496,7.2496,7.2496,7.2496,7.2496,7.2496,7.2496,8.6026,8.621,8.6283,8.6283,8.6136,8.6136,8.6283,8.6098,8.5948,8.6062,8.6026,8.6026,8.6026,8.6174,8.632,8.632,8.6429,8.6573,8.6679,8.6856,8.6995,8.6995,8.6995,8.6995,8.6995,8.6995,8.6995,8.6995,8.6371,8.6077,8.6077,8.5453,8.5159,8.5159,8.4976,8.4866,8.4866,8.4682,8.4242,8.3691,8.3691,8.3214,8.248,8.248,8.237,8.2186,8.2003,8.1929,8.1893,8.1709,8.1232,8.0828,8.1452,8.1232,8.0718,8.0718,8.1158,8.1709,8.2076,8.2039,8.1966,8.215,8.1599,8.0938,8.0755,7.9617,7.8479,7.8112,7.7488,7.679,7.5983,7.5836,7.5579,7.4771,7.4808,7.4845,7.4661,7.4808,7.5139,7.5763,7.5285,7.5139,7.5763,7.5102,7.4625,7.4625,7.4478,7.4074,7.345,7.3413,7.312,7.2532,7.2679,7.2863,7.3083,7.2863,7.2863,7.3083,7.2863,7.2789,7.2789,7.2789,7.2679,7.2496,7.2496,7.2496,7.2496,7.2496,7.2496,7.2496,7.2496,7.2496,7.2496,7.2496,7.2496,7.2496,8.5873,8.5909,8.5985,8.5985,8.5873,8.5873,8.5948,8.5909,8.5909,8.5873,8.5873,8.5873,8.5873,8.6062,8.61,8.61,8.6465,8.6679,8.6679,8.6856,8.6995,8.6995,8.6995,8.6995,8.6995,8.6995,8.6995,8.6995,8.6958,8.6921,8.6921,8.6848,8.6811,8.6811,8.604,8.571,8.5637,8.4903,8.4572,8.4499,8.4499,8.4022,8.3324,8.3324,8.2847,8.2113,8.1379,8.1085,8.0975,8.0204,7.991,7.9874,7.9947,7.991,7.9874,7.9874,7.991,8.0277,8.1782,8.1672,8.1269,8.2003,8.1599,8.0791,8.0057,7.9213,7.8148,7.6607,7.624,7.5946,7.5139,7.4992,7.4735,7.3927,7.4404,7.4661,7.3891,7.4441,7.4918,7.4992,7.4955,7.4918,7.4992,7.4258,7.378,7.378,7.3083,7.2642,7.2606,7.2606,7.2569,7.2496,7.323,7.3964,7.4735,7.3964,7.4001,7.4735,7.3964,7.3597,7.3597,7.3597,7.3193,7.2496,7.2496,7.2496,7.2496,7.2496,7.2496,7.2496,7.2496,7.2496,7.2496,7.2496,7.2496,7.2496,8.5909,8.5909,8.5909,8.5909,8.5909,8.5909,8.5909,8.5909,8.5909,8.5909,8.5909,8.5909,8.5909,8.5948,8.5987,8.61,8.6247,8.6392,8.6679,8.6786,8.6856,8.6995,8.6995,8.6995,8.6995,8.6995,8.6995,8.6995,8.6995,8.6995,8.6995,8.6995,8.6995,8.6995,8.6701,8.6554,8.6518,8.6224,8.582,8.5343,8.5343,8.4242,8.27,8.3214,8.2296,8.0718,8.0938,8.0681,8.0204,7.9874,7.947,7.914,7.9617,7.9433,7.914,7.9653,7.9066,7.8626,8.0241,8.0498,8.0314,8.0645,8.0461,8.0167,7.9874,7.9176,7.8405,7.7781,7.6827,7.5836,7.5065,7.4478,7.3891,7.3083,7.323,7.3303,7.301,7.323,7.3597,7.4111,7.3707,7.3634,7.4111,7.3413,7.2973,7.2973,7.2679,7.2496,7.2496,7.2496,7.2496,7.2496,7.2789,7.3083,7.3413,7.312,7.312,7.3413,7.3083,7.2973,7.2973,7.2973,7.2789,7.2496,7.2496,7.2496,7.2496,7.2496,7.2496,7.2496,7.2496,7.2496,7.2496,7.2496,7.2496,7.2496,8.5909,8.5909,8.5909,8.5909,8.5909,8.5909,8.5909,8.5909,8.5909,8.5909,8.5909,8.5909,8.5909,8.5948,8.5987,8.61,8.6174,8.632,8.6573,8.6679,8.6786,8.6995,8.6995,8.6995,8.6995,8.6995,8.6995,8.6995,8.6995,8.6995,8.6995,8.6995,8.6995,8.6995,8.6995,8.6995,8.6995,8.6995,8.6701,8.6187,8.6187,8.4866,8.2994,8.3287,8.2076,8.0167,8.0241,7.9874,7.936,7.9103,7.8662,7.8295,7.8846,7.8626,7.8295,7.8846,7.8222,7.7561,7.8699,7.8993,7.914,7.9653,7.98,7.9727,7.947,7.8993,7.8369,7.7598,7.6717,7.5799,7.4735,7.4074,7.3523,7.2973,7.2679,7.2496,7.2496,7.2496,7.2716,7.3266,7.2826,7.2716,7.3266,7.2826,7.2496,7.2496,7.2496,7.2496,7.2496,7.2496,7.2496,7.2496,7.2496,7.2496,7.2496,7.2496,7.2496,7.2496,7.2496,7.2496,7.2496,7.2496,7.2496,7.2496,7.2496,7.2496,7.2496,7.2496,7.2496,7.2496,7.2496,7.2496,7.2496,7.2496,7.2496,7.2496,8.5909,8.5909,8.5909,8.5909,8.5909,8.5909,8.5909,8.5909,8.5909,8.5909,8.5909,8.5909,8.5909,8.5987,8.61,8.61,8.6247,8.6429,8.6392,8.6573,8.6786,8.6995,8.6995,8.6995,8.6995,8.6995,8.6995,8.6995,8.6995,8.6995,8.6995,8.6995,8.6995,8.6995,8.6995,8.6995,8.6995,8.6995,8.6995,8.6995,8.6995,8.604,8.4499,8.3691,8.2406,8.0791,7.9176,7.8589,7.8479,7.7598,7.7304,7.7304,7.7304,7.7304,7.7304,7.7304,7.7304,7.7304,7.7304,7.7304,7.7708,7.936,7.9764,7.958,7.8772,7.8589,7.7892,7.5432,7.5542,7.5616,7.4001,7.3707,7.3707,7.367,7.301,7.2496,7.2496,7.2496,7.2496,7.2496,7.2496,7.2496,7.2496,7.2496,7.2496,7.2496,7.2496,7.2496,7.2496,7.2496,7.2496,7.2496,7.2496,7.2496,7.2496,7.2496,7.2496,7.2496,7.2496,7.2496,7.2496,7.2496,7.2496,7.2496,7.2496,7.2496,7.2496,7.2496,7.2496,7.2496,7.2496,7.2496,7.2496,7.2496,7.2496,7.2496,8.5909,8.5909,8.5909,8.5909,8.5909,8.5909,8.5909,8.5909,8.5909,8.5909,8.5909,8.5909,8.5909,8.5948,8.5987,8.61,8.6174,8.632,8.6608,8.6715,8.6786,8.6995,8.6995,8.6995,8.6995,8.6995,8.6995,8.6995,8.6995,8.6995,8.6995,8.6995,8.6995,8.6995,8.6995,8.6995,8.6995,8.6995,8.6664,8.6151,8.6151,8.4866,8.2884,8.2663,8.1195,7.925,7.8772,7.8222,7.7671,7.7414,7.7304,7.7304,7.7304,7.7304,7.7304,7.7304,7.7304,7.7304,7.7304,7.7781,7.8332,7.8809,7.8956,7.9029,7.936,7.8516,7.7488,7.6754,7.5909,7.4955,7.3891,7.3707,7.3523,7.2936,7.2679,7.2496,7.2496,7.2496,7.2496,7.2496,7.2496,7.2496,7.2496,7.2496,7.2496,7.2496,7.2496,7.2496,7.2496,7.2496,7.2496,7.2496,7.2496,7.2496,7.2496,7.2496,7.2496,7.2496,7.2496,7.2496,7.2496,7.2496,7.2496,7.2496,7.2496,7.2496,7.2496,7.2496,7.2496,7.2496,7.2496,7.2496,7.2496,7.2496,7.2496,7.2496,8.5909,8.5909,8.5909,8.5909,8.5909,8.5909,8.5909,8.5909,8.5909,8.5909,8.5909,8.5909,8.5909,8.5909,8.5948,8.5987,8.5987,8.6136,8.6465,8.6536,8.6715,8.6856,8.6925,8.6995,8.6995,8.6995,8.6995,8.6995,8.6995,8.6995,8.6995,8.6995,8.6995,8.6995,8.6995,8.6811,8.6518,8.6518,8.604,8.5306,8.5306,8.4242,8.2627,8.1966,8.0608,7.8993,7.8332,7.7781,7.7304,7.7304,7.7304,7.7304,7.7304,7.7304,7.7304,7.7304,7.7304,7.7304,7.7304,7.7708,7.8185,7.8516,7.9066,7.958,7.9764,7.9029,7.8002,7.7047,7.6056,7.5028,7.3891,7.3707,7.3523,7.3046,7.2973,7.2863,7.2532,7.2789,7.2863,7.2532,7.2496,7.2496,7.2496,7.2496,7.2496,7.2496,7.2496,7.2496,7.2496,7.2496,7.2496,7.2496,7.2496,7.2496,7.2496,7.2496,7.2496,7.2496,7.2496,7.2496,7.2496,7.2496,7.2496,7.2496,7.2496,7.2496,7.2496,7.2496,7.2496,7.2496,7.2496,7.2496,7.2496,7.2496,7.2496,7.2496,8.5909,8.5797,8.5797,8.5873,8.5797,8.5797,8.5909,8.5909,8.5909,8.5909,8.5909,8.5909,8.5909,8.5909,8.5909,8.5909,8.5909,8.5948,8.61,8.6247,8.6465,8.6679,8.6856,8.6995,8.6995,8.6995,8.6995,8.6995,8.6995,8.6995,8.6995,8.6995,8.6958,8.6921,8.6995,8.6518,8.571,8.5747,8.527,8.4499,8.4499,8.4022,8.3141,8.1599,8.0498,7.958,7.8002,7.7378,7.7304,7.7304,7.7304,7.7304,7.7304,7.7304,7.7304,7.7304,7.7304,7.7304,7.7304,7.7378,7.7635,7.8405,7.9764,8.0718,7.9947,7.9727,7.8993,7.6607,7.6056,7.5506,7.3891,7.3634,7.367,7.3597,7.3597,7.334,7.2606,7.3193,7.3377,7.2606,7.2569,7.2569,7.2496,7.2496,7.2496,7.2496,7.2496,7.2496,7.2496,7.2496,7.2496,7.2496,7.2496,7.2496,7.2496,7.2496,7.2496,7.2496,7.2496,7.2496,7.2496,7.2496,7.2496,7.2496,7.2496,7.2496,7.2496,7.2496,7.2496,7.2496,7.2496,7.2496,7.2496,7.2496,7.2496,7.2496,8.5909,8.5261,8.4952,8.5797,8.5261,8.4952,8.5797,8.5909,8.5909,8.5909,8.5909,8.5909,8.5909,8.5909,8.5909,8.5909,8.5909,8.5948,8.61,8.6174,8.632,8.6679,8.6786,8.6856,8.7031,8.6995,8.6995,8.6995,8.6995,8.6995,8.6995,8.6995,8.6664,8.6077,8.6738,8.6224,8.4903,8.5527,8.4976,8.3654,8.3654,8.3177,8.2333,8.1379,8.0498,7.9653,7.8662,7.7892,7.7304,7.7304,7.7304,7.7304,7.7304,7.7304,7.7304,7.7304,7.7304,7.7304,7.7304,7.7818,7.8369,7.8552,7.9323,7.9984,7.9837,7.9286,7.8332,7.6497,7.5616,7.4661,7.3046,7.3266,7.3487,7.2863,7.2753,7.2716,7.2532,7.3193,7.3377,7.2606,7.3046,7.3193,7.2569,7.2496,7.2496,7.2496,7.2496,7.2496,7.2496,7.2496,7.2496,7.2496,7.2496,7.2496,7.2496,7.2496,7.2496,7.2496,7.2496,7.2496,7.2496,7.2496,7.2496,7.2496,7.2496,7.2496,7.2496,7.2496,7.2496,7.2496,7.2496,7.2496,7.2496,7.2496,7.2496,7.2496,8.4549,8.4065,8.3897,8.4431,8.4065,8.3897,8.4431,8.4549,8.4549,8.4549,8.4549,8.4549,8.4549,8.4549,8.4549,8.4549,8.4908,8.5225,8.5267,8.5764,8.6174,8.6392,8.6465,8.6644,8.6856,8.6489,8.6559,8.6995,8.6628,8.6444,8.6407,8.604,8.5637,8.5233,8.5673,8.5159,8.4058,8.4499,8.3948,8.2847,8.2847,8.259,8.2113,8.1305,8.0498,7.969,7.8883,7.8038,7.7304,7.7304,7.7304,7.7304,7.7304,7.7304,7.7304,7.7304,7.7304,7.7304,7.7304,7.7635,7.8002,7.8002,7.8626,7.9323,7.969,7.9176,7.8112,7.646,7.5469,7.4404,7.2789,7.2826,7.2973,7.2569,7.2826,7.2936,7.2569,7.3193,7.3523,7.312,7.312,7.2973,7.2532,7.2496,7.2496,7.2496,7.2496,7.2496,7.2496,7.2496,7.2496,7.2496,7.2496,7.2496,7.2496,7.2496,7.2496,7.2496,7.2496,7.2496,7.2496,7.2496,7.2496,7.2496,7.2496,7.2496,7.2496,7.2496,7.2496,7.2496,7.2496,7.2496,7.2496,7.2496,7.2496,7.2496,8.2822,8.2645,8.268,8.2998,8.282,8.282,8.2998,8.2998,8.2998,8.2998,8.2998,8.2998,8.2998,8.2998,8.2998,8.2998,8.3692,8.4231,8.4396,8.5231,8.5915,8.61,8.6138,8.6283,8.6608,8.5764,8.576,8.6811,8.6004,8.56,8.5563,8.4903,8.4535,8.4389,8.4535,8.4095,8.3214,8.3361,8.2957,8.2186,8.2186,8.2186,8.2113,8.1452,8.0608,7.969,7.9029,7.8185,7.7304,7.7304,7.7304,7.7304,7.7304,7.7304,7.7304,7.7304,7.7304,7.7304,7.7304,7.7304,7.7304,7.7304,7.7855,7.8552,7.9213,7.8956,7.8112,7.646,7.5469,7.4478,7.2973,7.2606,7.2496,7.2496,7.3046,7.3266,7.2606,7.3193,7.3634,7.3487,7.2899,7.2496,7.2496,7.2496,7.2496,7.2496,7.2496,7.2496,7.2496,7.2496,7.2496,7.2496,7.2496,7.2496,7.2496,7.2496,7.2496,7.2496,7.2496,7.2496,7.2496,7.2496,7.2496,7.2496,7.2496,7.2496,7.2496,7.2496,7.2496,7.2496,7.2496,7.2496,7.2496,7.2496,7.2496,7.2496,8.205,8.1429,8.1274,8.2715,8.2313,8.2037,8.282,8.2998,8.2998,8.2998,8.2998,8.2998,8.2998,8.2998,8.2998,8.2998,8.3086,8.3521,8.4314,8.4559,8.5075,8.61,8.5482,8.5592,8.6392,8.5145,8.4918,8.5967,8.5159,8.4756,8.4756,8.4646,8.4242,8.3618,8.4278,8.3765,8.2406,8.3104,8.2957,8.2186,8.2186,8.2186,8.2186,8.2076,8.1085,7.9764,7.9653,7.8626,7.7304,7.7304,7.7304,7.7304,7.7304,7.7304,7.7304,7.7304,7.7304,7.7304,7.7304,7.7304,7.7304,7.7304,7.7414,7.7524,7.7635,7.8148,7.8112,7.646,7.5469,7.4625,7.3707,7.2973,7.2496,7.2496,7.2606,7.2606,7.2532,7.3193,7.345,7.2753,7.2569,7.2496,7.2496,7.2496,7.2496,7.2496,7.2496,7.2496,7.2496,7.2496,7.2496,7.2496,7.2496,7.2496,7.2496,7.2496,7.2496,7.2496,7.2496,7.2496,7.2496,7.2496,7.2496,7.2496,7.2496,7.2496,7.2496,7.2496,7.2496,7.2496,7.2496,7.2496,7.2496,7.2496,7.2496,7.2496,7.9762,7.9445,7.9358,8.0106,8.0172,8.0384,8.0733,8.1173,8.1448,8.1448,8.1448,8.1448,8.1448,8.1448,8.1448,8.1448,8.1979,8.2405,8.282,8.3812,8.464,8.5153,8.5399,8.5554,8.5664,8.4534,8.4019,8.4154,8.3961,8.3948,8.3911,8.3471,8.3067,8.2737,8.3104,8.2847,8.2223,8.259,8.2517,8.2186,8.2186,8.2186,8.215,8.1709,8.0791,7.9653,7.8736,7.7928,7.7304,7.7304,7.7304,7.7304,7.7304,7.7304,7.7304,7.7304,7.7304,7.7304,7.7304,7.7304,7.7304,7.7304,7.7304,7.7304,7.7304,7.7598,7.7561,7.635,7.5469,7.4661,7.3854,7.3046,7.2496,7.2496,7.2496,7.2496,7.2496,7.2826,7.2899,7.2532,7.2899,7.2973,7.2532,7.2496,7.2496,7.2496,7.2496,7.2496,7.2496,7.2496,7.2496,7.2496,7.2496,7.2496,7.2496,7.2496,7.2496,7.2496,7.2496,7.2496,7.2496,7.2496,7.2496,7.2496,7.2496,7.2496,7.2496,7.2496,7.2496,7.2496,7.2496,7.2496,7.2496,7.2496,7.2496,7.2496]},{"header":{"parameterUnit":"m.s-1","parameterCategory":1,"la1":30.6,"la2":28.766,"lo1":-90.7593,"lo2":-88.6598,"dx":0.0162,"dy":0.0183,"nx":116,"ny":114,"refTime":"2022-12-14T06:00:00:Z","depth":0,"parameterNumber":3,"parameterNumberName":"V-component_of_WINDS"},"data":[0.0,0.0,0.0,0.0,0.0,0.0,0.0,0.0,0.0,0.0,0.0,0.0,0.0,0.0,0.0,0.0,0.0,0.0,0.0,0.0,0.0,0.0,0.0,0.0,0.0,0.0,0.0,0.0,0.0,0.0,0.0,0.0,0.0,0.0,0.0,0.0,0.0,0.0,0.0,0.0,0.0,0.0,0.0,0.0,0.0,0.0,0.0,0.0,0.0,0.0,0.0,0.0,0.0,0.0,0.0,0.0,0.0,0.0,0.0,0.0,0.0,0.0,0.0,0.0,0.0,0.0,0.0,0.0,0.0,0.0,0.0,0.0,0.0,0.0,0.0,0.0,0.0,0.0,0.0,0.0,0.0,0.0,0.0,0.0,0.0,0.0,0.0,0.0,0.0,0.0,0.0,0.0,0.0,0.0,0.0,0.0,0.0,0.0,0.0,0.0,0.0,0.0,0.0,0.0,0.0,0.0,0.0,0.0,0.0,0.0,0.0,0.0,0.0,0.0,0.0,0.0,0.0,0.0,0.0,0.0,0.0,0.0,0.0,0.0,0.0,0.0,0.0,0.0,0.0,0.0,0.0,0.0,0.0,0.0,0.0,0.0,0.0,0.0,0.0,0.0,0.0,0.0,0.0,0.0,0.0,0.0,0.0,0.0,0.0,0.0,0.0,0.0,0.0,0.0,0.0,0.0,0.0,0.0,0.0,0.0,0.0,0.0,0.0,0.0,0.0,0.0,0.0,0.0,0.0,0.0,0.0,0.0,0.0,0.0,0.0,0.0,0.0,0.0,0.0,0.0,0.0,0.0,0.0,0.0,0.0,0.0,0.0,0.0,0.0,0.0,0.0,0.0,0.0,0.0,0.0,0.0,0.0,0.0,0.0,0.0,0.0,0.0,0.0,0.0,0.0,0.0,0.0,0.0,0.0,0.0,0.0,0.0,0.0,0.0,0.0,0.0,0.0,0.0,0.0,0.0,0.0,0.0,0.0,0.0,0.0,0.0,0.0,0.0,0.0,0.0,0.0,0.0,0.0,0.0,0.0,0.0,0.0,0.0,0.0,0.0,0.0,0.0,0.0,0.0,0.0,0.0,0.0,0.0,0.0,0.0,0.0,0.0,0.0,0.0,0.0,0.0,0.0,0.0,0.0,0.0,0.0,0.0,0.0,0.0,0.0,0.0,0.0,0.0,0.0,0.0,0.0,0.0,0.0,0.0,0.0,0.0,0.0,0.0,0.0,0.0,0.0,0.0,0.0,0.0,0.0,0.0,0.0,0.0,0.0,0.0,0.0,0.0,0.0,0.0,0.0,0.0,0.0,0.0,0.0,0.0,0.0,0.0,0.0,0.0,0.0,0.0,0.0,0.0,0.0,0.0,0.0,0.0,0.0,0.0,0.0,0.0,0.0,0.0,0.0,0.0,0.0,0.0,0.0,0.0,0.0,0.0,0.0,0.0,0.0,0.0,0.0,0.0,0.0,0.0,0.0,0.0,0.0,0.0,0.0,0.0,0.0,0.0,0.0,0.0,0.0,0.0,0.0,0.0,0.0,0.0,0.0,0.0,0.0,0.0,0.0,0.0,0.0,0.0,0.0,0.0,0.0,0.0,0.0,0.0,0.0,0.0,0.0,0.0,0.0,0.0,0.0,0.0,0.0,0.0,0.0,0.0,0.0,0.0,0.0,0.0,0.0,0.0,0.0,0.0,0.0,0.0,0.0,0.0,0.0,0.0,0.0,0.0,0.0,0.0,0.0,0.0,0.0,0.0,0.0,0.0,0.0,0.0,0.0,0.0,0.0,0.0,0.0,0.0,0.0,0.0,0.0,0.0,0.0,0.0,0.0,0.0,0.0,0.0,0.0,0.0,0.0,0.0,0.0,0.0,0.0,0.0,0.0,0.0,0.0,0.0,0.0,0.0,0.0,0.0,0.0,0.0,0.0,0.0,0.0,0.0,0.0,0.0,0.0,0.0,0.0,0.0,0.0,0.0,0.0,0.0,0.0,0.0,0.0,0.0,0.0,0.0,0.0,0.0,0.0,0.0,0.0,0.0,0.0,0.0,0.0,0.0,0.0,0.0,0.0,0.0,0.0,0.0,0.0,0.0,0.0,0.0,0.0,0.0,0.0,0.0,0.0,0.0,0.0,0.0,0.0,0.0,0.0,0.0,0.0,0.0,0.0,0.0,0.0,0.0,0.0,0.0,0.0,0.0,0.0,0.0,0.0,0.0,0.0,0.0,0.0,0.0,0.0,0.0,0.0,0.0,0.0,0.0,0.0,0.0,0.0,0.0,0.0,0.0,0.0,0.0,0.0,0.0,0.0,0.0,0.0,0.0,0.0,0.0,0.0,0.0,0.0,0.0,0.0,0.0,0.0,0.0,0.0,0.0,0.0,0.0,0.0,0.0,0.0,0.0,0.0,0.0,0.0,0.0,0.0,0.0,0.0,0.0,0.0,0.0,0.0,0.0,0.0,0.0,0.0,0.0,0.0,0.0,0.0,0.0,0.0,0.0,0.0,0.0,0.0,0.0,0.0,0.0,0.0,0.0,0.0,0.0,0.0,0.0,0.0,0.0,0.0,0.0,0.0,0.0,0.0,0.0,0.0,0.0,0.0,0.0,0.0,0.0,0.0,0.0,0.0,0.0,0.0,0.0,0.0,0.0,0.0,0.0,0.0,0.0,0.0,0.0,0.0,0.0,0.0,0.0,0.0,0.0,0.0,0.0,0.0,0.0,0.0,0.0,0.0,0.0,0.0,0.0,0.0,0.0,0.0,0.0,0.0,0.0,0.0,0.0,0.0,0.0,0.0,0.0,0.0,0.0,0.0,0.0,0.0,0.0,0.0,0.0,0.0,0.0,0.0,0.0,0.0,0.0,0.0,0.0,0.0,0.0,0.0,0.0,0.0,0.0,0.0,0.0,0.0,0.0,0.0,0.0,0.0,0.0,0.0,0.0,0.0,0.0,0.0,0.0,0.0,0.0,0.0,0.0,0.0,0.0,0.0,0.0,0.0,0.0,0.0,0.0,0.0,0.0,0.0,0.0,0.0,0.0,0.0,0.0,0.0,0.0,0.0,0.0,0.0,0.0,0.0,0.0,0.0,0.0,0.0,0.0,0.0,0.0,0.0,0.0,0.0,0.0,0.0,0.0,0.0,0.0,0.0,0.0,0.0,0.0,0.0,0.0,0.0,0.0,0.0,0.0,0.0,0.0,0.0,0.0,0.0,0.0,0.0,0.0,0.0,0.0,0.0,0.0,0.0,0.0,0.0,0.0,0.0,0.0,0.0,0.0,0.0,0.0,0.0,0.0,0.0,0.0,0.0,0.0,0.0,0.0,0.0,0.0,0.0,0.0,0.0,0.0,0.0,0.0,0.0,0.0,0.0,0.0,0.0,0.0,0.0,0.0,0.0,0.0,0.0,0.0,0.0,0.0,0.0,0.0,0.0,0.0,0.0,0.0,0.0,0.0,0.0,0.0,0.0,0.0,0.0,0.0,0.0,0.0,0.0,0.0,0.0,0.0,0.0,0.0,0.0,0.0,0.0,0.0,0.0,0.0,0.0,0.0,0.0,0.0,0.0,0.0,0.0,0.0,0.0,0.0,0.0,0.0,0.0,0.0,0.0,0.0,0.0,0.0,0.0,0.0,0.0,0.0,0.0,0.0,0.0,0.0,0.0,0.0,0.0,0.0,0.0,0.0,0.0,0.0,0.0,0.0,0.0,0.0,0.0,0.0,0.0,0.0,0.0,0.0,0.0,0.0,0.0,0.0,0.0,0.0,0.0,0.0,0.0,0.0,0.0,0.0,0.0,0.0,0.0,0.0,0.0,0.0,0.0,0.0,0.0,0.0,0.0,0.0,0.0,0.0,0.0,0.0,0.0,0.0,0.0,0.0,0.0,0.0,0.0,0.0,0.0,0.0,0.0,0.0,0.0,0.0,0.0,0.0,0.0,0.0,0.0,0.0,0.0,0.0,0.0,0.0,0.0,0.0,0.0,0.0,0.0,0.0,0.0,0.0,0.0,0.0,0.0,0.0,0.0,0.0,0.0,0.0,0.0,0.0,0.0,0.0,0.0,0.0,0.0,0.0,0.0,0.0,0.0,0.0,0.0,0.0,0.0,0.0,0.0,0.0,0.0,0.0,0.0,0.0,0.0,0.0,0.0,0.0,0.0,0.0,0.0,0.0,0.0,0.0,0.0,0.0,0.0,0.0,0.0,0.0,0.0,0.0,0.0,0.0,0.0,0.0,0.0,0.0,0.0,0.0,0.0,0.0,0.0,0.0,0.0,0.0,0.0,0.0,0.0,0.0,0.0,0.0,0.0,0.0,0.0,0.0,0.0,0.0,0.0,0.0,0.0,0.0,0.0,0.0,0.0,0.0,0.0,0.0,0.0,0.0,0.0,0.0,0.0,0.0,0.0,0.0,0.0,0.0,0.0,0.0,0.0,0.0,0.0,0.0,0.0,0.0,0.0,0.0,0.0,0.0,0.0,0.0,0.0,0.0,0.0,0.0,0.0,0.0,0.0,0.0,0.0,0.0,0.0,0.0,0.0,0.0,0.0,0.0,0.0,0.0,0.0,0.0,0.0,0.0,0.0,0.0,0.0,0.0,0.0,0.0,0.0,0.0,0.0,0.0,0.0,0.0,0.0,0.0,0.0,0.0,0.0,0.0,0.0,0.0,0.0,0.0,0.0,0.0,0.0,0.0,0.0,0.0,0.0,0.0,0.0,0.0,0.0,0.0,0.0,0.0,0.0,0.0,0.0,0.0,0.0,0.0,0.0,0.0,0.0,0.0,0.0,0.0,0.0,0.0,0.0,0.0,0.0,0.0,0.0,0.0,0.0,0.0,0.0,0.0,0.0,0.0,0.0,0.0,0.0,0.0,0.0,0.0,0.0,0.0,0.0,0.0,0.0,0.0,0.0,0.0,0.0,0.0,0.0,0.0,0.0,0.0,0.0,0.0,0.0,0.0,0.0,0.0,0.0,0.0,0.0,0.0,0.0,0.0,0.0,0.0,0.0,0.0,0.0,0.0,0.0,0.0,0.0,0.0,0.0,0.0,0.0,0.0,0.0,0.0,0.0,0.0,0.0,0.0,0.0,0.0,0.0,0.0,0.0,0.0,0.0,0.0,0.0,0.0,0.0,0.0,0.0,0.0,0.0,0.0,0.0,0.0,0.0,0.0,0.0,0.0,0.0,0.0,0.0,0.0,0.0,0.0,0.0,0.0,0.0,0.0,0.0,0.0,0.0,0.0,0.0,0.0,0.0,0.0,0.0,0.0,0.0,0.0,0.0,0.0,0.0,0.0,0.0,0.0,0.0,0.0,0.0,0.0,0.0,0.0,0.0,0.0,0.0,0.0,0.0,0.0,0.0,0.0,0.0,0.0,0.0,0.0,0.0,0.0,0.0,0.0,0.0,0.0,0.0,0.0,0.0,0.0,0.0,0.0,0.0,0.0,0.0,0.0,0.0,0.0,0.0,0.0,0.0,0.0,0.0,0.0,0.0,0.0,0.0,0.0,0.0,0.0,0.0,0.0,0.0,0.0,0.0,0.0,0.0,0.0,0.0,0.0,0.0,0.0,0.0,0.0,0.0,0.0,0.0,0.0,0.0,0.0,0.0,0.0,0.0,0.0,0.0,0.0,0.0,0.0,0.0,0.0,0.0,0.0,0.0,0.0,0.0,0.0,0.0,0.0,0.0,0.0,0.0,0.0,0.0,0.0,0.0,0.0,0.0,0.0,0.0,0.0,0.0,0.0,0.0,0.0,0.0,0.0,0.0,0.0,0.0,0.0,0.0,0.0,0.0,0.0,0.0,0.0,0.0,0.0,0.0,0.0,0.0,0.0,0.0,0.0,0.0,0.0,0.0,0.0,0.0,0.0,0.0,0.0,0.0,0.0,0.0,0.0,0.0,0.0,0.0,0.0,0.0,0.0,0.0,0.0,0.0,0.0,0.0,0.0,0.0,0.0,0.0,0.0,0.0,0.0,0.0,0.0,0.0,0.0,0.0,0.0,0.0,0.0,0.0,0.0,0.0,0.0,0.0,0.0,0.0,0.0,0.0,0.0,0.0,0.0,0.0,0.0,0.0,0.0,0.0,0.0,0.0,0.0,-0.4248,-0.4327,0.0,0.0,0.0,0.0,0.0,0.0,0.0,0.0,0.0,0.0,0.0,0.0,0.0,0.0,0.0,0.0,0.0,0.0,0.0,0.0,0.0,0.0,0.0,-0.4971,-0.4967,-0.4871,-0.4947,0.0,0.0,0.0,0.0,0.0,0.0,0.0,0.0,0.0,-0.5033,-0.5095,-0.4983,-0.4852,-0.4659,-0.3872,-0.3842,-0.4414,0.0,0.0,0.0,0.0,0.0,0.0,0.0,0.0,0.0,0.0,0.0,0.0,0.0,0.0,0.0,0.0,0.0,0.0,0.0,0.0,0.0,0.0,0.0,0.0,0.0,0.0,0.0,0.0,0.0,0.0,0.0,0.0,0.0,0.0,0.0,0.0,0.0,0.0,0.0,0.0,0.0,0.0,0.0,0.0,0.0,0.0,0.0,0.0,0.0,0.0,0.0,0.0,0.0,0.0,0.0,0.0,0.0,0.0,0.0,0.0,0.0,0.0,0.0,0.0,0.0,0.0,0.0,0.0,0.0,0.0,-0.3816,-0.2931,0.0,0.0,0.0,0.0,0.0,0.0,0.0,0.0,0.0,0.0,0.0,0.0,0.0,0.0,0.0,0.0,0.0,0.0,0.0,0.0,0.0,-0.4862,-0.5065,-0.5181,-0.5199,-0.507,-0.5134,-0.5134,-0.5024,-0.4856,0.0,0.0,0.0,0.0,-0.4976,-0.5253,-0.5457,-0.5455,-0.5438,-0.4989,-0.4177,-0.3725,-0.401,-0.4809,-0.4233,0.0,0.0,0.0,0.0,0.0,0.0,0.0,0.0,0.0,0.0,0.0,0.0,0.0,0.0,0.0,0.0,0.0,0.0,0.0,0.0,0.0,0.0,0.0,0.0,0.0,0.0,0.0,0.0,0.0,0.0,0.0,0.0,0.0,0.0,0.0,0.0,0.0,0.0,0.0,0.0,0.0,0.0,0.0,0.0,0.0,0.0,0.0,0.0,0.0,0.0,0.0,0.0,0.0,0.0,0.0,0.0,0.0,0.0,0.0,0.0,0.0,0.0,0.0,-0.2202,-0.2033,-0.2033,-0.2675,-0.3951,-0.5585,-0.3495,-0.1652,-0.0208,-0.3186,0.0,0.0,0.0,0.0,0.0,0.0,0.0,0.0,0.0,0.0,0.0,0.0,0.0,0.0,0.0,0.0,0.0,0.0,0.0,-0.5094,-0.5481,-0.5307,-0.5164,-0.5349,-0.4875,-0.4738,-0.5081,-0.4956,0.0,0.0,0.0,0.0,-0.5967,-0.5185,-0.5344,-0.6594,-0.5933,-0.527,-0.4391,-0.3484,-0.3179,-0.3347,-0.3546,-0.3573,-0.3619,0.0,0.0,0.0,0.0,0.0,0.0,0.0,0.0,0.0,0.0,0.0,0.0,0.0,0.0,0.0,0.0,0.0,0.0,0.0,0.0,0.0,0.0,0.0,0.0,0.0,0.0,0.0,0.0,0.0,0.0,0.0,0.0,0.0,0.0,0.0,0.0,0.0,0.0,0.0,0.0,0.0,-0.4722,-0.44,0.0,0.0,0.0,0.0,0.0,0.0,0.0,0.0,0.0,0.0,0.0,0.0,0.0,-0.3494,-0.5787,-0.5243,-0.4867,-0.4536,-0.1645,-0.0363,-0.0363,-0.2055,-0.3886,-0.5628,-0.4958,0.0,-0.0,-0.0545,0.0,0.0,0.0,0.0,0.0,0.0,0.0,0.0,0.0,0.0,0.0,0.0,0.0,0.0,0.0,0.0,0.0,0.0,0.0,0.0,0.0,-0.5345,-0.5314,-0.5568,-0.5337,-0.5161,-0.5225,-0.4964,0.0,0.0,0.0,-0.4967,-0.5482,-0.5116,-0.5266,-0.5975,-0.5225,-0.4747,-0.4446,-0.3214,-0.2596,-0.2609,-0.2134,-0.2037,-0.2141,-0.2213,0.0,0.0,0.0,0.0,0.0,0.0,0.0,0.0,0.0,0.0,0.0,0.0,0.0,0.0,0.0,0.0,0.0,0.0,0.0,0.0,0.0,0.0,0.0,0.0,0.0,0.0,0.0,0.0,0.0,0.0,0.0,0.0,0.0,0.0,0.0,0.0,0.0,0.0,0.0,-0.4879,-0.4884,-0.4942,-0.4363,-0.4233,0.0,0.0,0.0,0.0,0.0,0.0,0.0,0.0,0.0,-0.4958,-0.4661,-0.3898,-0.2606,-0.5268,-0.5108,-0.2135,-0.0731,0.0,-0.0,-0.0864,-0.173,-0.2471,-0.2224,-0.1333,0.0,0.0,-0.0986,-0.2579,0.0,0.0,0.0,0.0,-0.4901,-0.4187,0.0,0.0,0.0,0.0,0.0,0.0,0.0,0.0,0.0,0.0,0.0,0.0,-0.5462,-0.5417,-0.5467,-0.5725,-0.557,-0.5458,-0.5379,-0.504,-0.4807,-0.4755,-0.4712,-0.4841,-0.5147,-0.5356,-0.5273,-0.4963,-0.4471,-0.4095,-0.381,-0.2528,-0.1859,-0.151,-0.0567,-0.0417,-0.1,-0.1061,-0.1511,-0.218,0.0,0.0,0.0,0.0,0.0,0.0,0.0,0.0,0.0,0.0,0.0,0.0,0.0,0.0,0.0,0.0,0.0,0.0,0.0,0.0,0.0,0.0,0.0,0.0,0.0,0.0,0.0,0.0,0.0,0.0,0.0,0.0,0.0,0.0,0.0,0.0,0.0,-0.5155,-0.5116,-0.4746,-0.435,-0.4393,0.0,0.0,0.0,0.0,0.0,0.0,-0.654,-0.6524,-0.6129,-0.5268,-0.6217,-0.5311,-0.2106,-0.6093,-0.5986,-0.1999,-0.0626,0.0,0.0,0.0,0.0,0.0,0.0,0.0,0.0,0.0,0.0,-0.0337,-0.3137,-0.4454,-0.4845,-0.5426,-0.4855,-0.3853,0.0,0.0,0.0,0.0,0.0,0.0,0.0,0.0,0.0,0.0,0.0,-0.5663,-0.5611,-0.5506,-0.5601,-0.5739,-0.5179,-0.5035,-0.547,-0.5149,-0.518,-0.556,-0.5034,-0.51,-0.5802,-0.5887,-0.5326,-0.3927,-0.4361,-0.3692,-0.2241,-0.1348,-0.0562,0.0337,0.1234,0.0781,-0.0771,-0.091,-0.096,-0.1024,-0.2299,0.0,0.0,0.0,0.0,0.0,0.0,0.0,0.0,0.0,0.0,0.0,0.0,0.0,0.0,0.0,0.0,0.0,0.0,0.0,0.0,0.0,0.0,0.0,0.0,0.0,0.0,0.0,0.0,0.0,0.0,0.0,0.0,0.0,0.0,0.0,0.0,0.0,0.0,-0.2938,-0.4368,0.0,0.0,0.0,0.0,-0.6294,-0.6642,-0.694,-0.7166,-0.6863,-0.7026,-0.7739,-0.7777,-0.7846,-0.7828,-0.8352,-0.816,-0.7493,-0.2346,0.0,0.0,0.0,0.0,0.0,0.0,0.0,0.0,0.0,0.0,-0.0,-0.0229,-0.1456,-0.3275,-0.5092,-0.5907,-0.5663,0.0,0.0,0.0,-0.2921,-0.2909,-0.3027,-0.3376,-0.3432,-0.3678,-0.4411,-0.4624,-0.4919,-0.5448,-0.5502,-0.5502,-0.5712,-0.5521,-0.5377,-0.5465,-0.5189,-0.5087,-0.5312,-0.4971,-0.4865,-0.5092,-0.4839,-0.4389,-0.3833,-0.4017,-0.3391,-0.2266,-0.1432,-0.048,0.0484,0.1424,0.153,0.0937,0.0871,0.0414,-0.03,-0.0654,-0.1457,0.0,0.0,0.0,0.0,0.0,0.0,0.0,0.0,0.0,0.0,0.0,0.0,0.0,0.0,0.0,0.0,0.0,0.0,0.0,0.0,0.0,0.0,0.0,0.0,0.0,0.0,0.0,0.0,0.0,0.0,0.0,0.0,0.0,0.0,0.0,0.0,0.0,-0.3008,-0.4755,0.0,-0.4013,-0.5563,-0.6155,-0.5259,-0.6601,-0.7562,-0.7691,-0.758,-0.6832,-0.5397,-0.6974,-0.7946,-0.8055,-0.8459,-0.8579,-0.8285,-0.6189,-0.3279,0.0,0.0,0.0,0.0,0.0,0.0,0.0,0.0,0.0,0.0,0.0,-0.038,-0.113,-0.1779,-0.2176,-0.2061,0.0,0.0,0.0,-0.2909,-0.2909,-0.3083,-0.3625,-0.3495,-0.3721,-0.4734,-0.4683,-0.481,-0.5431,-0.5499,-0.5616,-0.5773,-0.5828,-0.5817,-0.5735,-0.5436,-0.5273,-0.5306,-0.4991,-0.466,-0.4402,-0.4205,-0.3746,-0.3296,-0.3315,-0.2639,-0.1346,-0.0738,0.0124,0.1001,0.1586,0.1937,0.194,0.1839,0.144,0.0648,0.0309,-0.0479,-0.1496,0.0,0.0,0.0,0.0,0.0,0.0,0.0,0.0,0.0,0.0,0.0,0.0,0.0,0.0,0.0,0.0,0.0,0.0,0.0,0.0,0.0,0.0,0.0,0.0,0.0,0.0,0.0,0.0,0.0,0.0,0.0,0.0,0.0,0.0,-0.4702,-0.448,-0.307,-0.3684,-0.4214,-0.4134,-0.4468,-0.4983,-0.5574,-0.7035,-0.787,-0.7944,-0.7949,-0.7112,-0.5267,-0.5274,-0.5182,-0.5252,-0.5552,-0.6644,-0.8531,-0.8288,-0.5272,0.0,0.0,0.0,0.0,0.0,0.0,0.0,0.0,0.0,0.0,0.0,0.0,0.0,0.0,0.0,0.0,0.0,0.0,-0.2909,-0.2909,-0.2915,-0.3095,-0.3631,-0.3906,-0.4249,-0.4753,-0.5173,-0.5431,-0.5416,-0.5687,-0.5904,-0.5904,-0.6018,-0.6089,-0.6089,-0.5871,-0.5604,-0.5497,-0.5089,-0.4574,-0.4056,-0.4195,-0.3651,-0.2358,-0.2156,-0.1207,0.0604,0.0613,0.1112,0.1979,0.1949,0.1952,0.1975,0.1915,0.1889,0.1762,0.0659,0.0211,0.0205,0.0,0.0,0.0,0.0,0.0,0.0,0.0,0.0,0.0,0.0,0.0,0.0,0.0,0.0,0.0,0.0,0.0,0.0,0.0,0.0,0.0,0.0,0.0,0.0,0.0,0.0,0.0,0.0,0.0,0.0,0.0,0.0,0.0,-0.284,-0.3926,-0.4315,-0.2936,-0.1156,-0.1689,-0.5786,-0.254,-0.2274,-0.7219,-0.7682,-0.7807,-0.7939,-0.7944,-0.7817,-0.769,-0.2643,0.0,0.0,0.0,-0.2771,-0.8318,-0.8272,-0.5438,0.0,0.0,0.0,0.0,0.0,0.0,0.0,0.0,0.0,0.0,0.0,0.0,0.0,0.0,0.0,0.0,-0.2909,-0.2909,-0.2909,-0.2909,-0.2941,-0.318,-0.3739,-0.3795,-0.4047,-0.4829,-0.4944,-0.5123,-0.5328,-0.5687,-0.5904,-0.5904,-0.6094,-0.6219,-0.6219,-0.5712,-0.5218,-0.4932,-0.4698,-0.4557,-0.4545,-0.3411,-0.2641,-0.2354,-0.1616,-0.063,0.0643,0.0639,0.1153,0.2072,0.2041,0.2033,0.2037,0.1999,0.1982,0.1974,0.1523,0.1111,0.0632,0.0,0.0,0.0,0.0,0.0,0.0,0.0,0.0,0.0,0.0,0.0,0.0,0.0,0.0,0.0,0.0,0.0,0.0,0.0,0.0,0.0,0.0,0.0,0.0,0.0,0.0,0.0,0.0,0.0,0.0,0.0,-0.4797,-0.552,-0.4942,-0.2803,-0.1198,-0.0827,-0.0367,-0.05,-0.1618,-0.2428,-0.2612,-0.2244,-0.3993,-0.5781,-0.7767,-0.7912,-0.6183,-0.2238,-0.07,0.0,0.0,0.0,-0.0858,-0.242,-0.2428,-0.1565,0.0,0.0,0.0,0.0,0.0,0.0,0.0,0.0,0.0,0.0,0.0,0.0,0.0,0.0,0.0,0.0,-0.2909,-0.2909,-0.2909,-0.2909,-0.2968,-0.3184,-0.3797,-0.3791,-0.4022,-0.4981,-0.5006,-0.5067,-0.5474,-0.5795,-0.598,-0.598,-0.6198,-0.6219,-0.5981,-0.5413,-0.4856,-0.4676,-0.4477,-0.4432,-0.4457,-0.3052,-0.2107,-0.1766,-0.0766,0.0259,0.1186,0.1315,0.1583,0.2127,0.2097,0.2083,0.208,0.205,0.203,0.2014,0.1962,0.1649,0.1234,0.0878,0.0316,-0.0501,-0.0783,-0.1062,-0.1531,-0.2557,0.0,0.0,0.0,0.0,0.0,0.0,0.0,0.0,0.0,0.0,0.0,0.0,0.0,0.0,0.0,0.0,0.0,0.0,0.0,0.0,0.0,0.0,0.0,0.0,-0.5031,-0.5196,-0.3597,-0.1348,0.0,0.0,0.0,0.0,0.0,-0.1313,-0.1598,-0.0134,-0.1366,-0.2909,-0.4474,-0.4617,-0.3239,-0.0143,0.0,0.0,0.0,0.0,0.0,0.0,0.0,0.0,0.0,0.0,0.0,0.0,0.0,0.0,0.0,0.0,0.0,0.0,0.0,0.0,0.0,0.0,0.0,0.0,-0.2909,-0.2909,-0.2909,-0.2909,-0.2979,-0.3201,-0.3748,-0.3808,-0.417,-0.5139,-0.5092,-0.5197,-0.5681,-0.5931,-0.6078,-0.6105,-0.6323,-0.6226,-0.5565,-0.5056,-0.4559,-0.4465,-0.4386,-0.4112,-0.3756,-0.2742,-0.1773,-0.0762,0.0261,0.119,0.212,0.2143,0.2155,0.2154,0.2127,0.2114,0.2112,0.2082,0.2053,0.2029,0.2022,0.1984,0.1922,0.184,0.1129,0.0224,0.0107,-0.0521,-0.1334,-0.1614,0.0,0.0,0.0,0.0,0.0,0.0,0.0,0.0,0.0,0.0,0.0,0.0,0.0,0.0,0.0,0.0,0.0,0.0,0.0,0.0,0.0,0.0,0.0,0.0,-0.5425,-0.3858,-0.0509,0.0,0.0,0.0,0.0,0.0,0.0,0.0,0.0,0.0,0.0,0.0,0.0,0.0,0.0,0.0,0.0,0.0,0.0,0.0,0.0,0.0,0.0,0.0,0.0,0.0,0.0,0.0,0.0,0.0,0.0,0.0,0.0,0.0,0.0,0.0,0.0,0.0,0.0,0.0,-0.2909,-0.2909,-0.2909,-0.2909,-0.3044,-0.3191,-0.3313,-0.366,-0.4083,-0.4731,-0.4941,-0.5197,-0.5681,-0.5855,-0.6018,-0.6219,-0.6448,-0.6241,-0.5443,-0.4848,-0.4292,-0.3905,-0.3937,-0.3561,-0.2751,-0.1655,-0.0649,0.0399,0.1337,0.2023,0.2183,0.2163,0.2155,0.2154,0.2148,0.2146,0.2144,0.2113,0.2097,0.2087,0.2038,0.1984,0.1929,0.1911,0.1771,0.1515,0.1501,0.139,0.105,-0.0348,-0.0568,-0.0554,-0.1884,-0.215,0.0,0.0,0.0,0.0,0.0,0.0,0.0,0.0,0.0,0.0,0.0,0.0,0.0,0.0,0.0,0.0,0.0,0.0,0.0,-0.6217,-0.3341,-0.0894,-0.013,0.0,0.0,0.0,0.0,0.0,0.0,0.0,0.0,0.0,0.0,0.0,0.0,0.0,0.0,0.0,0.0,0.0,0.0,0.0,0.0,0.0,0.0,0.0,0.0,0.0,0.0,0.0,0.0,0.0,0.0,0.0,0.0,0.0,0.0,0.0,0.0,0.0,0.0,0.0,-0.2909,-0.2909,-0.2909,-0.2909,-0.3061,-0.3197,-0.3093,-0.3539,-0.3974,-0.4338,-0.4648,-0.4974,-0.5339,-0.5638,-0.5817,-0.5817,-0.5666,-0.5412,-0.5218,-0.4024,-0.3222,-0.3094,-0.268,-0.2236,-0.1639,-0.064,0.0131,0.0673,0.175,0.217,0.2199,0.2169,0.2155,0.2155,0.2155,0.2155,0.2154,0.2139,0.2123,0.2106,0.2076,0.2037,0.1994,0.1964,0.1944,0.1929,0.1914,0.1918,0.1807,0.0955,0.0824,0.0814,0.0,-0.0114,-0.0111,0.0,0.0,0.0,0.0,0.0,0.0,0.0,0.0,0.0,0.0,0.0,0.0,0.0,0.0,-0.4903,-0.6161,0.0,-0.5726,-0.3611,-0.1408,0.0,0.0,0.0,0.0,0.0,0.0,0.0,0.0,0.0,0.0,0.0,0.0,0.0,0.0,0.0,0.0,0.0,0.0,0.0,0.0,0.0,0.0,0.0,0.0,0.0,0.0,0.0,0.0,0.0,0.0,0.0,0.0,0.0,0.0,0.0,0.0,0.0,0.0,0.0,0.0,0.0,-0.2909,-0.2909,-0.2909,-0.2909,-0.3061,-0.3186,-0.3045,-0.3463,-0.3903,-0.4083,-0.4409,-0.4719,-0.4985,-0.536,-0.5551,-0.5447,-0.489,-0.4726,-0.5021,-0.3243,-0.2206,-0.246,-0.148,-0.0869,-0.063,0.0128,0.0785,0.0943,0.175,0.217,0.2199,0.2169,0.2155,0.2155,0.2155,0.2155,0.2155,0.2155,0.214,0.2117,0.2112,0.2094,0.2067,0.2014,0.199,0.1981,0.1956,0.1945,0.1936,0.1911,0.1907,0.1911,0.1911,0.1915,0.1784,0.0681,0.0227,0.0,0.0,0.0,0.0,0.0,0.0,0.0,0.0,-0.221,-0.2363,-0.2295,-0.2339,-0.2874,-0.4833,-0.5515,-0.4563,-0.0649,0.0,0.0,0.0,0.0278,0.0421,0.0418,0.014,0.0,0.0,0.0,0.0,0.0,0.0,0.0,0.0,0.0,0.0,0.0,0.0,0.0,0.0,0.0,0.0,0.0,0.0,0.0,0.0,0.0,0.0,0.0,0.0,0.0,0.0,0.0,0.0,0.0,0.0,0.0,0.0,0.0,0.0,0.0,-0.2909,-0.2909,-0.2909,-0.2909,-0.3061,-0.3213,-0.3202,-0.3512,-0.3903,-0.4083,-0.4333,-0.4626,-0.498,-0.5067,-0.5257,-0.5659,-0.5156,-0.4837,-0.5115,-0.3334,-0.2379,-0.2464,-0.148,-0.0621,0.0378,0.0512,0.1046,0.2019,0.2154,0.217,0.2199,0.2169,0.2155,0.2155,0.2155,0.2155,0.2155,0.2155,0.2153,0.2147,0.212,0.2108,0.2101,0.2067,0.2037,0.2014,0.2009,0.1993,0.1971,0.1967,0.1982,0.2004,0.2004,0.2022,0.2031,0.1969,0.1779,0.1028,-0.2004,-0.1735,-0.0647,-0.0343,0.0225,0.0676,0.0,0.0125,-0.0369,-0.0379,-0.026,-0.0395,-0.0645,-0.0787,-0.0667,-0.0134,0.0,0.0,0.0,0.1141,0.2008,0.2028,0.0862,0.0,0.0,0.0,0.0,0.0,0.0,0.0,0.0,0.0,0.0,0.0,0.0,0.0,0.0,0.0,0.0,0.0,0.0,0.0,0.0,0.0,0.0,0.0,0.0,0.0,0.0,0.0,0.0,0.0,0.0,0.0,0.0,0.0,0.0,0.0,-0.2909,-0.2909,-0.2909,-0.2909,-0.3061,-0.3197,-0.3083,-0.3425,-0.3691,-0.3795,-0.4072,-0.4295,-0.4376,-0.4572,-0.492,-0.5474,-0.441,-0.4021,-0.4833,-0.2241,-0.0942,-0.158,-0.0122,0.0862,0.1386,0.1408,0.17,0.2155,0.2155,0.217,0.2199,0.2169,0.2155,0.2155,0.2155,0.2155,0.2155,0.2155,0.2155,0.2154,0.214,0.2125,0.2108,0.2095,0.206,0.202,0.2038,0.2015,0.0,0.1996,0.1997,0.1994,0.1994,0.2014,0.203,0.1989,0.1986,0.1495,-0.1236,-0.0482,0.0948,0.1218,0.1469,0.1733,0.1677,0.1178,0.066,0.0668,0.027,0.0,0.0,0.0,0.0,0.0,0.0698,0.1272,0.1286,0.1585,0.1886,0.2189,0.1743,0.1016,0.0146,0.0,0.0,0.0,0.0,0.0,0.0,0.0,0.0,0.0,0.0,0.0,0.0,0.0,0.0,0.0,0.0,0.0,0.0,0.0,0.0,0.0,0.0,0.0,0.0,0.0,0.0,0.0,0.0,0.0,0.0,0.0,0.0,0.0,-0.2919,-0.2919,-0.2919,-0.2919,-0.311,-0.3218,-0.3024,-0.3354,-0.3561,-0.349,-0.3767,-0.3947,-0.3892,-0.4295,-0.473,-0.5137,-0.4162,-0.3725,-0.4214,-0.1628,-0.0231,-0.0481,0.1085,0.1955,0.2005,0.2035,0.2074,0.2117,0.2133,0.2153,0.2174,0.2161,0.2155,0.2155,0.2155,0.2155,0.2154,0.2146,0.2147,0.2153,0.2136,0.2121,0.2108,0.2099,0.2064,0.2022,0.2044,0.2019,0.1977,0.1981,0.1985,0.1985,0.1969,0.1994,0.2029,0.2016,0.1672,0.092,-0.0,0.0516,0.1405,0.1925,0.2095,0.2261,0.2238,0.189,0.1519,0.1514,0.1103,0.0555,0.014,0.0,0.014,0.0567,0.1578,0.2316,0.2316,0.1891,0.1752,0.2191,0.2337,0.1903,0.0737,0.0293,0.0,0.0,0.0,0.0,0.0,0.0,0.0,0.0,0.0,0.0,0.0,0.0,0.0,0.0,0.0,0.0,0.0,0.0,0.0,0.0,0.0,0.0,0.0,0.0,0.0,0.0,0.0,0.0,0.0,0.0,0.0,0.0,-0.2997,-0.2997,-0.2997,-0.2997,-0.324,-0.3316,-0.3035,-0.3354,-0.3496,-0.3262,-0.3447,-0.3642,-0.3804,-0.4398,-0.4784,-0.4759,-0.4743,-0.4358,-0.3307,-0.2015,-0.0788,0.036,0.1326,0.1945,0.1977,0.2005,0.202,0.2023,0.2082,0.211,0.2113,0.2142,0.2155,0.2155,0.2155,0.2155,0.2153,0.2123,0.2128,0.215,0.209,0.2083,0.2106,0.2076,0.2046,0.2019,0.2019,0.2001,0.1967,0.191,0.1947,0.2007,0.1951,0.1992,0.2068,0.2097,0.0526,-0.0654,0.1399,0.0901,0.0132,0.174,0.2174,0.2196,0.2333,0.2221,0.2236,0.2206,0.2223,0.1823,0.0281,0.0,0.0583,0.2187,0.2358,0.223,0.223,0.2354,0.2337,0.2337,0.2337,0.2211,0.2265,0.0888,0.0,0.0,0.0,0.0,0.0,0.0,0.0,0.0,0.0,0.0,0.0,0.0,0.0,0.0,0.0,0.0,0.0,0.0,0.0,0.0,0.0,0.0,0.0,0.0,0.0,0.0,0.0,0.0,0.0,0.0,0.0,0.0,-0.2869,-0.3017,-0.3115,-0.3115,-0.3294,-0.3349,-0.3136,-0.3333,-0.3436,-0.3349,-0.355,0.0,0.0,0.0,0.0,0.0,-0.4207,-0.3946,-0.436,-0.1951,-0.0657,-0.0916,0.0939,0.1915,0.1945,0.1993,0.2019,0.2019,0.206,0.2079,0.2079,0.209,0.2094,0.2094,0.2094,0.2094,0.2094,0.2083,0.2086,0.2093,0.2072,0.2059,0.2052,0.2082,0.2026,0.1936,0.0,0.1971,0.194,0.1899,0.1906,0.1926,0.1907,0.1922,0.1963,0.2181,0.158,0.1205,0.2028,0.1761,0.1496,0.2069,0.2222,0.224,0.2279,0.2312,0.2337,0.2346,0.2357,0.2067,0.1624,0.1648,0.1515,0.0909,0.1672,0.2439,0.2286,0.1946,0.1784,0.2267,0.2256,0.2266,0.2324,0.0911,0.0,0.0,0.0,0.0,0.0,0.0,0.0,0.0,0.0,0.0,0.0,0.0,0.0,0.0,0.0,0.0,0.0,0.0,0.0,0.0,0.0,0.0,0.0,0.0,0.0,0.0,0.0,0.0,0.0,0.0,0.0,0.0,-0.2875,-0.308,-0.3284,-0.3284,-0.3387,0.0,0.0,0.0,0.0,0.0,0.0,0.0,0.0,0.0,0.0,0.0,0.0,-0.4034,-0.4455,-0.2533,-0.1453,-0.1535,-0.0,0.0911,0.1049,0.1065,0.1321,0.1588,0.1613,0.1764,0.2048,0.2069,0.208,0.208,0.208,0.208,0.2079,0.2068,0.2083,0.2108,0.2054,0.2034,0.2033,0.2019,0.194,0.0,0.1869,0.1866,0.1847,0.1827,0.1842,0.1868,0.1857,0.1904,0.1981,0.2186,0.2131,0.22,0.226,0.2262,0.2258,0.2298,0.2309,0.2319,0.2357,0.238,0.2399,0.242,0.2414,0.2257,0.1956,0.2288,0.216,0.108,0.1399,0.1719,0.2345,0.1851,0.1536,0.156,0.2026,0.204,0.1608,0.1108,0.0628,0.0,0.0,0.0,0.0,0.0,0.033,0.0989,0.0334,0.0,0.0,0.0,0.0,0.0,0.0689,0.1037,0.1043,0.0348,0.0,0.0,0.0,0.0,0.0,0.0,0.0,0.0,0.0,0.0,0.0,0.0,0.0,0.0,-0.298,-0.3197,-0.3409,0.0,0.0,0.0,0.0,0.0,0.0,0.0,0.0,0.0,0.0,0.0,0.0,0.0,0.0,0.0,-0.3629,-0.3636,-0.2978,-0.1474,-0.125,-0.1051,-0.0545,-0.043,-0.0,0.0687,0.0815,0.1201,0.188,0.2065,0.2094,0.2095,0.2095,0.2097,0.2095,0.2065,0.2102,0.2169,0.2023,0.2,0.2035,0.1894,0.1802,0.1744,0.1718,0.1705,0.1703,0.1705,0.1768,0.184,0.181,0.1943,0.2108,0.211,0.2176,0.226,0.2319,0.2337,0.2352,0.2409,0.2424,0.2424,0.2425,0.2425,0.2425,0.2425,0.2402,0.2232,0.1339,0.1821,0.2316,0.2473,0.1261,0.0641,0.2085,0.2243,0.1602,0.016,0.1296,0.1645,0.0337,0.1671,0.1975,0.0322,0.0162,0.0,0.0,0.0,0.0842,0.2529,0.1011,0.0169,0.0,0.0,0.0,0.0174,0.1915,0.2787,0.2788,0.1045,0.0174,0.0,0.0,0.0,0.0,0.0,0.0,0.0,0.0,0.0,0.0,0.0,0.0,0.0,0.0,0.0,0.0,0.0,0.0,0.0,0.0,0.0,0.0,0.0,0.0,0.0,0.0,0.0,0.0,0.0,0.0,0.0,-0.4806,-0.4027,-0.3421,-0.322,-0.2102,-0.1434,-0.1049,-0.0953,-0.075,-0.0109,0.0442,0.0786,0.1023,0.1625,0.1887,0.1909,0.1909,0.1921,0.194,0.191,0.1911,0.1925,0.184,0.1829,0.1862,0.1846,0.1789,0.172,0.1759,0.1729,0.168,0.1723,0.1813,0.1907,0.1899,0.1978,0.2084,0.2129,0.2207,0.2292,0.235,0.2383,0.2403,0.242,0.2424,0.2429,0.2453,0.2458,0.2458,0.2458,0.2433,0.2412,0.2261,0.1374,0.0621,0.0632,0.1444,0.163,0.0829,0.0655,0.0491,0.0,0.0335,0.101,0.2067,0.2582,0.2572,0.2045,0.1345,0.1002,0.1005,0.1008,0.1182,0.1703,0.2045,0.172,0.1051,0.1052,0.1057,0.1069,0.159,0.2122,0.2851,0.2316,0.1425,0.0,0.0,0.0,0.0,0.0,0.0,0.0,0.0,0.0,0.0,0.0,0.0,0.0,0.0,0.0,0.0,0.0,0.0,0.0,0.0,0.0,0.0,0.0,0.0,0.0,0.0,0.0,0.0,0.0,0.0,0.0,0.0,-0.4472,-0.4157,-0.4191,-0.3424,-0.2836,-0.2529,-0.2243,-0.1887,-0.1233,-0.0623,-0.0106,0.0216,0.099,0.1337,0.135,0.1688,0.181,0.1825,0.1808,0.1816,0.0,0.0,0.1756,0.1791,0.1756,0.1701,0.1652,0.17,0.1727,0.1748,0.1794,0.1873,0.1951,0.1951,0.203,0.2131,0.2165,0.2248,0.2339,0.2386,0.242,0.2447,0.2461,0.2463,0.2465,0.2469,0.2458,0.2442,0.2565,0.2237,0.2066,0.2494,0.106,0.0,0.0,0.0813,0.117,0.0169,0.0,0.0,0.0,0.0694,0.1742,0.2819,0.2811,0.2803,0.2803,0.2241,0.1874,0.1864,0.1873,0.205,0.2053,0.2579,0.2606,0.2121,0.2131,0.2142,0.1975,0.2142,0.2322,0.2874,0.2874,0.2156,0.0718,0.018,0.0,0.0,0.0,0.0,0.0,0.0,0.0,0.0,0.0,0.0,0.0,0.0,0.0,0.0,0.0,0.0,0.0,0.0,0.0,0.0,-0.3284,-0.3474,-0.3702,-0.3958,-0.417,0.0,0.0,0.0,0.0,0.0,0.0,-0.4883,-0.4784,-0.4708,-0.4587,-0.4259,-0.3751,-0.3138,-0.25,-0.1934,-0.1293,-0.0522,0.0213,0.0538,0.0539,0.1295,0.1621,0.1623,0.1727,0.1756,0.1797,0.171,0.1708,0.1748,0.0,0.1584,0.157,0.1609,0.1716,0.1844,0.1876,0.1934,0.1993,0.1989,0.2089,0.2206,0.2206,0.229,0.239,0.2416,0.2451,0.2487,0.2508,0.2518,0.2511,0.2477,0.2443,0.2401,0.2485,0.1726,0.1278,0.2109,0.1039,0.0,0.0,0.0,0.0,0.0,0.0,0.0,0.0,0.1784,0.2874,0.2874,0.2851,0.2834,0.2834,0.281,0.278,0.2746,0.2769,0.2773,0.2751,0.278,0.2984,0.2834,0.286,0.2874,0.2874,0.2874,0.2874,0.2874,0.2874,0.2515,0.1975,0.0898,0.0359,0.018,0.0,0.0,0.0,0.0,0.0,0.0,0.0,0.0,0.0,0.0,0.0,0.0,0.0,0.0,0.0,0.0,0.0,0.0,0.0,-0.3754,-0.3854,0.0,0.0,0.0,0.0,0.0,0.0,0.0,0.0,0.0,-0.4941,-0.493,-0.4869,-0.4582,-0.4143,-0.3655,-0.3111,-0.2151,-0.165,-0.1483,-0.0673,-0.0394,-0.03,0.04,0.0707,0.0716,0.1411,0.1609,0.1613,0.1546,0.154,0.1568,0.1521,0.0,0.0,0.1625,0.1734,0.1844,0.1876,0.1975,0.2082,0.2057,0.2136,0.2237,0.2237,0.2322,0.2417,0.2423,0.2482,0.254,0.2519,0.2533,0.2537,0.2481,0.2427,0.2369,0.2311,0.1268,0.0278,0.042,0.0143,0.0,0.0,0.0,0.0,0.0,0.0,0.0,0.0,0.1784,0.2874,0.2874,0.287,0.2866,0.2866,0.2861,0.2834,0.2778,0.2781,0.2792,0.2812,0.2842,0.286,0.2866,0.2871,0.2874,0.2874,0.2874,0.2874,0.2874,0.2874,0.2874,0.2694,0.2515,0.1975,0.1077,0.0359,0.0,0.0,0.0,0.0,0.0,0.0,0.0,0.0,0.0,0.0,0.0,0.0,0.0,0.0,0.0,-0.3588,-0.3789,-0.4338,-0.4463,-0.4447,-0.4317,-0.4355,-0.4365,0.0,0.0,0.0,0.0,0.0,0.0,-0.4822,-0.4887,-0.4851,-0.4859,-0.4426,-0.4064,-0.3692,0.0,-0.2428,-0.2172,-0.1506,-0.0989,-0.0635,0.0092,0.065,0.103,0.1312,0.1501,0.1498,0.1468,0.1475,0.1501,0.0,0.0,0.0,0.1652,0.1761,0.1869,0.1899,0.2009,0.2125,0.2079,0.2147,0.2248,0.2264,0.2342,0.2427,0.2443,0.2502,0.2552,0.2522,0.2537,0.2536,0.2443,0.2375,0.2161,0.1799,0.108,0.04,0.0134,0.0,0.0,0.0,0.0,0.0,0.0,0.086,0.1397,0.1588,0.2308,0.2856,0.2872,0.2874,0.2874,0.2874,0.2874,0.2855,0.281,0.2807,0.2821,0.2852,0.2867,0.2874,0.2874,0.2874,0.2874,0.2874,0.2874,0.2874,0.2874,0.2874,0.2874,0.2874,0.2874,0.2694,0.2156,0.1616,0.1257,0.0718,0.018,0.0,0.0,0.0,0.0,0.0,0.0,0.0,0.0,0.0,0.0,0.0,0.0,-0.3979,-0.4284,-0.5034,-0.5186,-0.5045,-0.4583,-0.4561,-0.4518,0.0,0.0,0.0,0.0,0.0,0.0,0.0,0.0,0.0,-0.4974,0.0,0.0,-0.4051,-0.3575,0.0,0.0,0.0,0.0,0.0,-0.0257,0.0431,0.095,0.1236,0.1426,0.0,0.0,0.1449,0.1471,0.0,0.0,0.0,0.0,0.1764,0.1872,0.1909,0.2016,0.2128,0.2087,0.2153,0.2251,0.2282,0.2353,0.2429,0.2453,0.2508,0.2555,0.253,0.2542,0.253,0.2414,0.2331,0.2105,0.1466,0.117,0.0643,0.013,0.0,0.0,0.0,0.0,0.0,0.0,0.1528,0.2778,0.2815,0.2825,0.2841,0.2871,0.2874,0.2874,0.2874,0.2874,0.2863,0.284,0.2838,0.2849,0.2874,0.2874,0.2874,0.2874,0.2874,0.2874,0.2874,0.2874,0.2874,0.2874,0.2874,0.2874,0.2874,0.2874,0.2874,0.2874,0.2874,0.2515,0.1616,0.0898,0.0359,0.0,0.0,0.0,0.0,0.0,0.0,0.0,0.0,0.0,0.0,0.0,-0.4121,-0.4567,-0.5309,-0.5415,-0.5333,-0.5279,-0.5089,-0.4828,0.0,0.0,0.0,0.0,0.0,0.0,0.0,0.0,0.0,0.0,0.0,0.0,-0.4335,-0.3626,0.0,0.0,0.0,0.0,0.0,0.0,-0.059,-0.0422,0.0863,0.0,0.0,0.0,0.0,0.0,0.0,0.0,0.0,0.0,0.1701,0.1812,0.187,0.1971,0.2076,0.2098,0.2169,0.2251,0.2282,0.2353,0.2424,0.2427,0.2492,0.2559,0.2556,0.2557,0.2534,0.244,0.2331,0.2222,0.1995,0.1032,0.0128,0.0,0.0,0.0,0.0,0.0,0.0,0.0,0.1508,0.2725,0.2955,0.2812,0.2841,0.2871,0.2874,0.2874,0.2874,0.2874,0.2872,0.287,0.287,0.2871,0.2874,0.2874,0.2874,0.2874,0.2874,0.2874,0.2874,0.2874,0.2874,0.2874,0.2874,0.2874,0.2874,0.2874,0.2874,0.2874,0.2874,0.2874,0.2694,0.2694,0.1616,0.0,0.0,0.0,0.0,0.0,0.0,0.0,0.0,0.0,0.0,-0.4186,-0.4338,-0.4708,-0.5551,-0.5616,-0.5561,-0.5485,-0.5393,-0.5105,-0.4518,0.0,0.0,0.0,0.0,0.0,0.0,0.0,0.0,0.0,0.0,-0.4578,-0.4384,-0.3876,0.0,0.0,0.0,0.0,0.0,0.0,-0.0508,-0.0,0.0951,0.0,0.0,0.0,0.0,0.0,0.0,0.0,0.0,0.0,0.0,0.1805,0.1865,0.1952,0.2042,0.2072,0.2144,0.2232,0.2297,0.2354,0.2413,0.2485,0.2544,0.2581,0.2564,0.2547,0.2504,0.2394,0.2277,0.217,0.2097,0.1654,0.1004,0.0128,0.0,0.0,0.0,0.0,0.0,0.0,0.1132,0.2163,0.2722,0.2755,0.28,0.2867,0.2874,0.2874,0.2874,0.2874,0.2874,0.2874,0.2874,0.2874,0.2874,0.2874,0.2874,0.2874,0.2874,0.2874,0.2874,0.2874,0.2874,0.2874,0.2874,0.2874,0.2874,0.2874,0.2874,0.2874,0.2874,0.2874,0.2874,0.2874,0.1976,0.0718,0.018,0.0,0.0,0.0,0.0,0.0,0.0,0.0,-0.3784,-0.4333,-0.448,-0.48,-0.5578,-0.5648,-0.5605,-0.547,-0.536,-0.504,-0.4567,-0.442,0.0,0.0,0.0,0.0,0.0,0.0,0.0,0.0,0.0,-0.4841,-0.4663,-0.4196,-0.3846,0.0,0.0,-0.2235,-0.1596,0.0,0.0,0.0,0.0,0.0,0.0,0.0,0.0,0.0,0.0,0.0,0.0,0.0,0.0,0.0,0.0,0.0,0.1999,0.2038,0.2101,0.2178,0.2278,0.2341,0.2399,0.2493,0.2541,0.2562,0.256,0.2523,0.2462,0.2368,0.2247,0.2138,0.2076,0.1892,0.1489,0.0756,0.0258,0.0,0.0,0.0,0.0,0.0,0.0944,0.1952,0.2672,0.2706,0.2757,0.284,0.2864,0.2874,0.2874,0.2874,0.2874,0.2874,0.2874,0.2874,0.2874,0.2874,0.2874,0.2874,0.2874,0.2874,0.2874,0.2874,0.2874,0.2874,0.2874,0.2874,0.2874,0.2874,0.2874,0.2874,0.2874,0.2874,0.2874,0.2874,0.2515,0.1616,0.0539,0.0,0.0,0.0,0.0,0.0,0.0,0.0,0.0,-0.4191,-0.4501,-0.4866,-0.5474,-0.5447,-0.542,-0.5454,-0.4909,-0.4529,-0.4715,-0.461,0.0,0.0,0.0,0.0,0.0,0.0,0.0,0.0,0.0,-0.4953,-0.5186,-0.4784,-0.4349,-0.3938,-0.2851,-0.2014,-0.1512,0.0,0.0,0.0,0.0,0.0,0.0,0.0,0.0,0.0,0.0,0.0,0.0,0.0,0.0,0.0,0.0,0.0,0.0,0.0,0.2039,0.2089,0.2211,0.2309,0.2386,0.2417,0.2447,0.2485,0.2545,0.2492,0.2416,0.2384,0.2262,0.2138,0.2076,0.1512,0.1241,0.189,0.0895,0.0,0.0,0.0,0.0,0.0,0.1403,0.2549,0.2474,0.2676,0.2717,0.2778,0.2838,0.2874,0.2874,0.2874,0.2874,0.2874,0.2874,0.2874,0.2874,0.2874,0.2874,0.2874,0.2874,0.2874,0.2874,0.2874,0.2874,0.2874,0.2874,0.2874,0.2874,0.2874,0.2874,0.2874,0.2874,0.2874,0.2874,0.2874,0.2874,0.2694,0.0718,0.0,0.0359,0.0,0.0,0.0,0.0,0.0,0.0,0.0,-0.4186,-0.4442,-0.4882,-0.4904,-0.4925,-0.5045,-0.4784,-0.4545,-0.4425,-0.4224,0.0,0.0,0.0,0.0,0.0,0.0,0.0,0.0,0.0,-0.5154,-0.5311,-0.4623,-0.4305,-0.4214,-0.2693,-0.1977,-0.1705,-0.0348,0.0347,0.0,0.0,0.0,0.0,0.0,0.0,0.0,0.0,0.0,0.0,0.0,0.0,0.0,0.0,0.0,0.0,0.0,0.0,0.0,0.2135,0.2217,0.2312,0.2424,0.2447,0.2443,0.2462,0.2414,0.2349,0.2298,0.2187,0.2087,0.2068,0.1512,0.0869,0.063,0.0256,0.0,0.0,0.0,0.0442,0.1534,0.1728,0.1927,0.2641,0.2748,0.2825,0.2844,0.2863,0.2874,0.2874,0.2874,0.2874,0.2874,0.2874,0.2874,0.2874,0.2874,0.2874,0.2874,0.2874,0.2874,0.2874,0.2874,0.2874,0.2874,0.2874,0.2874,0.2874,0.2874,0.2874,0.2874,0.2874,0.2874,0.2874,0.2874,0.2874,0.2874,0.2156,0.1616,0.1077,0.0,0.0,0.0,0.0,0.0,0.0,0.0,-0.3969,-0.4148,-0.4414,-0.4452,-0.4512,-0.4681,-0.4469,-0.4378,-0.43,-0.4034,0.0,0.0,0.0,0.0,0.0,0.0,0.0,-0.479,-0.505,-0.5333,-0.5638,-0.5155,-0.4855,-0.4638,-0.2897,-0.191,-0.1495,0.0091,0.0719,0.0,0.0,0.0,0.0,0.0,0.0,0.1437,0.0,0.0,0.0,0.0,0.0,0.0,0.0,0.0,0.0,0.0,0.0,0.0,0.0,0.2132,0.221,0.2361,0.2379,0.2358,0.2371,0.2328,0.227,0.2222,0.2125,0.2048,0.2048,0.1507,0.0743,0.0125,0.0,0.0131,0.0827,0.085,0.1317,0.2454,0.2189,0.2079,0.2653,0.2758,0.2831,0.2855,0.2857,0.2861,0.2874,0.2874,0.2874,0.2874,0.2874,0.2874,0.2874,0.2874,0.2874,0.2874,0.2874,0.2874,0.2874,0.2874,0.2874,0.2874,0.2874,0.2874,0.2874,0.2874,0.2874,0.0,0.2874,0.2874,0.2874,0.2874,0.2874,0.2874,0.2874,0.2515,0.1975,0.0,0.0,0.0,0.0,0.0,0.0,0.0,-0.3844,-0.3963,-0.4077,-0.4099,-0.4186,-0.4393,-0.4085,-0.3953,-0.423,0.0,0.0,0.0,0.0,0.0,0.0,0.0,0.0,-0.5012,-0.5143,-0.5502,-0.6083,-0.6121,-0.5723,-0.499,-0.3324,-0.2019,-0.0862,0.0765,0.1494,0.0,0.0,0.0,0.0,0.0,0.0,0.0,0.0,0.0,0.0,0.0,0.0,0.0,0.0,0.0,0.0,0.0,0.0,0.0,0.0,0.0,0.0,0.0,0.2255,0.2243,0.2271,0.2236,0.2185,0.2155,0.208,0.0,0.2148,0.1498,0.0742,0.0124,0.0127,0.065,0.1991,0.2202,0.2307,0.2765,0.2794,0.2698,0.2846,0.2727,0.2769,0.2823,0.283,0.2844,0.2872,0.2874,0.2874,0.2874,0.2874,0.2874,0.2874,0.2874,0.2874,0.2874,0.2874,0.2874,0.2874,0.2874,0.2874,0.2874,0.2874,0.2874,0.2874,0.2874,0.2874,0.2874,0.2874,0.2874,0.2874,0.2874,0.2874,0.2874,0.2874,0.2874,0.2874,0.0,0.0,0.0,0.0,0.0,0.0,0.0,0.0,0.0,0.0,-0.392,-0.3963,-0.3986,-0.3881,-0.3848,0.0,0.0,0.0,0.0,0.0,0.0,0.0,0.0,0.0,-0.5012,-0.5311,-0.567,-0.6083,-0.5952,-0.5679,-0.5074,-0.306,-0.17,-0.0994,0.0785,0.1515,0.0,0.0,0.0,0.0,0.0,0.0,0.0,0.0,0.0,0.0,0.1506,0.1554,0.0,0.0,0.0,0.0,0.0,0.0,0.0,0.0,0.1981,0.1985,0.2089,0.0,0.2143,0.215,0.214,0.2123,0.0,0.205,0.2019,0.2148,0.1498,0.0749,0.0129,0.0906,0.1596,0.1593,0.1467,0.18,0.2552,0.2631,0.2687,0.2722,0.2795,0.2838,0.2829,0.2849,0.2867,0.2874,0.2874,0.2874,0.2874,0.2874,0.2874,0.2874,0.2874,0.2874,0.2874,0.2874,0.2874,0.2874,0.2874,0.2874,0.2874,0.2874,0.2874,0.2874,0.2874,0.2874,0.2874,0.2874,0.2874,0.2874,0.2874,0.2874,0.2874,0.2874,0.2874,0.2874,0.0,0.0,0.0,0.0,0.0,0.0,0.0,0.0,0.0,0.0,0.0,-0.3746,-0.3738,-0.3732,0.0,0.0,0.0,0.0,0.0,0.0,0.0,0.0,0.0,-0.4942,-0.5175,-0.548,-0.586,-0.6328,-0.6334,-0.5976,-0.5314,-0.3395,-0.1966,-0.1019,0.0676,0.1482,0.0,0.0,0.0,0.0,0.1421,0.0,0.0,0.0,0.0,0.0,0.1504,0.1546,0.0,0.169,0.1765,0.1821,0.0,0.0,0.0,0.0,0.1924,0.1924,0.1986,0.2045,0.2089,0.2089,0.2089,0.208,0.205,0.202,0.2,0.2001,0.1615,0.1122,0.1029,0.1444,0.1759,0.1711,0.1775,0.2001,0.2425,0.268,0.2743,0.2757,0.2803,0.2837,0.2848,0.2852,0.2859,0.2872,0.2874,0.2874,0.2874,0.2874,0.2874,0.2874,0.2874,0.2874,0.2874,0.2874,0.2874,0.2874,0.2874,0.2874,0.2874,0.2874,0.2874,0.2874,0.2874,0.2874,0.2874,0.2874,0.2874,0.2874,0.2874,0.2874,0.2874,0.2874,0.2874,0.2874,0.0,0.0,0.0,0.0,0.0,0.0,0.0,0.0,0.0,0.0,0.0,0.0,0.0,0.0,0.0,0.0,0.0,0.0,0.0,0.0,0.0,0.0,-0.4768,-0.505,-0.5388,-0.5616,-0.6013,-0.6589,-0.6663,-0.6193,-0.5272,-0.3614,-0.2015,-0.0726,0.0757,0.1444,0.1433,0.0,0.0,0.0,0.1407,0.0,0.0,0.0,0.0,0.0,0.0,0.0,0.0,0.1686,0.1765,0.1824,0.185,0.0,0.0,0.0,0.0,0.0,0.1928,0.2003,0.2068,0.2054,0.2053,0.205,0.2024,0.2,0.1984,0.1989,0.1616,0.1503,0.2054,0.1737,0.1651,0.2208,0.2516,0.2677,0.2604,0.2686,0.2748,0.278,0.2788,0.2811,0.2861,0.2848,0.2846,0.2872,0.2874,0.2874,0.2874,0.2874,0.2874,0.2874,0.2874,0.2874,0.2874,0.2874,0.2874,0.2874,0.2874,0.2874,0.2874,0.2874,0.2874,0.2874,0.2874,0.2874,0.2874,0.2874,0.2874,0.2874,0.2874,0.2874,0.2874,0.2874,0.2874,0.2874,0.0,0.0,0.0,0.0,0.0,0.0,0.0,0.0,0.0,0.0,0.0,0.0,0.0,0.0,0.0,0.0,0.0,0.0,0.0,0.0,0.0,-0.4925,-0.5061,-0.5257,-0.5518,-0.5659,-0.5975,-0.6464,-0.6251,-0.5514,-0.4153,-0.2792,-0.0941,0.1269,0.1372,0.1483,0.1436,0.143,0.1431,0.1436,0.143,0.0,0.0,0.0,0.0,0.0,0.0,0.0,0.0,0.1584,0.1655,0.1726,0.1731,0.0,0.0,0.0,0.0,0.0,0.1947,0.2034,0.2084,0.2008,0.2008,0.2024,0.2019,0.2015,0.2019,0.2045,0.1666,0.1568,0.2225,0.2222,0.2258,0.2431,0.2529,0.2607,0.2669,0.2713,0.2748,0.278,0.2806,0.2826,0.2834,0.2855,0.287,0.2874,0.2874,0.2874,0.2874,0.2874,0.2874,0.2874,0.2874,0.2874,0.2874,0.2874,0.2874,0.2874,0.2874,0.2874,0.2874,0.2874,0.2874,0.2874,0.2874,0.2874,0.2874,0.2874,0.2874,0.2874,0.2874,0.2874,0.2874,0.2874,0.2874,0.2874,0.0,0.0,0.0,0.0,0.0,0.0,0.0,0.0,0.0,0.0,0.0,0.0,0.0,0.0,0.0,0.0,0.0,0.0,0.0,0.0,0.0,-0.5284,-0.5355,-0.5496,-0.5735,-0.5986,-0.6344,-0.6823,-0.6396,-0.5822,-0.4885,-0.2682,-0.0445,0.1652,0.1531,0.1461,0.1436,0.1436,0.1436,0.1436,0.0,0.0,0.0,0.0,0.0,0.0,0.0,0.0,0.0,0.0,0.163,0.1704,0.1704,0.0,0.0,0.0,0.0,0.0,0.1907,0.1981,0.2039,0.2046,0.2108,0.2165,0.2165,0.2153,0.214,0.2138,0.2004,0.1901,0.2292,0.2477,0.2409,0.2604,0.3431,0.3768,0.285,0.3566,0.3948,0.2953,0.281,0.2836,0.2852,0.2866,0.2874,0.2874,0.2874,0.2874,0.2874,0.2874,0.2874,0.2874,0.2874,0.2874,0.2874,0.2874,0.2874,0.2874,0.2874,0.2874,0.2874,0.2874,0.2874,0.2874,0.2874,0.2874,0.2874,0.2874,0.2874,0.2874,0.2874,0.2874,0.2874,0.2874,0.2874,0.2874,0.0,0.0,0.0,0.0,0.0,0.0,0.0,0.0,0.0,0.0,0.0,0.0,0.0,0.0,0.0,0.0,0.0,0.0,0.0,0.0,-0.4969,-0.5485,-0.5589,-0.5768,-0.6062,-0.6339,-0.661,-0.6974,-0.6188,-0.5422,-0.4321,-0.1804,0.0211,0.1622,0.1508,0.1449,0.1436,0.1436,0.1436,0.1436,0.0,0.0,0.0,0.0,0.0,0.0,0.0,0.0,0.0,0.0,0.0,0.0,0.0,0.0,0.0,0.1812,0.1805,0.182,0.1888,0.1951,0.202,0.2117,0.2195,0.2256,0.2285,0.2267,0.2247,0.2251,0.2258,0.2288,0.2519,0.2448,0.2545,0.2683,0.4305,0.4764,0.303,0.4757,0.5491,0.3659,0.3866,0.4077,0.4301,0.4305,0.4305,0.4305,0.4305,0.3947,0.359,0.359,0.3411,0.2874,0.2874,0.2874,0.2874,0.2874,0.2874,0.2874,0.2874,0.2874,0.2874,0.2874,0.2874,0.2874,0.2874,0.2874,0.2874,0.2874,0.2874,0.2874,0.2874,0.2874,0.2874,0.2874,0.2874,0.2874,0.0,0.0,0.0,0.0,0.0,0.0,0.0,0.0,0.0,0.0,0.0,0.0,0.0,0.0,0.0,0.0,0.0,0.0,0.0,0.0,-0.5105,-0.5371,-0.5703,-0.6094,-0.6556,-0.6594,-0.652,-0.6408,-0.4917,-0.2845,-0.0,0.1045,0.1633,0.1655,0.1561,0.1487,0.1436,0.1436,0.1436,0.1436,0.1436,0.0,0.0,0.0,0.0,0.0,0.0,0.0,0.0,0.0,0.0,0.0,0.0,0.0,0.184,0.1838,0.1838,0.1857,0.1945,0.2014,0.2086,0.2206,0.2178,0.2151,0.2264,0.2267,0.2277,0.2386,0.2429,0.2469,0.2532,0.257,0.2597,0.2609,0.4106,0.4657,0.2895,0.5798,0.7388,0.5621,0.7044,0.8136,0.8222,0.823,0.823,0.823,0.823,0.7338,0.5554,0.5554,0.4662,0.2874,0.2874,0.2874,0.2874,0.2874,0.2874,0.2874,0.2874,0.2874,0.2874,0.2874,0.2874,0.2874,0.2874,0.2874,0.2874,0.2874,0.2874,0.2874,0.2874,0.2874,0.2874,0.2874,0.2874,0.2874,0.0,0.0,0.0,0.0,0.0,0.0,0.0,0.0,0.0,0.0,0.0,0.0,0.0,0.0,0.0,0.0,0.0,0.0,0.0,-0.4882,-0.5192,-0.5578,-0.5795,-0.6127,-0.6611,-0.648,-0.6162,-0.5714,-0.3836,-0.1737,0.0367,0.0678,0.1063,0.163,0.1539,0.1474,0.1436,0.1436,0.1436,0.1436,0.1436,0.1436,0.0,0.0,0.0,0.0,0.0,0.0,0.0,0.0,0.158,0.1666,0.1689,0.1763,0.184,0.184,0.184,0.1855,0.1929,0.2005,0.2089,0.2192,0.2219,0.2259,0.2398,0.2421,0.2425,0.247,0.2504,0.2538,0.2578,0.4447,0.568,0.4482,0.5855,0.6926,0.6303,0.7417,0.8201,0.7567,0.8148,0.855,0.8583,0.8587,0.8587,0.8587,0.8587,0.823,0.7517,0.7517,0.716,0.6448,0.6448,0.6448,0.6448,0.6448,0.5912,0.4662,0.3411,0.2874,0.2874,0.2874,0.2874,0.2874,0.2874,0.2874,0.2874,0.2874,0.2874,0.2874,0.2874,0.2874,0.2874,0.2874,0.2874,0.2874,0.0,0.0,0.0,0.0,0.0,0.0,0.0,0.0,0.0,0.0,0.0,0.0,0.0,0.0,0.0,0.0,0.0,0.0,-0.4703,-0.4974,-0.5273,-0.5605,-0.5839,-0.5958,-0.594,-0.5665,-0.5428,-0.5421,-0.2987,-0.086,0.083,0.0662,0.1052,0.164,0.1539,0.1494,0.1491,0.1461,0.1449,0.1448,0.1429,0.1426,0.0,0.0,0.0,0.0,0.0,0.0,0.0,0.0,0.1591,0.1677,0.1686,0.1765,0.1853,0.1843,0.1874,0.1919,0.1962,0.2031,0.2119,0.2229,0.2274,0.2335,0.2503,0.2521,0.2511,0.2548,0.3055,0.3413,0.3476,0.6028,0.7745,0.6546,0.7973,0.9063,0.8352,0.9375,1.0029,0.9504,0.9949,1.0372,1.0372,1.0372,1.0372,1.0372,1.0372,1.0189,0.9477,0.9477,0.9299,0.8587,0.8587,0.8587,0.8587,0.8587,0.7874,0.6627,0.5378,0.4126,0.2874,0.2874,0.2874,0.2874,0.2874,0.2874,0.2874,0.2874,0.2874,0.2874,0.2874,0.2874,0.2874,0.2874,0.2874,0.2874,0.0,0.0,0.0,0.0,0.0,0.0,0.0,0.0,0.0,0.0,0.0,0.0,0.0,0.0,0.0,0.0,0.0,0.0,-0.4828,-0.517,-0.5371,-0.5371,-0.5828,-0.5519,-0.4422,-0.4015,-0.434,-0.5412,-0.2548,-0.012,0.1838,0.1748,0.1704,0.1699,0.158,0.156,0.161,0.1519,0.148,0.1475,0.1415,0.1408,0.1433,0.0,0.0,0.0,0.0,0.0,0.0,0.0,0.1655,0.171,0.174,0.1812,0.188,0.185,0.1947,0.2063,0.2063,0.2108,0.2191,0.2339,0.2334,0.2346,0.2555,0.2533,0.2503,0.2623,0.3968,0.5174,0.5518,0.6919,0.8111,0.8198,0.9899,1.0517,0.8705,1.1624,1.3371,1.1614,1.3142,1.4299,1.4299,1.4299,1.4299,1.4299,1.4299,1.3407,1.1616,1.1438,1.055,0.8765,0.8587,0.8587,0.8587,0.8587,0.8587,0.8587,0.8587,0.6627,0.2874,0.2874,0.2874,0.2874,0.2874,0.2874,0.2874,0.2874,0.2874,0.2874,0.2874,0.2874,0.2874,0.2874,0.2874,0.2874,0.0,0.0,0.0,0.0,0.0,0.0,0.0,0.0,0.0,0.0,0.0,0.0,0.0,0.0,0.0,0.0,0.0,0.0,-0.4763,-0.5175,-0.5377,-0.5388,-0.5763,-0.5246,-0.3695,-0.2753,-0.1995,-0.1337,0.024,0.129,0.1808,0.1759,0.1714,0.1673,0.1637,0.1596,0.155,0.1501,0.148,0.1479,0.1461,0.1459,0.1468,0.0,0.0,0.0,0.0,0.0,0.0,0.0,0.0,0.0,0.1708,0.1795,0.188,0.185,0.1917,0.1997,0.1977,0.2076,0.2203,0.2268,0.235,0.2443,0.2548,0.2536,0.2851,0.4305,0.605,0.745,0.7525,1.0078,1.1751,1.0509,1.08,1.144,1.2188,1.2265,1.2523,1.3331,1.3918,1.4299,1.4299,1.4299,1.4299,1.4299,1.4299,1.4122,1.3407,1.3407,1.3224,1.2692,1.2692,1.2692,1.2692,1.2692,1.1976,1.055,1.055,0.9299,0.6984,0.6984,0.6984,0.6984,0.6984,0.6984,0.6806,0.5378,0.4126,0.2874,0.2874,0.2874,0.2874,0.2874,0.2874,0.2874,0.0,0.0,0.0,0.0,0.0,0.0,0.0,0.0,-0.0554,-0.2145,-0.2101,-0.2146,0.0,0.0,0.0,-0.3989,-0.4533,0.0,-0.4844,-0.4513,-0.4578,-0.5393,-0.4577,-0.3487,-0.2101,-0.0898,0.0106,0.0924,0.114,0.1449,0.1725,0.1741,0.1737,0.1715,0.1715,0.1684,0.1629,0.1576,0.1553,0.1551,0.1527,0.1524,0.1535,0.0,0.0,0.0,0.0,0.0,0.0,0.0,0.0,0.0,0.1682,0.1753,0.1838,0.1868,0.1958,0.2053,0.2083,0.2196,0.2318,0.236,0.2429,0.2506,0.2578,0.2589,0.2941,0.425,0.6489,0.8211,0.8494,1.1435,1.3482,1.2423,1.236,1.2805,1.3894,1.3242,1.2953,1.4108,1.4299,1.4299,1.4299,1.4299,1.4299,1.4299,1.4299,1.4299,1.4299,1.4299,1.4299,1.4299,1.4299,1.4299,1.4299,1.4299,1.3761,1.2509,1.2509,1.1976,1.0728,0.9299,0.8587,0.8587,0.8587,0.8587,0.8587,0.7338,0.627,0.5199,0.5199,0.5199,0.502,0.4305,0.3947,0.3947,0.0,0.0,0.0,0.0,0.0,0.0,0.0,0.0375,0.0,0.0,-0.1092,-0.1452,0.0,0.0,0.0,-0.2267,-0.3921,-0.5034,-0.5034,-0.3447,-0.3197,-0.4713,-0.2411,-0.082,-0.01,0.112,0.1644,0.1641,0.0734,0.073,0.162,0.1708,0.1764,0.1791,0.1794,0.1794,0.1785,0.1693,0.1655,0.1654,0.1598,0.1591,0.161,0.1588,0.0,0.0,0.0,0.0,0.0,0.0,0.0,0.0,0.1662,0.1703,0.1771,0.1883,0.2024,0.2169,0.2275,0.2383,0.2478,0.2533,0.2538,0.2552,0.2637,0.268,0.2898,0.3158,0.59,0.8289,0.9074,1.1783,1.3933,1.4068,1.4211,1.4251,1.4116,1.4211,1.4299,1.4299,1.4299,1.4299,1.4299,1.4299,1.4299,1.4299,1.4299,1.4299,1.4299,1.4299,1.4299,1.4299,1.4299,1.4299,1.4299,1.4299,1.4299,1.4299,1.4299,1.4299,1.4122,1.0728,0.9121,0.9121,0.9121,0.8943,0.8943,0.8943,0.8765,0.8587,0.8587,0.8587,0.8409,0.6627,0.5912,0.5733,0.0,0.0,0.0,0.0,0.0,0.0,0.0915,0.0398,0.0,0.0,-0.0275,-0.0357,-0.0,-0.03,0.0,-0.0547,-0.3295,-0.4961,-0.4961,-0.3447,-0.1803,-0.0168,0.0532,0.0915,0.1012,0.141,0.1508,0.1485,0.1387,0.1426,0.162,0.1708,0.1753,0.176,0.1785,0.1782,0.1752,0.1639,0.1605,0.1625,0.1613,0.1596,0.1585,0.1626,0.1624,0.0,0.0,0.0,0.0,0.0,0.0,0.0,0.1655,0.1703,0.1755,0.178,0.1929,0.2084,0.2086,0.2256,0.2436,0.245,0.2555,0.2665,0.2709,0.2761,0.3669,0.6615,0.7903,0.9401,1.2497,1.3709,1.4211,1.4245,1.4278,1.4285,1.4258,1.4278,1.4299,1.4299,1.4299,1.4299,1.4299,1.4299,1.4299,1.4299,1.4299,1.4299,1.4299,1.4299,1.4299,1.4299,1.4299,1.4299,1.4299,1.4299,1.4299,1.4299,1.4299,1.4299,1.4299,1.3407,1.3046,1.3046,1.3046,1.2154,1.0728,1.0728,1.0011,0.8587,0.8587,0.8587,0.8587,0.8052,0.8052,0.7874,0.0,0.0,0.0,0.0,0.0,0.0,0.0,0.0,0.0,0.0,0.0,0.0,0.0,0.0,0.0,0.0,-0.1619,-0.2405,-0.204,-0.119,-0.0081,0.1325,0.1399,0.1431,0.1414,0.1444,0.1452,0.1436,0.1498,0.1553,0.1596,0.1686,0.1744,0.1774,0.1819,0.1805,0.1746,0.1699,0.168,0.1682,0.1696,0.1684,0.166,0.1692,0.1667,0.1617,0.1617,0.0,0.0,0.0,0.0,0.0,0.0,0.0,0.1703,0.179,0.1903,0.2024,0.2138,0.2304,0.2462,0.2534,0.2634,0.2722,0.2752,0.3507,0.497,0.7929,0.8522,0.9477,1.2331,1.2869,1.3224,1.4122,1.3584,1.3224,1.4122,1.4299,1.4299,1.4299,1.4299,1.4299,1.4299,1.4299,1.4299,1.4299,1.4299,1.4299,1.4299,1.4299,1.4299,1.4299,1.4299,1.4299,1.4299,1.4299,1.4299,1.4299,1.4299,1.4299,1.4299,1.4299,1.4299,1.4299,1.4299,1.3761,1.2869,1.2869,1.2154,1.1261,1.1261,1.1261,1.1261,1.0189,1.0011,0.9833,0.0,0.0,0.0,0.0,0.0,0.0,0.0,0.0,0.0,0.0,0.0,0.0,0.0,0.0,0.0,0.0,0.0,0.0,0.1247,0.1338,0.1276,0.1302,0.1356,0.1385,0.1382,0.1412,0.1427,0.1427,0.1433,0.1485,0.1581,0.166,0.1733,0.1797,0.1842,0.1823,0.1757,0.1763,0.1753,0.1737,0.1761,0.1753,0.1727,0.1733,0.1685,0.1617,0.1617,0.1617,0.1618,0.1622,0.0,0.0,0.0,0.0,0.1648,0.1808,0.1891,0.1981,0.221,0.2368,0.2503,0.2649,0.2716,0.2752,0.2777,0.424,0.627,0.823,0.8943,0.9477,1.1083,1.1616,1.2331,1.3584,1.2692,1.2509,1.4122,1.4299,1.4299,1.4299,1.4299,1.4299,1.4299,1.4299,1.4299,1.4299,1.4299,1.4299,1.4299,1.4299,1.4299,1.4299,1.4299,1.4299,1.4299,1.4299,1.4299,1.4299,1.4299,1.4299,1.4299,1.4299,1.4299,1.4299,1.4299,1.4299,1.4299,1.4299,1.4299,1.4299,1.4299,1.4299,1.4122,1.2509,1.1976,1.1616,0.0,0.0,0.0,0.0,0.0,0.0,0.0,0.0,0.0,0.0,0.0,0.0,0.0,0.0,0.0,0.0,0.0673,0.1213,0.1293,0.0,0.0,0.1302,0.1336,0.1354,0.1354,0.1381,0.1396,0.1396,0.1422,0.1495,0.1611,0.165,0.1714,0.1794,0.1776,0.1776,0.1782,0.1682,0.1654,0.1674,0.1678,0.1662,0.1637,0.1665,0.165,0.1617,0.1617,0.1617,0.1621,0.1647,0.1639,0.0,0.0,0.0,0.1632,0.1707,0.1824,0.1945,0.2007,0.2243,0.2499,0.2622,0.2716,0.2778,0.2782,0.424,0.627,0.823,0.9833,1.1083,1.1438,1.2869,1.3407,1.1976,1.3046,1.3945,1.4299,1.4299,1.4299,1.4299,1.4299,1.4299,1.4299,1.4299,1.4299,1.4299,1.4299,1.4299,1.4299,1.4299,1.4299,1.4299,1.4299,1.4299,1.4299,1.4299,1.4299,1.4299,1.4299,1.4299,1.4299,1.4299,1.4299,1.4299,1.4299,1.4299,1.4299,1.4299,1.4299,1.4299,1.4299,1.4299,1.4299,1.3945,1.3938,1.3938,0.0,0.0,0.0,0.0,0.0,0.0,0.0,0.0,0.0,0.0,0.0,0.0372,0.0372,0.029,0.0288,0.0297,0.0668,0.1051,0.1312,0.1262,0.1277,0.1277,0.129,0.1305,0.1322,0.1351,0.1374,0.1391,0.1421,0.1506,0.1643,0.1671,0.1734,0.182,0.1806,0.1789,0.1765,0.1714,0.168,0.1663,0.168,0.2242,0.2925,0.1998,0.2224,0.2921,0.1978,0.1643,0.1647,0.1675,0.1666,0.165,0.1692,0.0,0.0,0.0,0.1764,0.1873,0.2074,0.2294,0.2502,0.2638,0.2716,0.2767,0.2801,0.5117,0.7463,0.8401,1.0905,1.3046,1.3046,1.2869,1.2692,1.3046,1.2869,1.3046,1.4122,1.4299,1.4299,1.4299,1.4299,1.4299,1.4299,1.4299,1.4299,1.4299,1.4299,1.4299,1.4299,1.4299,1.4299,1.4299,1.4299,1.4299,1.4299,1.4299,1.4299,1.4299,1.4299,1.4299,1.4299,1.4299,1.4299,1.4299,1.4299,1.4299,1.4299,1.4299,1.4299,1.4299,1.4299,1.4299,1.4299,1.4299,1.4299,1.4299,0.0,0.0,0.0,0.0,0.0,0.0,0.0,0.0,0.0,0.0,0.0,0.0763,0.0758,0.0,0.0,0.0,0.0741,0.0898,0.1242,0.1253,0.1254,0.1246,0.1253,0.1268,0.1291,0.1328,0.1358,0.138,0.1425,0.1524,0.1674,0.171,0.1783,0.1884,0.1862,0.1819,0.176,0.1745,0.1712,0.178,0.214,0.3098,0.4116,0.3321,0.3844,0.4691,0.2969,0.2361,0.2361,0.1824,0.1696,0.1678,0.1707,0.1692,0.0,0.0,0.0,0.1814,0.2108,0.2297,0.2448,0.2598,0.2687,0.275,0.3317,0.6159,0.8673,0.9074,1.1954,1.4299,1.4299,1.3046,1.2509,1.3407,1.2692,1.2692,1.4122,1.4299,1.4299,1.4299,1.4299,1.4299,1.4299,1.4299,1.4299,1.4299,1.4299,1.4299,1.4299,1.4299,1.4299,1.4299,1.4299,1.4299,1.4299,1.4299,1.4299,1.4299,1.4299,1.4299,1.4299,1.4299,1.4299,1.4299,1.4299,1.4299,1.4299,1.4299,1.4299,1.4299,1.4299,1.4299,1.4299,1.4299,1.4299,1.4299,0.0,0.0,0.0,0.0,0.0,0.0,0.0,0.0,0.0,0.0,0.0,0.1243,0.1291,0.1285,0.1197,0.1171,0.1194,0.1211,0.1213,0.1241,0.1245,0.1215,0.1242,0.0,0.1338,0.1317,0.1264,0.1265,0.1437,0.1555,0.1703,0.1763,0.1869,0.2005,0.1921,0.185,0.1789,0.1731,0.1705,0.1813,0.3306,0.4061,0.4498,0.5973,0.667,0.6719,0.4892,0.4318,0.4059,0.2329,0.1727,0.1707,0.1738,0.1708,0.1663,0.0,0.0,0.0,0.1979,0.2142,0.2293,0.2443,0.2611,0.3079,0.4959,0.7,0.9091,1.076,1.2777,1.4299,1.4299,1.4299,1.3584,1.1799,1.3046,1.4122,1.4299,1.4299,1.4299,1.4299,1.4299,1.4299,1.4299,1.4299,1.4299,1.4299,1.4299,1.4299,1.4299,1.4299,1.4299,1.4299,1.4299,1.4299,1.4299,1.4299,1.4299,1.4299,1.4299,1.4299,1.4299,1.4299,1.4299,1.4299,1.4299,1.4299,1.4299,1.4299,1.4299,1.4299,1.4299,1.4299,1.4299,1.4299,1.4299,1.4299,0.0,0.0,0.0,0.0,0.0,0.0,0.0,0.0,0.0,0.0,0.0,0.0,0.0,0.1301,0.1215,0.1301,0.1216,0.1212,0.1212,0.1221,0.1223,0.1212,0.1241,0.1335,0.1335,0.1317,0.1356,0.1374,0.1445,0.1549,0.168,0.1757,0.1834,0.1904,0.1911,0.1903,0.1876,0.1776,0.1733,0.1957,0.3856,0.5219,0.6064,0.7074,0.7893,0.846,0.6708,0.5421,0.4288,0.3669,0.2731,0.1735,0.1746,0.1722,0.1685,0.1667,0.1704,0.178,0.1924,0.2059,0.2193,0.2345,0.3439,0.4607,0.5379,0.7913,1.0539,1.1175,1.2765,1.4183,1.4285,1.4299,1.4122,1.3407,1.3761,1.4299,1.4299,1.4299,1.4299,1.4299,1.4299,1.4299,1.4299,1.4299,1.4299,1.4299,1.4299,1.4299,1.4299,1.4299,1.4299,1.4299,1.4299,1.4299,1.4299,1.4299,1.4299,1.4299,1.4299,1.4299,1.4299,1.4299,1.4299,1.4299,1.4299,1.4299,1.4299,1.4299,1.4245,1.4156,1.4156,1.4095,1.4007,1.4007,1.4007,1.4021,0.0,0.0,0.0,0.0,0.0,0.0,0.0,0.0,0.1276,0.1286,0.0,0.0,0.0,0.0,0.1261,0.1272,0.1245,0.1223,0.1212,0.1221,0.1223,0.1212,0.1251,0.1272,0.1272,0.1331,0.1376,0.1406,0.1466,0.1558,0.1678,0.1757,0.1823,0.1872,0.1892,0.1911,0.1925,0.1834,0.1795,0.203,0.477,0.6226,0.6965,0.8169,0.9032,0.9411,0.781,0.646,0.5485,0.5459,0.4677,0.3536,0.2853,0.22,0.1699,0.167,0.1704,0.1767,0.1849,0.1958,0.2086,0.2236,0.3257,0.4683,0.607,0.8429,1.0677,1.1969,1.3261,1.4163,1.4211,1.4265,1.4299,1.4299,1.4299,1.4299,1.4299,1.4299,1.4299,1.4299,1.4299,1.4299,1.4299,1.4299,1.4299,1.4299,1.4299,1.4299,1.4299,1.4299,1.4299,1.4299,1.4299,1.4299,1.4299,1.4299,1.4299,1.4299,1.4299,1.4299,1.4299,1.4299,1.4299,1.4299,1.4299,1.4299,1.4299,1.4245,1.4163,1.4068,1.4014,1.3933,1.3838,1.3838,1.3838,1.3858,0.0,0.0,0.0,0.0,0.0,0.0,0.1299,0.0,0.1314,0.126,0.0,0.0,0.0,0.0,0.0,0.1307,0.1277,0.1246,0.1215,0.1241,0.1242,0.1213,0.1271,0.1302,0.1302,0.1359,0.1406,0.1437,0.1497,0.1585,0.1703,0.1764,0.1839,0.1922,0.1865,0.1872,0.1925,0.1895,0.1884,0.2255,0.599,0.7154,0.7038,0.9568,1.0098,0.9446,0.8041,0.7567,0.7513,0.7364,0.7314,0.6996,0.494,0.3072,0.1699,0.167,0.1704,0.1749,0.0,0.0,0.0,0.211,0.2217,0.336,0.7137,0.8216,0.9416,1.3075,1.4061,1.4224,1.4095,1.4197,1.4299,1.4292,1.4299,1.4299,1.4299,1.4299,1.4299,1.4299,1.4299,1.4299,1.4299,1.4299,1.4299,1.4299,1.4299,1.4299,1.4299,1.4299,1.4299,1.4299,1.4299,1.4299,1.4299,1.4299,1.4299,1.4299,1.4299,1.4299,1.4299,1.4299,1.4299,1.4299,1.4292,1.4292,1.4285,1.4136,1.4068,1.4041,1.3892,1.3831,1.3831,1.3831,1.3831,1.3831,0.0,0.0,0.0,0.0,0.0,0.1325,0.1333,0.1336,0.1339,0.0,0.0,0.0,0.1264,0.1366,0.1374,0.1366,0.132,0.1277,0.1247,0.1232,0.122,0.1212,0.1271,0.1302,0.1302,0.1359,0.1415,0.1468,0.1506,0.1565,0.1643,0.1701,0.1742,0.1768,0.1795,0.1817,0.1831,0.1801,0.1838,0.2165,0.5757,0.7331,0.7971,1.1305,1.2578,1.2574,1.244,1.1396,1.0221,1.0114,0.828,0.554,0.3298,0.2104,0.1699,0.167,0.1704,0.1745,0.1723,0.0,0.0,0.0,0.0,0.0,0.564,0.7845,1.0112,1.1694,1.2823,1.3607,1.4,1.4197,1.4265,1.415,1.4231,1.4299,1.4299,1.4299,1.4299,1.4299,1.4299,1.4299,1.4299,1.4299,1.4299,1.4299,1.4299,1.4299,1.4299,1.4299,1.4299,1.4299,1.4299,1.4299,1.4299,1.4299,1.4299,1.4299,1.4299,1.4299,1.4299,1.4299,1.4299,1.4292,1.4183,1.4136,1.4129,1.4089,1.3946,1.3749,1.3702,1.362,1.3519,1.3519,1.3519,1.3539,0.0,0.0,0.1326,0.126,0.1283,0.1384,0.1384,0.1406,0.1422,0.0,0.0,0.0,0.1422,0.1437,0.1441,0.1429,0.1373,0.1332,0.1314,0.1296,0.1281,0.1269,0.1326,0.1352,0.1339,0.1385,0.1433,0.148,0.151,0.1551,0.1599,0.1659,0.1686,0.1688,0.1723,0.1746,0.1756,0.1738,0.1801,0.2284,0.6149,0.7779,0.8223,1.1541,1.2775,1.2671,1.3261,1.2528,1.1437,1.2298,0.9896,0.6382,0.4903,0.3183,0.1771,0.173,0.176,0.1797,0.1753,0.18,0.1866,0.1896,0.0,0.0,0.5923,0.7797,0.9878,1.1866,1.3102,1.3729,1.4021,1.4197,1.4272,1.4183,1.4245,1.4299,1.4299,1.4299,1.4299,1.4299,1.4299,1.4299,1.4299,1.4299,1.4299,1.4299,1.4299,1.4299,1.4299,1.4299,1.4299,1.4299,1.4299,1.4299,1.4299,1.4299,1.4299,1.4299,1.4299,1.4265,1.4204,1.4272,1.4231,1.4109,1.4082,1.4,1.3885,1.3885,1.3783,1.362,1.3559,1.3478,1.3403,1.3403,1.3403,1.341,0.0,0.15,0.144,0.1366,0.1411,0.1448,0.1455,0.1501,0.1538,0.0,0.1543,0.1547,0.155,0.1547,0.1536,0.1512,0.1449,0.141,0.141,0.1397,0.138,0.1273,0.1408,0.1423,0.1396,0.1425,0.1453,0.148,0.151,0.1542,0.1573,0.163,0.1658,0.1658,0.1761,0.1777,0.1806,0.203,0.2234,0.2763,0.6779,0.8285,0.8516,1.1498,1.2152,1.1782,1.2318,1.2239,1.2119,1.3749,1.1766,0.8581,0.8253,0.5469,0.2503,0.2166,0.2081,0.2127,0.1937,0.1847,0.1898,0.1925,0.1936,0.0,0.6356,0.7482,0.8678,1.2294,1.3416,1.378,1.3885,1.4,1.4109,1.4122,1.417,1.4217,1.4272,1.4292,1.4292,1.4278,1.4292,1.4299,1.4299,1.4299,1.4299,1.4299,1.4299,1.4299,1.4299,1.4299,1.4299,1.4299,1.4299,1.4299,1.4299,1.4299,1.4299,1.4299,1.4285,1.4204,1.4075,1.4197,1.4102,1.3844,1.3966,1.3871,1.3627,1.3614,1.3607,1.3593,1.3451,1.3403,1.3403,1.3403,1.3403,1.3403,0.2722,0.2494,0.2281,0.157,0.1501,0.1525,0.1573,0.1591,0.1607,0.1633,0.1655,0.1678,0.1703,0.1684,0.1677,0.1696,0.1598,0.1536,0.1536,0.1444,0.1399,0.1418,0.1429,0.1433,0.1426,0.1456,0.1475,0.148,0.151,0.1542,0.1572,0.1609,0.1625,0.1625,0.2031,0.2357,0.2508,0.3811,0.4787,0.5693,0.7112,0.8933,1.1276,1.3268,1.4438,1.4921,1.5326,1.5233,1.4731,1.3468,1.2165,1.0749,0.8449,0.7166,0.6097,0.4024,0.3722,0.3875,0.2252,0.1895,0.1924,0.1929,0.1966,0.0,0.2894,0.4018,0.5538,0.7832,0.94,1.0883,1.2393,1.2752,1.2895,1.3017,1.3342,1.3702,1.4068,1.4224,1.4251,1.4129,1.4224,1.4299,1.4299,1.4299,1.4299,1.4299,1.4299,1.4299,1.4299,1.4299,1.4299,1.4299,1.4299,1.4299,1.4299,1.4299,1.4299,1.4299,1.4177,1.4102,1.4068,1.3973,1.3899,1.3838,1.3749,1.3682,1.362,1.3498,1.3444,1.3444,1.341,1.3403,1.3403,1.3403,1.3403,1.3403,0.3621,0.3615,0.3535,0.3119,0.3217,0.311,0.2581,0.2527,0.267,0.2694,0.3416,0.3781,0.3605,0.3766,0.3778,0.3605,0.3564,0.3256,0.2624,0.2507,0.2149,0.148,0.1495,0.1495,0.148,0.1495,0.1504,0.1504,0.1534,0.175,0.1963,0.2398,0.2996,0.3656,0.4043,0.4411,0.4966,0.5452,0.6633,0.8099,0.8984,1.0624,1.267,1.4569,1.5618,1.6202,1.6381,1.6324,1.5956,1.4777,1.3162,1.1586,1.0492,0.9061,0.7208,0.5189,0.4721,0.4446,0.2435,0.193,0.1954,0.1954,0.1964,0.0,0.0,0.3991,0.5175,0.7098,0.8237,0.9254,1.083,1.1268,1.1664,1.2434,1.3057,1.3376,1.3302,1.3871,1.4245,1.4089,1.4204,1.4238,1.4089,1.4211,1.4299,1.4299,1.4299,1.4299,1.4299,1.4299,1.4265,1.419,1.4183,1.415,1.4075,1.4068,1.4068,1.4068,1.3994,1.3919,1.3851,1.3844,1.3763,1.362,1.3627,1.3587,1.3512,1.3431,1.3403,1.3403,1.3403,1.3403,1.3403,1.3403,1.3403,1.3403,0.4701,0.467,0.4736,0.4664,0.4897,0.4794,0.3943,0.3841,0.4039,0.4195,0.5253,0.5985,0.5769,0.6071,0.6124,0.5903,0.5886,0.5335,0.3956,0.3742,0.304,0.1588,0.1577,0.157,0.1569,0.1643,0.1627,0.1621,0.175,0.2061,0.2551,0.3293,0.4295,0.5609,0.6144,0.6697,0.7332,0.7372,0.8437,1.0252,1.1351,1.2409,1.3555,1.531,1.6194,1.6487,1.6552,1.6625,1.6625,1.6227,1.4135,1.2017,1.2704,1.0812,0.7958,0.6061,0.5705,0.5237,0.2664,0.1996,0.2009,0.2004,0.1984,0.2363,0.0,0.0,0.0,0.7144,0.7643,0.8246,0.9775,1.0263,1.0749,1.1938,1.2617,1.2834,1.2318,1.3234,1.3905,1.3783,1.4082,1.417,1.3831,1.4027,1.4197,1.4251,1.4204,1.4386,1.4292,1.4476,1.4421,1.4122,1.4089,1.4014,1.3885,1.3858,1.3838,1.3838,1.381,1.3743,1.3634,1.3715,1.3627,1.341,1.3532,1.3512,1.3403,1.3403,1.3403,1.3403,1.3403,1.3403,1.3403,1.3403,1.3403,1.3403,0.5697,0.5621,0.5501,0.4747,0.4839,0.5018,0.4974,0.508,0.5334,0.5574,0.588,0.6256,0.6683,0.6841,0.7136,0.7444,0.751,0.6696,0.4736,0.4585,0.3611,0.1802,0.1655,0.162,0.1722,0.2125,0.223,0.219,0.2234,0.2551,0.3142,0.3492,0.4079,0.493,0.6847,0.7715,0.7709,0.9714,1.1416,1.2779,1.3527,1.3905,1.4136,1.5431,1.5934,1.6146,1.647,1.6779,1.6974,1.6446,1.46,1.2469,1.313,1.234,1.0442,0.7239,0.7252,0.7463,0.3322,0.2153,0.2128,0.2101,0.2091,0.2065,0.2224,0.0,0.3028,0.5586,0.0,0.7089,0.9818,0.0,0.0,1.0697,1.1226,1.1545,1.1341,1.2115,1.2698,1.2684,1.3641,1.4129,1.3695,1.3688,1.3817,1.4082,1.4187,1.4386,1.4278,1.4646,1.4639,1.4272,1.4143,1.4061,1.4048,1.3912,1.3838,1.3838,1.3715,1.3648,1.3627,1.3505,1.3431,1.3403,1.3417,1.3417,1.3403,1.3403,1.3403,1.3403,1.3403,1.3403,1.3403,1.3403,1.3403,1.3403,0.6605,0.6697,0.6807,0.6514,0.681,0.6923,0.6347,0.6808,0.7094,0.7232,0.8263,0.8949,0.898,0.9365,0.9714,0.982,0.9974,0.936,0.0,0.7272,0.6364,0.4747,0.3439,0.2952,0.3222,0.2998,0.3007,0.3046,0.3666,0.4377,0.507,0.5698,0.6599,0.8021,0.9354,1.0458,1.1084,1.1804,1.2538,1.3255,1.3818,1.4083,1.4326,1.5715,1.6357,1.6535,1.6682,1.6836,1.6925,1.6698,1.5385,1.4099,1.5038,1.4062,1.2284,0.9971,0.88,0.7703,0.4425,0.3984,0.4139,0.3455,0.373,0.4113,0.326,0.3081,0.3441,0.4564,0.0,0.0,0.0,0.0,0.0,0.0,1.0744,1.0989,1.0575,1.1511,1.2244,1.2244,0.0,0.0,1.3485,1.3498,1.3858,1.4513,1.4351,1.4501,1.5154,1.4999,1.4956,1.452,1.4194,1.3899,1.3817,1.3661,1.3587,1.3587,1.386,1.3832,1.3492,1.3763,1.3735,1.3403,1.3403,1.3403,1.3403,1.3403,1.3403,1.3403,1.3403,1.3403,1.3403,1.3403,1.3403,1.3403,0.7265,0.7448,0.7645,0.7787,0.818,0.8321,0.7879,0.8285,0.8793,0.8898,1.0161,1.1028,1.0884,1.1518,1.2064,1.1991,1.2293,1.1829,0.0,0.9551,0.8676,0.7204,0.5577,0.4772,0.5046,0.4618,0.4357,0.4455,0.5267,0.5972,0.6676,0.7335,0.8492,1.0062,1.1209,1.2353,1.3417,1.3368,1.3644,1.4123,1.4335,1.4643,1.5098,1.6113,1.6649,1.686,1.6909,1.6925,1.6909,1.6812,1.5806,1.4652,1.5886,1.507,1.3354,1.1867,1.058,0.895,0.623,0.5951,0.6282,0.5127,0.5366,0.5752,0.4862,0.4608,0.4687,0.5039,0.599,0.0,0.0,0.0,0.8823,0.9808,0.0,1.0493,0.0,1.0751,0.0,0.0,0.0,0.0,0.0,1.3119,1.3528,1.4693,1.4513,1.4703,1.5675,1.5521,1.5293,1.4835,1.4333,1.4029,1.3919,1.3727,1.3791,1.3791,1.4081,1.4059,1.3728,1.4066,1.3901,1.3569,1.3403,1.3403,1.3403,1.3403,1.3403,1.3403,1.3403,1.3403,1.3403,1.3403,1.3403,1.3403,0.7584,0.759,0.7645,0.7787,0.818,0.8682,0.9279,0.952,0.9868,1.0426,1.1024,1.1603,1.1888,1.2775,1.3372,1.3535,1.3992,1.3413,1.1489,1.0907,1.0034,0.8459,0.7429,0.6985,0.7263,0.7138,0.694,0.66,0.66,0.6907,0.7418,0.7585,0.8166,0.9327,1.1374,1.2499,1.2938,1.414,1.5155,1.5943,1.578,1.6235,1.6966,1.6495,1.6535,1.6877,1.7039,1.7104,0.0,1.6706,1.5248,0.0,1.4906,1.4346,1.3271,1.2058,1.2437,1.2478,0.8913,0.8117,0.7998,0.6949,0.6439,0.6288,0.619,0.6161,0.6545,0.7832,0.8296,0.8728,1.0035,1.027,1.012,0.0,0.0,0.0,0.0,0.0,0.0,0.0,0.0,0.0,0.0,1.2406,1.2786,0.0,1.4283,1.4848,1.5652,1.6049,1.5873,1.4985,1.4842,1.4764,1.4757,1.4444,1.4455,1.4959,1.4795,1.4713,1.4713,1.4232,1.4066,1.4066,1.3569,1.3403,1.3403,1.3403,1.3403,1.3403,1.3403,1.3403,1.3403,1.3403,1.3403,1.3403,0.8474,0.8364,0.8188,0.7841,0.818,0.8723,0.9422,1.0371,1.1052,1.1312,1.1985,1.2654,1.2978,1.3511,1.3956,1.4244,0.0,1.4486,1.3621,1.3077,0.0,1.208,0.9935,0.8913,0.9484,0.8616,0.8097,0.8043,0.8594,0.9075,0.9399,0.9331,0.9792,1.0545,1.1896,1.2938,1.3766,1.4432,1.509,1.5699,1.5748,1.6097,1.6568,1.6511,1.6714,1.7015,1.6958,1.7015,0.0,1.6836,1.612,1.5609,1.6005,1.564,1.4914,1.4202,1.3556,1.2559,1.1035,1.1177,1.1354,0.9618,0.9506,0.9587,0.8481,0.7941,0.7796,0.8236,0.9092,0.9922,1.0176,1.0195,1.0046,0.0,0.0,0.0,0.0,0.0,0.0,0.0,0.0,0.0,0.0,0.0,0.0,0.0,1.499,0.0,1.6545,1.6401,1.6225,1.5873,1.554,1.5285,1.5285,1.4961,1.4799,1.4967,1.5127,1.5051,1.4713,1.4886,1.4721,1.4555,1.439,1.4059,1.3901,1.3901,1.3735,1.3403,1.3403,1.3403,1.3403,1.3403,1.3403,1.3403,0.9293,0.9168,0.8931,0.8507,0.8779,0.937,1.0102,1.1171,1.1942,1.2211,1.2962,1.3522,1.3793,1.413,1.4546,1.468,1.5176,1.5187,1.4822,1.4437,0.0,1.4286,1.2313,1.1447,1.2079,1.0785,1.0053,0.9982,1.0324,1.046,1.0615,1.0371,1.0607,1.1256,1.2028,1.3011,1.4115,1.4667,1.5285,1.5902,1.6016,1.6276,1.6592,1.6657,1.6779,1.6925,0.0,1.7015,1.7096,1.6982,1.6868,1.6771,1.6771,1.6527,1.6235,1.5838,1.4901,1.3924,1.3339,1.3554,1.3767,1.2244,1.2169,1.2101,1.075,1.0276,1.0115,1.0028,1.0638,1.1199,1.1575,1.0857,0.0,0.0,0.0,0.0,0.0,0.9567,0.0,0.0,0.0,0.0,0.0,0.0,0.0,0.0,0.0,0.0,0.0,1.6753,1.6577,1.6401,1.5943,1.5889,1.5889,1.5561,1.5394,1.5563,1.5664,1.5381,1.5216,1.5381,1.5216,1.4886,1.4713,1.439,1.4066,1.4066,1.3901,1.3403,1.3403,1.3403,1.3403,1.3403,1.3403,1.3403,0.9987,0.9964,0.9874,0.9572,0.9921,1.0547,1.1203,1.1999,1.2602,1.3099,1.3898,1.4431,1.414,1.479,1.5184,1.5042,1.5217,1.539,1.5041,1.5,0.0,0.0,1.4497,1.4375,1.4724,1.3506,1.2694,1.2361,1.1614,1.1175,1.1013,1.0647,1.0753,1.1273,1.1817,1.2743,1.3961,1.4846,1.574,1.6568,1.6576,1.6779,1.7071,1.6925,1.6755,1.6641,1.6982,1.7112,1.7112,1.7112,1.7112,1.7112,1.7096,1.7104,1.708,1.6901,1.686,1.6583,1.5727,1.5585,1.5303,1.4456,1.4057,1.3808,1.3311,1.3197,1.3197,1.319,1.2671,1.2626,1.3687,0.0,0.0,0.0,0.0,0.0,0.0,0.0,0.0,0.0,0.0,0.0,0.0,0.0,0.0,0.0,0.0,0.0,0.0,1.708,1.6896,1.6401,1.6401,1.6401,1.6401,1.6058,1.6236,1.6576,1.6219,1.6048,1.6048,1.5546,1.5381,1.5381,1.4878,1.4555,1.4232,1.4232,1.3901,1.3403,1.3403,1.3403,1.3403,1.3403,1.3403,1.3403,1.0898,1.097,1.1113,1.1051,1.0875,1.0845,1.1389,1.23,1.3059,1.356,1.4414,1.4983,1.5265,1.5473,1.5707,1.5731,1.5747,0.0,0.0,0.0,0.0,1.5756,1.5,1.4741,1.5098,1.3872,1.3189,1.31,1.2117,1.1679,1.1744,1.1248,1.124,1.1654,1.219,1.2978,1.3953,1.4716,1.5553,1.6389,1.6527,1.6633,1.6738,0.0,1.6933,1.6812,1.7031,1.7112,1.7112,1.7112,1.7112,1.7088,1.6958,1.7006,1.708,1.6901,1.6942,1.6982,1.6551,1.6478,1.6342,1.5647,1.5215,1.4828,1.4439,1.4037,1.3853,1.3733,1.3702,1.3582,0.0,0.0,0.0,0.0,0.0,0.0,0.0,0.0,0.0,1.0281,0.0,0.0,0.0,0.0,0.0,0.0,0.0,0.0,0.0,0.0,1.622,1.6912,1.6936,1.6936,1.6936,1.6583,1.6406,1.6576,1.6219,1.6048,1.6048,1.5883,1.5883,1.5883,1.5711,1.5381,1.5051,1.5051,1.4563,1.3901,1.3901,1.3735,1.3403,1.3403,1.3403,1.3403,1.1614,1.1849,1.2025,1.2099,1.2169,1.2529,1.3629,1.3694,1.4091,1.5445,1.5333,1.5382,1.5845,1.5959,1.6081,1.6267,1.6276,1.6211,1.6056,0.0,0.0,1.5926,1.5593,1.5496,1.5699,1.4789,0.0,1.3839,1.2921,1.232,1.202,1.1557,1.15,1.1801,1.2328,1.2978,1.3742,1.4846,1.5699,1.6324,1.6592,1.6747,0.0,1.7031,1.7104,1.7088,1.7104,1.7112,1.7112,1.7112,1.7112,1.7096,1.6998,1.7031,1.7088,1.6998,1.6982,1.699,1.6974,1.6909,1.6795,1.6568,1.6261,1.5909,1.548,1.5215,1.503,1.4937,1.4758,1.4618,0.0,0.0,0.0,0.0,0.0,0.0,0.0,0.0,0.0,0.0,0.0,0.0,0.0,0.0,0.0,0.0,0.0,0.0,0.0,0.0,1.6285,1.7088,1.7039,1.7031,1.7112,1.6674,1.6503,1.6576,1.6219,1.6048,1.6048,1.6048,1.6048,1.6048,1.6048,1.5719,1.5381,1.5381,1.5051,1.439,1.4232,1.3735,1.3403,1.3403,1.3403,1.3403,1.2174,1.2572,1.2946,1.2946,1.3653,1.4988,1.6768,1.5487,1.5117,1.7226,1.6414,1.5723,1.6073,1.6251,1.6397,1.6527,1.6544,1.6414,1.6097,1.6373,1.6341,1.5902,1.6154,1.63,1.63,1.5764,1.5147,0.0,1.3709,1.2913,1.2093,1.1711,1.163,1.1833,1.2361,1.2962,1.3677,1.5179,1.6016,1.6373,1.6738,1.699,1.7145,1.7521,1.7452,1.7396,1.7587,1.7337,1.7145,1.712,1.7112,1.7112,1.7112,1.7112,1.7112,1.7112,1.7006,1.6917,1.7071,1.6982,1.6893,1.7071,1.7096,1.6958,1.6511,1.6405,1.6405,1.6405,1.5918,1.5788,1.6787,0.0,0.0,0.0,0.0,0.0,0.0,0.0,0.0,0.0,0.0,0.0,0.0,0.0,0.0,0.0,0.0,0.0,0.0,0.0,1.6405,1.7088,1.6966,1.695,1.708,1.6584,1.6405,1.6544,1.6202,1.6048,1.6048,1.6048,1.6048,1.6048,1.6048,1.5875,1.5546,1.5546,1.5216,1.4713,1.4232,1.3901,1.3403,1.3403,1.3403,1.3403,1.2726,1.3133,1.3498,1.3498,1.5096,1.7125,1.9457,1.7009,1.5187,1.6082,1.5999,1.6089,1.6446,1.6511,1.6479,1.6365,1.6349,1.6324,1.6259,0.0,0.0,1.6438,1.6349,1.63,1.63,1.5634,1.5082,0.0,1.3636,1.2913,1.2458,1.1963,1.1817,1.2012,1.2548,1.3498,1.4741,1.5626,1.6202,1.656,1.6917,1.7177,1.7534,1.9267,1.8989,1.7772,1.9339,1.8875,1.7315,1.7161,1.7112,1.7112,1.7112,1.7112,1.7112,1.7112,1.7088,1.7071,1.7104,1.6982,1.6893,1.7071,1.7006,1.6909,1.6958,1.6966,1.6966,1.6966,1.6868,1.6674,1.63,0.0,0.0,0.0,0.0,0.0,0.0,0.0,0.0,0.0,0.0,0.0,0.0,0.0,0.0,0.0,0.0,0.0,0.0,0.0,1.5321,0.0,1.708,1.7015,0.0,0.0,1.647,1.6349,1.6146,1.6048,1.6048,1.6048,1.6048,1.6048,1.6048,1.5883,1.5883,1.5883,1.5711,1.5216,1.4397,1.4066,1.3901,1.3569,1.3569,1.3901,1.3384,1.3677,1.4231,1.5175,1.6554,1.8187,2.0436,1.9539,1.8896,1.9896,1.9282,1.8837,1.9361,1.9523,1.9637,1.9742,1.9647,1.9637,1.9742,1.8803,1.8193,1.8086,1.7086,1.6454,1.6178,1.6016,1.5528,1.4708,1.4091,1.3368,1.2556,1.2215,1.2044,1.2077,1.3084,1.4066,1.5033,1.604,1.7061,1.8281,1.8769,1.956,2.0711,2.17,2.1631,2.1,2.178,2.1571,2.029,1.8051,1.7315,1.7356,1.7169,1.7177,1.7234,1.7136,1.7112,1.7112,1.7112,1.7047,1.7006,1.7088,1.7047,1.7006,1.7088,1.7112,1.7455,1.8322,1.7805,1.6893,1.6178,1.5297,0.0,0.0,0.0,0.0,0.0,0.0,0.0,0.0,0.0,0.0,0.0,0.0,0.0,0.0,0.0,0.0,0.0,0.0,1.5377,0.0,0.0,0.0,1.699,0.0,1.6535,1.6446,1.6267,1.6129,1.6048,1.6048,1.6048,1.6048,1.6048,1.6048,1.6048,1.6048,1.5711,1.5381,1.4893,1.4563,1.439,1.3901,1.4066,1.439,1.4736,1.4948,1.5738,1.7663,1.8652,1.9802,2.159,2.2391,2.3142,2.3596,2.2301,2.1633,2.2251,2.2533,2.2815,2.313,2.2805,2.2783,2.3141,2.1587,2.05,2.0206,1.8913,1.7896,1.7434,1.7643,1.7173,0.0,0.0,1.4449,1.337,1.2644,1.257,1.3046,1.4305,1.5535,1.6564,1.7556,1.894,2.0604,2.1038,2.2168,2.3586,2.3996,2.414,2.3922,2.4085,2.414,2.3348,1.9913,1.845,1.8116,1.7966,1.7621,1.7348,1.7169,1.7112,1.7112,1.7112,1.7112,1.7112,1.7112,1.7112,1.7112,1.7112,1.7112,1.7455,1.9012,1.8497,1.7586,1.7207,1.6842,0.0,0.0,0.0,0.0,0.0,0.0,0.0,0.0,0.0,0.0,0.0,0.0,0.0,0.0,0.0,0.0,1.5129,0.0,0.0,0.0,0.0,1.6787,1.6885,0.0,1.656,1.6519,1.6332,1.6178,1.6048,1.6048,1.6048,1.6048,1.6048,1.6048,1.6048,1.6048,1.5875,1.5546,1.5381,1.5216,1.4878,1.439,1.4555,1.4713,1.7241,1.787,1.862,2.0526,2.2544,2.3896,2.4106,2.5906,2.6082,2.2865,2.2522,2.275,2.3021,2.326,2.3336,2.3173,2.3141,2.3141,2.3163,2.2966,2.3031,2.3192,2.2468,2.2235,2.2161,2.1789,2.137,0.0,0.0,1.6788,1.5692,1.3733,1.4009,1.6396,1.693,1.8762,2.1437,2.1862,2.2353,2.2966,2.3283,2.3666,2.4037,2.5896,2.5638,2.4204,2.599,2.5457,2.3978,2.3359,2.1891,2.028,2.0046,1.8769,1.7348,1.7169,1.7112,1.7112,1.7112,1.7112,1.7112,1.7112,1.7112,1.7112,1.7112,1.7112,1.7112,1.7288,1.8672,2.0019,2.1024,2.1652,2.1097,0.0,0.0,0.0,0.0,0.0,0.0,0.0,0.0,0.0,0.0,0.0,0.0,0.0,1.4114,0.0,0.0,0.0,0.0,1.6349,1.6365,1.6284,1.6146,1.6438,1.6495,1.6324,1.6154,1.6064,1.6048,1.6048,1.6048,1.6048,1.6048,1.6048,1.6048,1.6048,1.6048,1.5883,1.5546,1.5381,1.5216,1.4878,1.4886,1.5216,2.0185,2.0293,2.0783,2.2843,2.3896,2.5025,2.6517,2.7627,2.7787,2.6573,2.6363,2.6438,2.6524,2.6647,2.6909,2.6983,2.6834,2.681,2.6971,2.577,2.5126,2.5056,2.3775,2.3021,2.2598,2.2544,2.2099,0.0,0.0,1.7427,1.6506,1.5765,1.6731,1.934,2.0211,2.1231,2.219,2.3076,2.4086,2.5406,2.5577,2.6449,2.7553,2.8398,2.8256,2.7715,2.8449,2.8256,2.7521,2.7411,2.5297,2.2625,2.2245,2.17,2.1233,2.1008,2.0852,2.0754,2.0754,2.0482,2.0385,2.0385,2.0385,2.0385,2.0385,2.0385,2.0732,2.177,2.2622,2.3049,2.2425,2.2143,2.1782,2.0952,0.0,0.0,0.0,0.0,0.0,0.0,0.0,0.0,0.0,0.0,0.0,0.0,0.0,0.0,0.0,0.0,0.0,1.5642,0.0,1.66,1.6202,1.656,1.6649,1.647,1.7276,1.7616,1.7656,1.8636,1.9115,1.9124,1.7983,1.8146,1.9115,1.7983,1.7492,1.7492,1.6196,1.5711,1.5711,1.5216,1.5381,1.5711,2.2564,2.2712,2.3144,2.526,2.574,2.6505,2.814,2.8671,2.8938,2.9138,2.9138,2.9138,2.9165,2.9245,2.9379,2.9593,2.9419,2.9392,2.9593,2.8156,2.7234,2.7209,2.5878,2.4974,2.4601,2.4453,2.4287,2.3728,2.1112,1.9542,1.9075,1.8505,1.9746,2.2257,2.3161,2.3879,2.4415,2.531,2.6437,2.7633,2.782,2.8629,2.9913,2.9913,2.9913,2.9913,2.9913,2.9913,2.9913,2.9913,2.8076,2.5627,2.4643,2.4096,2.3824,2.3575,2.3336,2.3152,2.3152,2.2805,2.2622,2.2622,2.2622,2.2622,2.2622,2.2622,2.3137,2.5032,2.5373,2.5203,2.4349,2.3925,2.3445,2.3258,0.0,0.0,0.0,2.2374,0.0,0.0,1.9447,1.9075,1.8694,0.0,0.0,0.0,0.0,0.0,0.0,0.0,0.0,0.0,0.0,0.0,1.705,1.7256,1.7699,1.7998,1.9123,1.9424,1.943,2.0565,2.1222,2.106,1.9917,2.0079,2.106,1.9917,1.9115,1.8463,1.7173,1.6534,1.6048,1.5711,1.5711,1.5883,2.4592,2.5361,2.6153,2.8182,2.8818,2.9018,2.9032,2.9285,2.9472,2.9472,2.998,3.0114,2.9539,2.9726,2.99,2.9913,2.9913,2.9913,2.9913,2.99,2.99,2.99,2.9633,2.9472,2.9459,2.8898,2.8591,2.8577,0.0,2.4394,2.3984,2.1916,2.2495,2.5477,2.5502,2.6974,2.9459,2.9472,2.9646,2.9913,2.9913,2.9913,2.9913,2.9913,2.9913,2.9913,2.9913,2.9913,2.9913,2.9913,2.9913,2.9502,2.7392,2.5316,2.3824,2.3575,2.3336,2.3152,2.3152,2.2805,2.2622,2.2622,2.2622,2.2622,2.2622,2.2622,2.3137,2.5032,2.5373,2.5896,2.7799,2.8136,2.7328,2.5012,2.5033,0.0,0.0,2.1958,0.0,1.9298,1.8173,1.7904,1.897,1.5902,0.0,0.0,0.0,0.0,0.0,0.0,0.0,1.8891,1.7294,0.0,1.8626,1.8885,1.9992,2.1424,2.134,2.1222,2.1222,2.1222,2.1222,2.1222,2.1222,2.1222,2.1222,2.1222,2.0079,1.8626,1.8626,1.7492,1.6048,1.6048,1.6048,1.6048,2.7547,2.781,2.8087,2.8711,2.9312,2.9633,2.9633,3.006,3.0381,3.0381,3.0541,3.0581,3.0394,3.0287,3.0221,3.0221,3.0034,2.9913,2.9913,2.9913,2.9913,2.9913,2.982,2.9686,2.9486,2.9299,2.9112,2.8898,2.6563,2.5249,2.5243,2.4589,2.5657,2.793,2.8321,2.8947,2.9499,2.97,2.9833,2.9913,2.9913,2.9913,2.9913,2.9913,2.9913,2.9913,2.9913,2.9913,2.9913,2.9913,2.9913,2.9721,2.9078,2.8501,2.7925,2.7837,2.7611,2.736,2.7172,2.692,2.6657,2.6468,2.6418,2.6418,2.6418,2.6418,2.6588,2.7109,2.7279,2.7448,2.8136,2.8136,2.7875,2.7263,2.7278,2.7006,2.6234,0.0,2.4071,2.3484,2.1889,2.1627,2.3258,2.0623,0.0,0.0,0.0,0.0,0.0,0.0,0.0,0.0,1.7397,0.0,2.0403,1.9717,1.9992,2.1588,2.2474,2.3644,2.4773,2.3484,2.3644,2.4614,2.3484,2.3644,2.4614,2.3484,2.2682,2.2028,2.0899,2.0089,1.944,1.8146,1.7819,1.7819,2.9366,2.9459,2.9539,2.9539,2.9927,3.0247,3.0247,3.0555,3.0795,3.0795,3.0889,3.0955,3.0955,3.0795,3.0635,3.0528,3.0354,3.0247,3.0247,3.0247,3.0247,3.0247,3.014,2.9993,2.982,2.9593,2.9392,2.9205,2.7663,2.6954,2.7056,2.7241,2.8017,2.9392,2.9753,2.982,2.9659,2.9847,2.9913,2.9913,2.9913,2.9913,2.9913,2.9913,2.9913,2.9913,2.9913,2.9913,2.9913,2.9913,2.9913,2.9913,2.9913,2.9913,2.9913,2.9913,2.9713,2.9446,2.9259,2.8911,2.8564,2.8364,2.823,2.8136,2.8136,2.8136,2.8136,2.8136,2.8136,2.8136,2.8136,2.8136,2.8136,2.8136,2.8136,2.8136,2.8136,2.7109,2.6124,0.0,0.0,0.0,0.0,2.2549,2.1501,0.0,0.0,0.0,0.0,0.0,1.7422,1.9624,1.9325,2.0138,2.2459,2.1531,2.185,2.3399,2.4369,2.5422,2.6386,2.5263,2.5422,2.6386,2.5263,2.5422,2.6386,2.5263,2.4455,2.3656,2.2671,2.1706,2.106,1.9917,1.9115,1.8626,2.998,3.0194,3.0394,3.0394,3.0635,3.0822,3.0822,3.0835,3.0849,3.0849,3.1089,3.1249,3.1249,3.1249,3.1142,3.0875,3.0808,3.0795,3.0795,3.0795,3.0795,3.0795,3.0528,3.0394,3.0394,2.9833,2.9539,2.9513,2.9232,2.9245,2.9513,2.9513,2.9659,2.9913,2.9913,2.9913,2.9913,2.9913,2.9913,2.9913,2.9913,2.9913,2.9913,2.9913,2.9913,2.9913,2.9913,2.9913,2.9913,2.9913,2.9913,2.9913,2.9913,2.9913,2.9913,2.9913,2.9726,2.9513,2.9486,2.9085,2.8657,2.8644,2.8404,2.8163,2.815,2.8136,2.8136,2.8136,2.8136,2.8136,2.8136,2.8136,2.8136,2.8136,2.8136,2.8136,2.8136,2.8136,2.7328,2.5037,2.4788,0.0,2.2475,2.2311,2.24,0.0,0.0,0.0,0.0,0.0,1.9684,2.2718,2.2385,2.2989,2.4564,2.4323,2.4876,2.6386,2.6386,2.6386,2.6386,2.6386,2.6386,2.6386,2.6386,2.6386,2.6386,2.6386,2.5422,2.3976,2.3976,2.3003,2.1545,2.1383,2.0403,1.9105,3.0581,3.0648,3.0688,3.0688,3.0929,3.1129,3.1129,3.1316,3.1463,3.1463,3.1517,3.157,3.157,3.157,3.1543,3.1463,3.1049,3.0795,3.0795,3.0795,3.0795,3.0795,3.0728,3.0688,3.0688,3.0341,3.0047,2.982,2.974,2.974,2.982,2.982,2.9847,2.9913,2.9913,2.9913,2.9913,2.9913,2.9913,2.9913,2.9913,2.9913,2.9913,2.9913,2.9913,2.9913,2.9913,2.9913,2.9913,2.9913,2.9913,2.9913,2.9913,2.9913,2.9913,2.9913,2.9873,2.9766,2.9539,2.9379,2.9219,2.8991,2.8711,2.843,2.819,2.8136,2.8136,2.8136,2.8136,2.8136,2.8136,2.8136,2.8136,2.8136,2.8136,2.8136,2.8136,2.8136,2.807,2.7341,2.7315,2.7148,2.6813,2.6633,2.5941,0.0,0.0,2.3492,2.1991,2.2418,2.319,2.4362,2.2987,2.358,2.6274,2.4889,2.4876,2.6386,2.6386,2.6386,2.6386,2.6386,2.6386,2.6386,2.6386,2.6386,2.6386,2.6386,2.6228,2.574,2.574,2.5581,2.4933,2.3644,2.2843,2.2682,3.1556,3.1383,3.1196,3.1196,3.1504,3.1611,3.1423,3.1935,3.2232,3.2043,3.2043,3.2043,3.2043,3.1853,3.1664,3.1664,3.1383,3.1196,3.1196,3.1196,3.1196,3.1196,3.1062,3.0996,3.0996,3.0702,3.0474,3.0314,3.0181,3.0114,3.0114,2.998,2.9913,2.9913,2.9913,2.9913,2.9913,2.9913,2.9913,2.9913,2.9913,2.9913,2.9913,2.9913,2.9913,2.9913,2.9913,2.9913,2.9913,2.9913,2.9913,2.9913,2.9913,2.9913,2.9913,2.9913,2.9913,2.9887,2.9726,2.9579,2.9419,2.9112,2.8818,2.8564,2.839,2.8243,2.8136,2.8136,2.8136,2.8136,2.8136,2.8136,2.8136,2.8136,2.8136,2.8136,2.8136,2.8136,2.8136,2.8136,2.8136,2.8136,2.8136,2.8136,2.7601,2.63,2.6262,0.0,2.4564,2.5263,2.5552,2.4975,2.4579,2.5149,2.6827,2.5706,2.5564,2.6386,2.6386,2.6386,2.6386,2.6386,2.6386,2.6386,2.6386,2.6386,2.6386,2.6386,2.6386,2.6386,2.6386,2.6386,2.6228,2.5263,2.4455,2.3976,3.2597,3.2232,3.1853,3.1853,3.2232,3.2421,3.2043,3.2611,3.2974,3.2597,3.2597,3.2597,3.2597,3.2232,3.1853,3.1853,3.1853,3.1853,3.1664,3.1664,3.1664,3.1664,3.1423,3.1289,3.1289,3.1009,3.0835,3.0795,3.0541,3.0421,3.0421,3.0167,3.0047,3.0047,3.0007,2.998,2.998,2.994,2.9913,2.9913,2.9913,2.9913,2.9913,2.9913,2.9913,2.9913,2.9913,2.9913,2.9913,2.9913,2.9913,2.9913,2.9913,2.9913,2.9913,2.9913,2.9913,2.9913,2.9913,2.974,2.9472,2.9179,2.8925,2.8711,2.8631,2.8404,2.8203,2.815,2.8136,2.8136,2.8136,2.8136,2.8123,2.8083,2.811,2.8123,2.8083,2.811,2.8136,2.8136,2.8136,2.8136,2.8136,2.8096,2.807,2.807,2.8043,2.7896,2.7642,2.7589,2.6887,2.5367,2.6294,2.6894,2.6894,2.66,2.648,2.652,2.648,2.6453,2.6453,2.6453,2.6426,2.6386,2.6386,2.6386,2.6386,2.6386,2.6386,2.6386,2.6386,2.6386,2.6386,2.6386,2.5422,2.4455,3.3177,3.2988,3.2988,3.2988,3.2988,3.2988,3.2988,3.3177,3.3163,3.3163,3.3177,3.3177,3.3177,3.2974,3.2988,3.2988,3.2611,3.2043,3.1664,3.1664,3.1664,3.1664,3.1623,3.1597,3.1597,3.1316,3.1036,3.0795,3.0742,3.0728,3.0728,3.0675,3.0662,3.0648,3.0408,3.0287,3.0274,3.002,2.9913,2.9913,2.9913,2.9913,2.9913,2.9913,2.9913,2.9913,2.9913,2.9913,2.9913,2.9913,2.9913,2.9913,2.9913,2.9913,2.9913,2.9913,2.9913,2.9913,2.9913,2.9887,2.978,2.9486,2.9379,2.9219,2.8724,2.8577,2.8457,2.819,2.8136,2.8136,2.8136,2.8136,2.8056,2.7802,2.7976,2.8056,2.7802,2.7989,2.8136,2.8136,2.8136,2.8136,2.8136,2.7909,2.7762,2.7762,2.7535,2.7388,2.7335,2.7094,2.6799,2.6462,2.6945,2.7201,2.7201,2.6907,2.6881,2.7121,2.6881,2.6747,2.6747,2.6747,2.6613,2.6386,2.6386,2.6386,2.6386,2.6386,2.6386,2.6386,2.6386,2.6386,2.6386,2.6386,2.6228,2.607,3.354,3.3351,3.3177,3.3177,3.3351,3.354,3.3163,3.3742,3.393,3.354,3.354,3.354,3.354,3.3351,3.3177,3.3177,3.2974,3.2597,3.2043,3.1853,3.1664,3.1664,3.1664,3.1664,3.1664,3.153,3.1396,3.1263,3.1102,3.1022,3.1022,3.0862,3.0795,3.0782,3.0648,3.0595,3.0581,3.0448,3.0301,3.0154,3.0154,3.006,2.9913,2.9913,2.9913,2.9913,2.9913,2.9913,2.9913,2.9913,2.9806,2.9713,2.986,2.9806,2.9686,2.9686,2.9793,2.9913,2.9913,2.9913,2.9887,2.9753,2.9606,2.9419,2.9138,2.8831,2.8564,2.8417,2.8257,2.8096,2.7936,2.7896,2.7802,2.7509,2.7575,2.7629,2.7482,2.7589,2.7736,2.7883,2.7762,2.7736,2.7883,2.7642,2.7468,2.7468,2.7348,2.7201,2.7041,2.6894,2.6747,2.66,2.672,2.68,2.68,2.6653,2.6653,2.6787,2.6653,2.6587,2.6587,2.6587,2.652,2.6386,2.6386,2.6386,2.6386,2.6386,2.6386,2.6386,2.6386,2.6386,2.6386,2.6386,2.6386,2.6386,3.4103,3.3742,3.3554,3.3554,3.393,3.393,3.3554,3.4132,3.4508,3.4118,3.4103,3.4103,3.4103,3.3728,3.3351,3.3351,3.3177,3.28,3.2408,3.2043,3.1664,3.1664,3.1664,3.1664,3.1664,3.1664,3.1664,3.1664,3.1436,3.133,3.133,3.1102,3.0996,3.0996,3.0929,3.0889,3.0889,3.0822,3.0662,3.0461,3.0461,3.0287,3.002,3.002,2.998,2.9913,2.9847,2.982,2.9806,2.974,2.9566,2.9419,2.9646,2.9566,2.9379,2.9379,2.9539,2.974,2.9873,2.986,2.9833,2.99,2.97,2.9459,2.9392,2.8978,2.8564,2.843,2.8203,2.7949,2.7655,2.7602,2.7509,2.7215,2.7228,2.7241,2.7175,2.7228,2.7348,2.7575,2.7402,2.7348,2.7575,2.7335,2.7161,2.7161,2.7108,2.6961,2.6734,2.672,2.6613,2.64,2.6453,2.652,2.66,2.652,2.652,2.66,2.652,2.6493,2.6493,2.6493,2.6453,2.6386,2.6386,2.6386,2.6386,2.6386,2.6386,2.6386,2.6386,2.6386,2.6386,2.6386,2.6386,2.6386,3.4695,3.471,3.4522,3.4522,3.4695,3.4695,3.4508,3.471,3.471,3.4695,3.4695,3.4695,3.4695,3.4118,3.3916,3.3916,3.2974,3.2408,3.2408,3.2043,3.1664,3.1664,3.1664,3.1664,3.1664,3.1664,3.1664,3.1664,3.165,3.1637,3.1637,3.161,3.1597,3.1597,3.1316,3.1196,3.1169,3.0902,3.0782,3.0755,3.0755,3.0581,3.0327,3.0327,3.0154,2.9887,2.9619,2.9513,2.9472,2.9192,2.9085,2.9072,2.9098,2.9085,2.9072,2.9072,2.9085,2.9219,2.9766,2.9726,2.9579,2.9847,2.97,2.9406,2.9138,2.8831,2.8444,2.7883,2.7749,2.7642,2.7348,2.7295,2.7201,2.6907,2.7081,2.7175,2.6894,2.7094,2.7268,2.7295,2.7281,2.7268,2.7295,2.7028,2.6854,2.6854,2.66,2.644,2.6426,2.6426,2.6413,2.6386,2.6653,2.6921,2.7201,2.6921,2.6934,2.7201,2.6921,2.6787,2.6787,2.6787,2.664,2.6386,2.6386,2.6386,2.6386,2.6386,2.6386,2.6386,2.6386,2.6386,2.6386,2.6386,2.6386,2.6386,3.471,3.471,3.471,3.471,3.471,3.471,3.471,3.471,3.471,3.471,3.471,3.471,3.471,3.4508,3.4305,3.3916,3.354,3.3163,3.2408,3.2232,3.2043,3.1664,3.1664,3.1664,3.1664,3.1664,3.1664,3.1664,3.1664,3.1664,3.1664,3.1664,3.1664,3.1664,3.1557,3.1503,3.149,3.1383,3.1236,3.1062,3.1062,3.0662,3.01,3.0287,2.9953,2.9379,2.9459,2.9366,2.9192,2.9072,2.8925,2.8804,2.8978,2.8911,2.8804,2.8991,2.8778,2.8617,2.9205,2.9299,2.9232,2.9352,2.9285,2.9179,2.9072,2.8818,2.8537,2.831,2.7963,2.7602,2.7321,2.7108,2.6894,2.66,2.6653,2.668,2.6573,2.6653,2.6787,2.6974,2.6827,2.68,2.6974,2.672,2.656,2.656,2.6453,2.6386,2.6386,2.6386,2.6386,2.6386,2.6493,2.66,2.672,2.6613,2.6613,2.672,2.66,2.656,2.656,2.656,2.6493,2.6386,2.6386,2.6386,2.6386,2.6386,2.6386,2.6386,2.6386,2.6386,2.6386,2.6386,2.6386,2.6386,3.471,3.471,3.471,3.471,3.471,3.471,3.471,3.471,3.471,3.471,3.471,3.471,3.471,3.4508,3.4305,3.3916,3.3728,3.3351,3.28,3.2408,3.2232,3.1664,3.1664,3.1664,3.1664,3.1664,3.1664,3.1664,3.1664,3.1664,3.1664,3.1664,3.1664,3.1664,3.1664,3.1664,3.1664,3.1664,3.1557,3.137,3.137,3.0889,3.0207,3.0314,2.9873,2.9179,2.9205,2.9072,2.8885,2.8791,2.8631,2.8497,2.8698,2.8617,2.8497,2.8698,2.847,2.823,2.8644,2.8751,2.8804,2.8991,2.9045,2.9018,2.8925,2.8751,2.8524,2.8243,2.7923,2.7589,2.7201,2.6961,2.676,2.656,2.6453,2.6386,2.6386,2.6386,2.6466,2.6667,2.6507,2.6466,2.6667,2.6507,2.6386,2.6386,2.6386,2.6386,2.6386,2.6386,2.6386,2.6386,2.6386,2.6386,2.6386,2.6386,2.6386,2.6386,2.6386,2.6386,2.6386,2.6386,2.6386,2.6386,2.6386,2.6386,2.6386,2.6386,2.6386,2.6386,2.6386,2.6386,2.6386,2.6386,2.6386,2.6386,3.471,3.471,3.471,3.471,3.471,3.471,3.471,3.471,3.471,3.471,3.471,3.471,3.471,3.4305,3.3916,3.3916,3.354,3.3177,3.3163,3.28,3.2232,3.1664,3.1664,3.1664,3.1664,3.1664,3.1664,3.1664,3.1664,3.1664,3.1664,3.1664,3.1664,3.1664,3.1664,3.1664,3.1664,3.1664,3.1664,3.1664,3.1664,3.1316,3.0755,3.0461,2.9993,2.9406,2.8818,2.8604,2.8564,2.8243,2.8136,2.8136,2.8136,2.8136,2.8136,2.8136,2.8136,2.8136,2.8136,2.8136,2.8283,2.8885,2.9032,2.8965,2.8671,2.8604,2.835,2.7455,2.7495,2.7522,2.6934,2.6827,2.6827,2.6814,2.6573,2.6386,2.6386,2.6386,2.6386,2.6386,2.6386,2.6386,2.6386,2.6386,2.6386,2.6386,2.6386,2.6386,2.6386,2.6386,2.6386,2.6386,2.6386,2.6386,2.6386,2.6386,2.6386,2.6386,2.6386,2.6386,2.6386,2.6386,2.6386,2.6386,2.6386,2.6386,2.6386,2.6386,2.6386,2.6386,2.6386,2.6386,2.6386,2.6386,2.6386,2.6386,3.471,3.471,3.471,3.471,3.471,3.471,3.471,3.471,3.471,3.471,3.471,3.471,3.471,3.4508,3.4305,3.3916,3.3728,3.3351,3.2597,3.2421,3.2232,3.1664,3.1664,3.1664,3.1664,3.1664,3.1664,3.1664,3.1664,3.1664,3.1664,3.1664,3.1664,3.1664,3.1664,3.1664,3.1664,3.1664,3.1543,3.1356,3.1356,3.0889,3.0167,3.0087,2.9553,2.8845,2.8671,2.847,2.827,2.8177,2.8136,2.8136,2.8136,2.8136,2.8136,2.8136,2.8136,2.8136,2.8136,2.831,2.8511,2.8684,2.8738,2.8764,2.8885,2.8577,2.8203,2.7936,2.7629,2.7281,2.6894,2.6827,2.676,2.6547,2.6453,2.6386,2.6386,2.6386,2.6386,2.6386,2.6386,2.6386,2.6386,2.6386,2.6386,2.6386,2.6386,2.6386,2.6386,2.6386,2.6386,2.6386,2.6386,2.6386,2.6386,2.6386,2.6386,2.6386,2.6386,2.6386,2.6386,2.6386,2.6386,2.6386,2.6386,2.6386,2.6386,2.6386,2.6386,2.6386,2.6386,2.6386,2.6386,2.6386,2.6386,2.6386,3.471,3.471,3.471,3.471,3.471,3.471,3.471,3.471,3.471,3.471,3.471,3.471,3.471,3.471,3.4508,3.4305,3.4305,3.393,3.2974,3.2786,3.2421,3.2043,3.1853,3.1664,3.1664,3.1664,3.1664,3.1664,3.1664,3.1664,3.1664,3.1664,3.1664,3.1664,3.1664,3.1597,3.149,3.149,3.1316,3.1049,3.1049,3.0662,3.0074,2.9833,2.9339,2.8751,2.8511,2.831,2.8136,2.8136,2.8136,2.8136,2.8136,2.8136,2.8136,2.8136,2.8136,2.8136,2.8136,2.8283,2.8457,2.8577,2.8778,2.8965,2.9032,2.8764,2.839,2.8043,2.7682,2.7308,2.6894,2.6827,2.676,2.6587,2.656,2.652,2.64,2.6493,2.652,2.64,2.6386,2.6386,2.6386,2.6386,2.6386,2.6386,2.6386,2.6386,2.6386,2.6386,2.6386,2.6386,2.6386,2.6386,2.6386,2.6386,2.6386,2.6386,2.6386,2.6386,2.6386,2.6386,2.6386,2.6386,2.6386,2.6386,2.6386,2.6386,2.6386,2.6386,2.6386,2.6386,2.6386,2.6386,2.6386,2.6386,3.471,3.4882,3.4882,3.4695,3.4882,3.4882,3.471,3.471,3.471,3.471,3.471,3.471,3.471,3.471,3.471,3.471,3.471,3.4508,3.3916,3.354,3.2974,3.2408,3.2043,3.1664,3.1664,3.1664,3.1664,3.1664,3.1664,3.1664,3.1664,3.1664,3.165,3.1637,3.1664,3.149,3.1196,3.1209,3.1036,3.0755,3.0755,3.0581,3.0261,2.97,2.9299,2.8965,2.839,2.8163,2.8136,2.8136,2.8136,2.8136,2.8136,2.8136,2.8136,2.8136,2.8136,2.8136,2.8136,2.8163,2.8257,2.8537,2.9032,2.9379,2.9098,2.9018,2.8751,2.7883,2.7682,2.7482,2.6894,2.68,2.6814,2.6787,2.6787,2.6694,2.6426,2.664,2.6707,2.6426,2.6413,2.6413,2.6386,2.6386,2.6386,2.6386,2.6386,2.6386,2.6386,2.6386,2.6386,2.6386,2.6386,2.6386,2.6386,2.6386,2.6386,2.6386,2.6386,2.6386,2.6386,2.6386,2.6386,2.6386,2.6386,2.6386,2.6386,2.6386,2.6386,2.6386,2.6386,2.6386,2.6386,2.6386,2.6386,2.6386,3.471,3.5972,3.6498,3.4882,3.5972,3.6498,3.4882,3.471,3.471,3.471,3.471,3.471,3.471,3.471,3.471,3.471,3.471,3.4508,3.3916,3.3728,3.3351,3.2408,3.2232,3.2043,3.1677,3.1664,3.1664,3.1664,3.1664,3.1664,3.1664,3.1664,3.1543,3.133,3.157,3.1383,3.0902,3.1129,3.0929,3.0448,3.0448,3.0274,2.9967,2.9619,2.9299,2.8991,2.8631,2.835,2.8136,2.8136,2.8136,2.8136,2.8136,2.8136,2.8136,2.8136,2.8136,2.8136,2.8136,2.8323,2.8524,2.8591,2.8871,2.9112,2.9058,2.8858,2.8511,2.7843,2.7522,2.7175,2.6587,2.6667,2.6747,2.652,2.648,2.6466,2.64,2.664,2.6707,2.6426,2.6587,2.664,2.6413,2.6386,2.6386,2.6386,2.6386,2.6386,2.6386,2.6386,2.6386,2.6386,2.6386,2.6386,2.6386,2.6386,2.6386,2.6386,2.6386,2.6386,2.6386,2.6386,2.6386,2.6386,2.6386,2.6386,2.6386,2.6386,2.6386,2.6386,2.6386,2.6386,2.6386,2.6386,2.6386,2.6386,3.7423,3.831,3.8677,3.7591,3.831,3.8677,3.7591,3.7423,3.7423,3.7423,3.7423,3.7423,3.7423,3.7423,3.7423,3.7423,3.6699,3.5957,3.5756,3.4651,3.3728,3.3163,3.2974,3.2611,3.2043,3.1908,3.1719,3.1664,3.153,3.1463,3.145,3.1316,3.1169,3.1022,3.1183,3.0996,3.0595,3.0755,3.0555,3.0154,3.0154,3.006,2.9887,2.9593,2.9299,2.9005,2.8711,2.8404,2.8136,2.8136,2.8136,2.8136,2.8136,2.8136,2.8136,2.8136,2.8136,2.8136,2.8136,2.8257,2.839,2.839,2.8617,2.8871,2.9005,2.8818,2.843,2.7829,2.7468,2.7081,2.6493,2.6507,2.656,2.6413,2.6507,2.6547,2.6413,2.664,2.676,2.6613,2.6613,2.656,2.64,2.6386,2.6386,2.6386,2.6386,2.6386,2.6386,2.6386,2.6386,2.6386,2.6386,2.6386,2.6386,2.6386,2.6386,2.6386,2.6386,2.6386,2.6386,2.6386,2.6386,2.6386,2.6386,2.6386,2.6386,2.6386,2.6386,2.6386,2.6386,2.6386,2.6386,2.6386,2.6386,2.6386,4.0395,4.0756,4.0773,4.0481,4.0843,4.0843,4.0481,4.0481,4.0481,4.0481,4.0481,4.0481,4.0481,4.0481,4.0481,4.0481,3.9026,3.7943,3.7575,3.574,3.4276,3.3916,3.3497,3.3121,3.2597,3.2066,3.1851,3.1597,3.1303,3.1156,3.1142,3.0902,3.0768,3.0715,3.0768,3.0608,3.0287,3.0341,3.0194,2.9913,2.9913,2.9913,2.9887,2.9646,2.9339,2.9005,2.8764,2.8457,2.8136,2.8136,2.8136,2.8136,2.8136,2.8136,2.8136,2.8136,2.8136,2.8136,2.8136,2.8136,2.8136,2.8136,2.8337,2.8591,2.8831,2.8738,2.843,2.7829,2.7468,2.7108,2.656,2.6426,2.6386,2.6386,2.6587,2.6667,2.6426,2.664,2.68,2.6747,2.6533,2.6386,2.6386,2.6386,2.6386,2.6386,2.6386,2.6386,2.6386,2.6386,2.6386,2.6386,2.6386,2.6386,2.6386,2.6386,2.6386,2.6386,2.6386,2.6386,2.6386,2.6386,2.6386,2.6386,2.6386,2.6386,2.6386,2.6386,2.6386,2.6386,2.6386,2.6386,2.6386,2.6386,2.6386,2.6386,4.0018,4.1267,4.2084,4.0791,4.1941,4.2479,4.0843,4.0481,4.0481,4.0481,4.0481,4.0481,4.0481,4.0481,4.0481,4.0481,4.03,3.9391,3.7759,3.7207,3.6112,3.3916,3.3672,3.3285,3.3163,3.2046,3.1539,3.1289,3.0996,3.0849,3.0849,3.0808,3.0662,3.0434,3.0675,3.0488,2.9993,3.0247,3.0194,2.9913,2.9913,2.9913,2.9913,2.9873,2.9513,2.9032,2.8991,2.8617,2.8136,2.8136,2.8136,2.8136,2.8136,2.8136,2.8136,2.8136,2.8136,2.8136,2.8136,2.8136,2.8136,2.8136,2.8177,2.8217,2.8257,2.8444,2.843,2.7829,2.7468,2.7161,2.6827,2.656,2.6386,2.6386,2.6426,2.6426,2.64,2.664,2.6734,2.648,2.6413,2.6386,2.6386,2.6386,2.6386,2.6386,2.6386,2.6386,2.6386,2.6386,2.6386,2.6386,2.6386,2.6386,2.6386,2.6386,2.6386,2.6386,2.6386,2.6386,2.6386,2.6386,2.6386,2.6386,2.6386,2.6386,2.6386,2.6386,2.6386,2.6386,2.6386,2.6386,2.6386,2.6386,2.6386,2.6386,4.2858,4.336,4.3763,4.3042,4.3984,4.4329,4.3607,4.3616,4.3763,4.3763,4.3763,4.3763,4.3763,4.3763,4.3763,4.3763,4.2676,4.1761,4.0843,3.886,3.7022,3.5926,3.472,3.3916,3.3313,3.2662,3.2042,3.1464,3.0975,3.0555,3.0541,3.0381,3.0234,3.0114,3.0247,3.0154,2.9927,3.006,3.0034,2.9913,2.9913,2.9913,2.99,2.974,2.9406,2.8991,2.8657,2.8364,2.8136,2.8136,2.8136,2.8136,2.8136,2.8136,2.8136,2.8136,2.8136,2.8136,2.8136,2.8136,2.8136,2.8136,2.8136,2.8136,2.8136,2.8243,2.823,2.7789,2.7468,2.7175,2.6881,2.6587,2.6386,2.6386,2.6386,2.6386,2.6386,2.6507,2.6533,2.64,2.6533,2.656,2.64,2.6386,2.6386,2.6386,2.6386,2.6386,2.6386,2.6386,2.6386,2.6386,2.6386,2.6386,2.6386,2.6386,2.6386,2.6386,2.6386,2.6386,2.6386,2.6386,2.6386,2.6386,2.6386,2.6386,2.6386,2.6386,2.6386,2.6386,2.6386,2.6386,2.6386,2.6386,2.6386,2.6386]}]]